﻿<?xml version="1.0" encoding="UTF-8" standalone="no" ?>
<gpx xmlns="http://www.topografix.com/GPX/1/1" creator="CompeGPS" version="1.1" xmlns:xsi="http://www.w3.org/2001/XMLSchema-instance" xsi:schemaLocation="http://www.topografix.com/GPX/1/1 http://www.topografix.com/GPX/1/1/gpx.xsd http://www.garmin.com/xmlschemas/GpxExtensions/v3 http://www.garmin.com/xmlschemas/GpxExtensionsv3.xsd http://www.garmin.com/xmlschemas/TrackPointExtension/v1 http://www.garmin.com/xmlschemas/TrackPointExtensionv1.xsd" xmlns:gpxtpx="http://www.garmin.com/xmlschemas/TrackPointExtension/v1">
  <metadata>
    <author>
      <email id="" domain=""/>
    </author>
    <copyright author="">
      <license></license>
    </copyright>
    <link href="http://www.compegps.com">
      <text>CompeGPS TEAM, SL</text>
    </link>
    <time>2014-07-17T18:46:01Z</time>
    <bounds maxlat="42.173632" maxlon="1.675517" minlat="42.126953" minlon="1.576218"/>
  </metadata>
  <trk>
    <name>r8-pratformiu-editat</name>
    <trkseg>
      <trkpt lat="42.136057" lon="1.592165">
        <ele>889.9</ele>
        <time>2014-07-17T15:11:48Z</time>
      </trkpt>
      <trkpt lat="42.136048" lon="1.592157">
        <ele>891.4</ele>
        <time>2014-07-17T15:11:51Z</time>
      </trkpt>
      <trkpt lat="42.136046" lon="1.592153">
        <ele>891.3</ele>
        <time>2014-07-17T15:11:52Z</time>
      </trkpt>
      <trkpt lat="42.136044" lon="1.592142">
        <ele>893.2</ele>
        <time>2014-07-17T15:11:56Z</time>
      </trkpt>
      <trkpt lat="42.136039" lon="1.592137">
        <ele>896.7</ele>
        <time>2014-07-17T15:12:01Z</time>
      </trkpt>
      <trkpt lat="42.136037" lon="1.592137">
        <ele>897.2</ele>
        <time>2014-07-17T15:12:03Z</time>
      </trkpt>
      <trkpt lat="42.136038" lon="1.592139">
        <ele>900.4</ele>
        <time>2014-07-17T15:12:04Z</time>
      </trkpt>
      <trkpt lat="42.136038" lon="1.592140">
        <ele>899.1</ele>
        <time>2014-07-17T15:12:05Z</time>
      </trkpt>
      <trkpt lat="42.136040" lon="1.592140">
        <ele>900.5</ele>
        <time>2014-07-17T15:12:08Z</time>
      </trkpt>
      <trkpt lat="42.136037" lon="1.592133">
        <ele>903.9</ele>
        <time>2014-07-17T15:12:15Z</time>
      </trkpt>
      <trkpt lat="42.136030" lon="1.592102">
        <ele>904.7</ele>
        <time>2014-07-17T15:12:17Z</time>
      </trkpt>
      <trkpt lat="42.136125" lon="1.591906">
        <ele>908.1</ele>
        <time>2014-07-17T15:12:24Z</time>
      </trkpt>
      <trkpt lat="42.136246" lon="1.591748">
        <ele>911.6</ele>
        <time>2014-07-17T15:12:30Z</time>
      </trkpt>
      <trkpt lat="42.136358" lon="1.591601">
        <ele>914.8</ele>
        <time>2014-07-17T15:12:36Z</time>
      </trkpt>
      <trkpt lat="42.136447" lon="1.591481">
        <ele>917.2</ele>
        <time>2014-07-17T15:12:41Z</time>
      </trkpt>
      <trkpt lat="42.136641" lon="1.591211">
        <ele>920.7</ele>
        <time>2014-07-17T15:12:52Z</time>
      </trkpt>
      <trkpt lat="42.136876" lon="1.590987">
        <ele>923.6</ele>
        <time>2014-07-17T15:13:04Z</time>
      </trkpt>
      <trkpt lat="42.137129" lon="1.590733">
        <ele>927.0</ele>
        <time>2014-07-17T15:13:17Z</time>
      </trkpt>
      <trkpt lat="42.137500" lon="1.590764">
        <ele>928.3</ele>
        <time>2014-07-17T15:13:31Z</time>
      </trkpt>
      <trkpt lat="42.137934" lon="1.590633">
        <ele>929.8</ele>
        <time>2014-07-17T15:13:45Z</time>
      </trkpt>
      <trkpt lat="42.138045" lon="1.590260">
        <ele>931.3</ele>
        <time>2014-07-17T15:13:55Z</time>
      </trkpt>
      <trkpt lat="42.137737" lon="1.589830">
        <ele>933.7</ele>
        <time>2014-07-17T15:14:10Z</time>
      </trkpt>
      <trkpt lat="42.137338" lon="1.589192">
        <ele>936.0</ele>
        <time>2014-07-17T15:14:30Z</time>
      </trkpt>
      <trkpt lat="42.136972" lon="1.588643">
        <ele>938.0</ele>
        <time>2014-07-17T15:14:47Z</time>
      </trkpt>
      <trkpt lat="42.136549" lon="1.588214">
        <ele>939.8</ele>
        <time>2014-07-17T15:15:03Z</time>
      </trkpt>
      <trkpt lat="42.136408" lon="1.587772">
        <ele>942.2</ele>
        <time>2014-07-17T15:15:15Z</time>
      </trkpt>
      <trkpt lat="42.136661" lon="1.587453">
        <ele>945.2</ele>
        <time>2014-07-17T15:15:27Z</time>
      </trkpt>
      <trkpt lat="42.137075" lon="1.587303">
        <ele>948.1</ele>
        <time>2014-07-17T15:15:41Z</time>
      </trkpt>
      <trkpt lat="42.137553" lon="1.587131">
        <ele>950.9</ele>
        <time>2014-07-17T15:15:57Z</time>
      </trkpt>
      <trkpt lat="42.138088" lon="1.586953">
        <ele>954.3</ele>
        <time>2014-07-17T15:16:15Z</time>
      </trkpt>
      <trkpt lat="42.138447" lon="1.586621">
        <ele>957.1</ele>
        <time>2014-07-17T15:16:30Z</time>
      </trkpt>
      <trkpt lat="42.138421" lon="1.586066">
        <ele>960.0</ele>
        <time>2014-07-17T15:16:44Z</time>
      </trkpt>
      <trkpt lat="42.138379" lon="1.585588">
        <ele>963.4</ele>
        <time>2014-07-17T15:16:56Z</time>
      </trkpt>
      <trkpt lat="42.138346" lon="1.585080">
        <ele>966.8</ele>
        <time>2014-07-17T15:17:09Z</time>
      </trkpt>
      <trkpt lat="42.138281" lon="1.584576">
        <ele>969.6</ele>
        <time>2014-07-17T15:17:22Z</time>
      </trkpt>
      <trkpt lat="42.138404" lon="1.584139">
        <ele>972.5</ele>
        <time>2014-07-17T15:17:37Z</time>
      </trkpt>
      <trkpt lat="42.138544" lon="1.583834">
        <ele>975.4</ele>
        <time>2014-07-17T15:17:51Z</time>
      </trkpt>
      <trkpt lat="42.138713" lon="1.583537">
        <ele>977.9</ele>
        <time>2014-07-17T15:18:05Z</time>
      </trkpt>
      <trkpt lat="42.138812" lon="1.583294">
        <ele>980.3</ele>
        <time>2014-07-17T15:18:16Z</time>
      </trkpt>
      <trkpt lat="42.138847" lon="1.583201">
        <ele>981.3</ele>
        <time>2014-07-17T15:18:20Z</time>
      </trkpt>
      <trkpt lat="42.139041" lon="1.582858">
        <ele>984.1</ele>
        <time>2014-07-17T15:18:36Z</time>
      </trkpt>
      <trkpt lat="42.139208" lon="1.582573">
        <ele>986.5</ele>
        <time>2014-07-17T15:18:50Z</time>
      </trkpt>
      <trkpt lat="42.139324" lon="1.582232">
        <ele>989.4</ele>
        <time>2014-07-17T15:19:04Z</time>
      </trkpt>
      <trkpt lat="42.139397" lon="1.581908">
        <ele>991.4</ele>
        <time>2014-07-17T15:19:17Z</time>
      </trkpt>
      <trkpt lat="42.139476" lon="1.581619">
        <ele>993.2</ele>
        <time>2014-07-17T15:19:29Z</time>
      </trkpt>
      <trkpt lat="42.139622" lon="1.581216">
        <ele>994.2</ele>
        <time>2014-07-17T15:19:43Z</time>
      </trkpt>
      <trkpt lat="42.139801" lon="1.580895">
        <ele>995.1</ele>
        <time>2014-07-17T15:19:55Z</time>
      </trkpt>
      <trkpt lat="42.140053" lon="1.580518">
        <ele>995.6</ele>
        <time>2014-07-17T15:20:08Z</time>
      </trkpt>
      <trkpt lat="42.140226" lon="1.580065">
        <ele>997.5</ele>
        <time>2014-07-17T15:20:23Z</time>
      </trkpt>
      <trkpt lat="42.140362" lon="1.579693">
        <ele>999.5</ele>
        <time>2014-07-17T15:20:36Z</time>
      </trkpt>
      <trkpt lat="42.140440" lon="1.579589">
        <ele>1000.5</ele>
        <time>2014-07-17T15:20:41Z</time>
      </trkpt>
      <trkpt lat="42.140517" lon="1.579477">
        <ele>1001.5</ele>
        <time>2014-07-17T15:20:46Z</time>
      </trkpt>
      <trkpt lat="42.140596" lon="1.579338">
        <ele>1002.9</ele>
        <time>2014-07-17T15:20:53Z</time>
      </trkpt>
      <trkpt lat="42.140692" lon="1.579061">
        <ele>1005.2</ele>
        <time>2014-07-17T15:21:06Z</time>
      </trkpt>
      <trkpt lat="42.140796" lon="1.578789">
        <ele>1006.6</ele>
        <time>2014-07-17T15:21:17Z</time>
      </trkpt>
      <trkpt lat="42.140839" lon="1.578719">
        <ele>1007.1</ele>
        <time>2014-07-17T15:21:20Z</time>
      </trkpt>
      <trkpt lat="42.141025" lon="1.578443">
        <ele>1009.1</ele>
        <time>2014-07-17T15:21:33Z</time>
      </trkpt>
      <trkpt lat="42.141131" lon="1.578171">
        <ele>1010.0</ele>
        <time>2014-07-17T15:21:44Z</time>
      </trkpt>
      <trkpt lat="42.141188" lon="1.578084">
        <ele>1011.0</ele>
        <time>2014-07-17T15:21:48Z</time>
      </trkpt>
      <trkpt lat="42.141474" lon="1.577776">
        <ele>1012.9</ele>
        <time>2014-07-17T15:22:02Z</time>
      </trkpt>
      <trkpt lat="42.141656" lon="1.577574">
        <ele>1014.4</ele>
        <time>2014-07-17T15:22:13Z</time>
      </trkpt>
      <trkpt lat="42.141860" lon="1.577419">
        <ele>1015.4</ele>
        <time>2014-07-17T15:22:24Z</time>
      </trkpt>
      <trkpt lat="42.142062" lon="1.577351">
        <ele>1016.7</ele>
        <time>2014-07-17T15:22:37Z</time>
      </trkpt>
      <trkpt lat="42.142247" lon="1.577356">
        <ele>1018.3</ele>
        <time>2014-07-17T15:22:47Z</time>
      </trkpt>
      <trkpt lat="42.142429" lon="1.577413">
        <ele>1019.1</ele>
        <time>2014-07-17T15:22:52Z</time>
      </trkpt>
      <trkpt lat="42.142583" lon="1.577429">
        <ele>1019.6</ele>
        <time>2014-07-17T15:22:59Z</time>
      </trkpt>
      <trkpt lat="42.142639" lon="1.577400">
        <ele>1020.7</ele>
        <time>2014-07-17T15:23:03Z</time>
      </trkpt>
      <trkpt lat="42.142864" lon="1.577132">
        <ele>1022.0</ele>
        <time>2014-07-17T15:23:18Z</time>
      </trkpt>
      <trkpt lat="42.143083" lon="1.577010">
        <ele>1024.4</ele>
        <time>2014-07-17T15:23:30Z</time>
      </trkpt>
      <trkpt lat="42.143150" lon="1.576996">
        <ele>1024.9</ele>
        <time>2014-07-17T15:23:33Z</time>
      </trkpt>
      <trkpt lat="42.143344" lon="1.576887">
        <ele>1027.4</ele>
        <time>2014-07-17T15:23:45Z</time>
      </trkpt>
      <trkpt lat="42.143379" lon="1.576874">
        <ele>1028.4</ele>
        <time>2014-07-17T15:23:47Z</time>
      </trkpt>
      <trkpt lat="42.143412" lon="1.576857">
        <ele>1028.9</ele>
        <time>2014-07-17T15:23:49Z</time>
      </trkpt>
      <trkpt lat="42.143457" lon="1.576806">
        <ele>1029.8</ele>
        <time>2014-07-17T15:23:54Z</time>
      </trkpt>
      <trkpt lat="42.143545" lon="1.576718">
        <ele>1033.1</ele>
        <time>2014-07-17T15:24:03Z</time>
      </trkpt>
      <trkpt lat="42.143592" lon="1.576648">
        <ele>1035.1</ele>
        <time>2014-07-17T15:24:16Z</time>
      </trkpt>
      <trkpt lat="42.143661" lon="1.576642">
        <ele>1036.5</ele>
        <time>2014-07-17T15:24:23Z</time>
      </trkpt>
      <trkpt lat="42.143772" lon="1.576636">
        <ele>1037.4</ele>
        <time>2014-07-17T15:24:38Z</time>
      </trkpt>
      <trkpt lat="42.143776" lon="1.576635">
        <ele>1037.5</ele>
        <time>2014-07-17T15:24:40Z</time>
      </trkpt>
      <trkpt lat="42.143898" lon="1.576526">
        <ele>1039.8</ele>
        <time>2014-07-17T15:24:51Z</time>
      </trkpt>
      <trkpt lat="42.143893" lon="1.576444">
        <ele>1043.2</ele>
        <time>2014-07-17T15:24:57Z</time>
      </trkpt>
      <trkpt lat="42.143878" lon="1.576396">
        <ele>1043.8</ele>
        <time>2014-07-17T15:24:59Z</time>
      </trkpt>
      <trkpt lat="42.143907" lon="1.576358">
        <ele>1044.6</ele>
        <time>2014-07-17T15:25:02Z</time>
      </trkpt>
      <trkpt lat="42.144040" lon="1.576230">
        <ele>1047.6</ele>
        <time>2014-07-17T15:25:15Z</time>
      </trkpt>
      <trkpt lat="42.144054" lon="1.576229">
        <ele>1048.0</ele>
        <time>2014-07-17T15:25:16Z</time>
      </trkpt>
      <trkpt lat="42.144131" lon="1.576218">
        <ele>1050.9</ele>
        <time>2014-07-17T15:25:27Z</time>
      </trkpt>
      <trkpt lat="42.144212" lon="1.576253">
        <ele>1051.9</ele>
        <time>2014-07-17T15:25:32Z</time>
      </trkpt>
      <trkpt lat="42.144356" lon="1.576353">
        <ele>1051.4</ele>
        <time>2014-07-17T15:25:42Z</time>
      </trkpt>
      <trkpt lat="42.144389" lon="1.576402">
        <ele>1050.4</ele>
        <time>2014-07-17T15:25:44Z</time>
      </trkpt>
      <trkpt lat="42.144351" lon="1.576490">
        <ele>1050.9</ele>
        <time>2014-07-17T15:25:48Z</time>
      </trkpt>
      <trkpt lat="42.144267" lon="1.576611">
        <ele>1053.3</ele>
        <time>2014-07-17T15:26:00Z</time>
      </trkpt>
      <trkpt lat="42.144221" lon="1.576670">
        <ele>1054.2</ele>
        <time>2014-07-17T15:26:13Z</time>
      </trkpt>
      <trkpt lat="42.144210" lon="1.576703">
        <ele>1054.8</ele>
        <time>2014-07-17T15:26:18Z</time>
      </trkpt>
      <trkpt lat="42.144189" lon="1.576852">
        <ele>1056.3</ele>
        <time>2014-07-17T15:26:26Z</time>
      </trkpt>
      <trkpt lat="42.144158" lon="1.576967">
        <ele>1058.1</ele>
        <time>2014-07-17T15:26:39Z</time>
      </trkpt>
      <trkpt lat="42.144126" lon="1.577059">
        <ele>1058.6</ele>
        <time>2014-07-17T15:26:50Z</time>
      </trkpt>
      <trkpt lat="42.144112" lon="1.577095">
        <ele>1059.1</ele>
        <time>2014-07-17T15:26:53Z</time>
      </trkpt>
      <trkpt lat="42.144082" lon="1.577190">
        <ele>1061.1</ele>
        <time>2014-07-17T15:26:58Z</time>
      </trkpt>
      <trkpt lat="42.144055" lon="1.577237">
        <ele>1062.0</ele>
        <time>2014-07-17T15:27:01Z</time>
      </trkpt>
      <trkpt lat="42.144070" lon="1.577354">
        <ele>1063.8</ele>
        <time>2014-07-17T15:27:13Z</time>
      </trkpt>
      <trkpt lat="42.144092" lon="1.577405">
        <ele>1064.3</ele>
        <time>2014-07-17T15:27:23Z</time>
      </trkpt>
      <trkpt lat="42.144088" lon="1.577462">
        <ele>1065.3</ele>
        <time>2014-07-17T15:27:27Z</time>
      </trkpt>
      <trkpt lat="42.144047" lon="1.577497">
        <ele>1065.8</ele>
        <time>2014-07-17T15:27:30Z</time>
      </trkpt>
      <trkpt lat="42.143937" lon="1.577811">
        <ele>1067.7</ele>
        <time>2014-07-17T15:27:45Z</time>
      </trkpt>
      <trkpt lat="42.143938" lon="1.578085">
        <ele>1070.2</ele>
        <time>2014-07-17T15:27:59Z</time>
      </trkpt>
      <trkpt lat="42.143979" lon="1.578419">
        <ele>1073.1</ele>
        <time>2014-07-17T15:28:13Z</time>
      </trkpt>
      <trkpt lat="42.144018" lon="1.578622">
        <ele>1073.6</ele>
        <time>2014-07-17T15:28:21Z</time>
      </trkpt>
      <trkpt lat="42.144035" lon="1.578688">
        <ele>1075.0</ele>
        <time>2014-07-17T15:28:24Z</time>
      </trkpt>
      <trkpt lat="42.144129" lon="1.578818">
        <ele>1077.9</ele>
        <time>2014-07-17T15:28:33Z</time>
      </trkpt>
      <trkpt lat="42.144159" lon="1.578906">
        <ele>1079.3</ele>
        <time>2014-07-17T15:28:38Z</time>
      </trkpt>
      <trkpt lat="42.144176" lon="1.578984">
        <ele>1080.3</ele>
        <time>2014-07-17T15:28:42Z</time>
      </trkpt>
      <trkpt lat="42.144167" lon="1.579306">
        <ele>1084.1</ele>
        <time>2014-07-17T15:28:56Z</time>
      </trkpt>
      <trkpt lat="42.144170" lon="1.579334">
        <ele>1084.0</ele>
        <time>2014-07-17T15:28:57Z</time>
      </trkpt>
      <trkpt lat="42.144176" lon="1.579354">
        <ele>1084.5</ele>
        <time>2014-07-17T15:28:58Z</time>
      </trkpt>
      <trkpt lat="42.144266" lon="1.579545">
        <ele>1085.6</ele>
        <time>2014-07-17T15:29:08Z</time>
      </trkpt>
      <trkpt lat="42.144291" lon="1.579625">
        <ele>1085.5</ele>
        <time>2014-07-17T15:29:11Z</time>
      </trkpt>
      <trkpt lat="42.144334" lon="1.579768">
        <ele>1087.0</ele>
        <time>2014-07-17T15:29:17Z</time>
      </trkpt>
      <trkpt lat="42.144377" lon="1.580086">
        <ele>1087.4</ele>
        <time>2014-07-17T15:29:27Z</time>
      </trkpt>
      <trkpt lat="42.144461" lon="1.580220">
        <ele>1089.4</ele>
        <time>2014-07-17T15:29:34Z</time>
      </trkpt>
      <trkpt lat="42.144469" lon="1.580269">
        <ele>1089.8</ele>
        <time>2014-07-17T15:29:36Z</time>
      </trkpt>
      <trkpt lat="42.144492" lon="1.580357">
        <ele>1090.4</ele>
        <time>2014-07-17T15:29:40Z</time>
      </trkpt>
      <trkpt lat="42.144529" lon="1.580527">
        <ele>1091.3</ele>
        <time>2014-07-17T15:29:47Z</time>
      </trkpt>
      <trkpt lat="42.144589" lon="1.580746">
        <ele>1091.2</ele>
        <time>2014-07-17T15:29:55Z</time>
      </trkpt>
      <trkpt lat="42.144702" lon="1.580935">
        <ele>1091.7</ele>
        <time>2014-07-17T15:30:03Z</time>
      </trkpt>
      <trkpt lat="42.144946" lon="1.581228">
        <ele>1093.2</ele>
        <time>2014-07-17T15:30:16Z</time>
      </trkpt>
      <trkpt lat="42.145172" lon="1.581562">
        <ele>1092.3</ele>
        <time>2014-07-17T15:30:26Z</time>
      </trkpt>
      <trkpt lat="42.145326" lon="1.581818">
        <ele>1093.2</ele>
        <time>2014-07-17T15:30:36Z</time>
      </trkpt>
      <trkpt lat="42.145336" lon="1.581883">
        <ele>1092.3</ele>
        <time>2014-07-17T15:30:39Z</time>
      </trkpt>
      <trkpt lat="42.145518" lon="1.582138">
        <ele>1090.8</ele>
        <time>2014-07-17T15:30:48Z</time>
      </trkpt>
      <trkpt lat="42.145838" lon="1.582367">
        <ele>1093.3</ele>
        <time>2014-07-17T15:30:59Z</time>
      </trkpt>
      <trkpt lat="42.146119" lon="1.582618">
        <ele>1093.2</ele>
        <time>2014-07-17T15:31:11Z</time>
      </trkpt>
      <trkpt lat="42.146176" lon="1.583014">
        <ele>1093.7</ele>
        <time>2014-07-17T15:31:21Z</time>
      </trkpt>
      <trkpt lat="42.146296" lon="1.583431">
        <ele>1093.3</ele>
        <time>2014-07-17T15:31:32Z</time>
      </trkpt>
      <trkpt lat="42.146329" lon="1.583522">
        <ele>1094.2</ele>
        <time>2014-07-17T15:31:36Z</time>
      </trkpt>
      <trkpt lat="42.146451" lon="1.583834">
        <ele>1095.1</ele>
        <time>2014-07-17T15:31:51Z</time>
      </trkpt>
      <trkpt lat="42.146449" lon="1.583838">
        <ele>1095.1</ele>
        <time>2014-07-17T15:31:57Z</time>
      </trkpt>
      <trkpt lat="42.146481" lon="1.583874">
        <ele>1094.7</ele>
        <time>2014-07-17T15:32:00Z</time>
      </trkpt>
      <trkpt lat="42.146513" lon="1.583907">
        <ele>1094.1</ele>
        <time>2014-07-17T15:32:02Z</time>
      </trkpt>
      <trkpt lat="42.146663" lon="1.583907">
        <ele>1094.2</ele>
        <time>2014-07-17T15:32:10Z</time>
      </trkpt>
      <trkpt lat="42.147084" lon="1.583795">
        <ele>1092.8</ele>
        <time>2014-07-17T15:32:24Z</time>
      </trkpt>
      <trkpt lat="42.147325" lon="1.583706">
        <ele>1088.8</ele>
        <time>2014-07-17T15:32:31Z</time>
      </trkpt>
      <trkpt lat="42.147367" lon="1.583706">
        <ele>1087.4</ele>
        <time>2014-07-17T15:32:33Z</time>
      </trkpt>
      <trkpt lat="42.147390" lon="1.583703">
        <ele>1086.5</ele>
        <time>2014-07-17T15:32:34Z</time>
      </trkpt>
      <trkpt lat="42.147440" lon="1.583696">
        <ele>1085.5</ele>
        <time>2014-07-17T15:32:36Z</time>
      </trkpt>
      <trkpt lat="42.147615" lon="1.583711">
        <ele>1086.1</ele>
        <time>2014-07-17T15:32:41Z</time>
      </trkpt>
      <trkpt lat="42.147733" lon="1.583662">
        <ele>1085.5</ele>
        <time>2014-07-17T15:32:45Z</time>
      </trkpt>
      <trkpt lat="42.147870" lon="1.583450">
        <ele>1082.6</ele>
        <time>2014-07-17T15:32:52Z</time>
      </trkpt>
      <trkpt lat="42.147984" lon="1.583213">
        <ele>1079.8</ele>
        <time>2014-07-17T15:32:59Z</time>
      </trkpt>
      <trkpt lat="42.148238" lon="1.582995">
        <ele>1081.2</ele>
        <time>2014-07-17T15:33:10Z</time>
      </trkpt>
      <trkpt lat="42.148334" lon="1.582882">
        <ele>1082.7</ele>
        <time>2014-07-17T15:33:21Z</time>
      </trkpt>
      <trkpt lat="42.148356" lon="1.582856">
        <ele>1083.5</ele>
        <time>2014-07-17T15:33:23Z</time>
      </trkpt>
      <trkpt lat="42.148385" lon="1.582791">
        <ele>1083.6</ele>
        <time>2014-07-17T15:33:26Z</time>
      </trkpt>
      <trkpt lat="42.148632" lon="1.582520">
        <ele>1084.6</ele>
        <time>2014-07-17T15:33:38Z</time>
      </trkpt>
      <trkpt lat="42.148661" lon="1.582391">
        <ele>1083.6</ele>
        <time>2014-07-17T15:33:43Z</time>
      </trkpt>
      <trkpt lat="42.148736" lon="1.582317">
        <ele>1080.3</ele>
        <time>2014-07-17T15:33:49Z</time>
      </trkpt>
      <trkpt lat="42.148754" lon="1.582323">
        <ele>1080.8</ele>
        <time>2014-07-17T15:33:50Z</time>
      </trkpt>
      <trkpt lat="42.148826" lon="1.582371">
        <ele>1080.7</ele>
        <time>2014-07-17T15:33:54Z</time>
      </trkpt>
      <trkpt lat="42.148936" lon="1.582515">
        <ele>1077.8</ele>
        <time>2014-07-17T15:34:02Z</time>
      </trkpt>
      <trkpt lat="42.148972" lon="1.582508">
        <ele>1076.9</ele>
        <time>2014-07-17T15:34:04Z</time>
      </trkpt>
      <trkpt lat="42.149199" lon="1.582638">
        <ele>1076.4</ele>
        <time>2014-07-17T15:34:13Z</time>
      </trkpt>
      <trkpt lat="42.149230" lon="1.582693">
        <ele>1074.4</ele>
        <time>2014-07-17T15:34:15Z</time>
      </trkpt>
      <trkpt lat="42.149409" lon="1.582857">
        <ele>1072.6</ele>
        <time>2014-07-17T15:34:22Z</time>
      </trkpt>
      <trkpt lat="42.149656" lon="1.582903">
        <ele>1075.9</ele>
        <time>2014-07-17T15:34:34Z</time>
      </trkpt>
      <trkpt lat="42.149744" lon="1.582910">
        <ele>1078.4</ele>
        <time>2014-07-17T15:34:39Z</time>
      </trkpt>
      <trkpt lat="42.149809" lon="1.582901">
        <ele>1079.7</ele>
        <time>2014-07-17T15:34:53Z</time>
      </trkpt>
      <trkpt lat="42.149864" lon="1.582916">
        <ele>1080.8</ele>
        <time>2014-07-17T15:35:04Z</time>
      </trkpt>
      <trkpt lat="42.149903" lon="1.582925">
        <ele>1081.7</ele>
        <time>2014-07-17T15:35:09Z</time>
      </trkpt>
      <trkpt lat="42.149955" lon="1.582930">
        <ele>1082.6</ele>
        <time>2014-07-17T15:35:13Z</time>
      </trkpt>
      <trkpt lat="42.149987" lon="1.582937">
        <ele>1083.1</ele>
        <time>2014-07-17T15:35:15Z</time>
      </trkpt>
      <trkpt lat="42.150022" lon="1.582948">
        <ele>1084.0</ele>
        <time>2014-07-17T15:35:17Z</time>
      </trkpt>
      <trkpt lat="42.150176" lon="1.582948">
        <ele>1086.9</ele>
        <time>2014-07-17T15:35:27Z</time>
      </trkpt>
      <trkpt lat="42.150330" lon="1.582821">
        <ele>1086.9</ele>
        <time>2014-07-17T15:35:38Z</time>
      </trkpt>
      <trkpt lat="42.150394" lon="1.582810">
        <ele>1084.1</ele>
        <time>2014-07-17T15:35:43Z</time>
      </trkpt>
      <trkpt lat="42.150434" lon="1.582904">
        <ele>1084.5</ele>
        <time>2014-07-17T15:35:55Z</time>
      </trkpt>
      <trkpt lat="42.150464" lon="1.582910">
        <ele>1086.1</ele>
        <time>2014-07-17T15:36:08Z</time>
      </trkpt>
      <trkpt lat="42.150484" lon="1.582959">
        <ele>1086.4</ele>
        <time>2014-07-17T15:36:15Z</time>
      </trkpt>
      <trkpt lat="42.150493" lon="1.583053">
        <ele>1088.0</ele>
        <time>2014-07-17T15:36:20Z</time>
      </trkpt>
      <trkpt lat="42.150438" lon="1.583344">
        <ele>1086.0</ele>
        <time>2014-07-17T15:36:27Z</time>
      </trkpt>
      <trkpt lat="42.150361" lon="1.583631">
        <ele>1086.9</ele>
        <time>2014-07-17T15:36:35Z</time>
      </trkpt>
      <trkpt lat="42.150176" lon="1.584082">
        <ele>1087.4</ele>
        <time>2014-07-17T15:36:49Z</time>
      </trkpt>
      <trkpt lat="42.150232" lon="1.584416">
        <ele>1089.3</ele>
        <time>2014-07-17T15:37:00Z</time>
      </trkpt>
      <trkpt lat="42.150403" lon="1.584728">
        <ele>1092.3</ele>
        <time>2014-07-17T15:37:12Z</time>
      </trkpt>
      <trkpt lat="42.150418" lon="1.584755">
        <ele>1093.3</ele>
        <time>2014-07-17T15:37:13Z</time>
      </trkpt>
      <trkpt lat="42.150552" lon="1.585081">
        <ele>1092.3</ele>
        <time>2014-07-17T15:37:23Z</time>
      </trkpt>
      <trkpt lat="42.150579" lon="1.585115">
        <ele>1091.2</ele>
        <time>2014-07-17T15:37:24Z</time>
      </trkpt>
      <trkpt lat="42.150782" lon="1.585565">
        <ele>1090.4</ele>
        <time>2014-07-17T15:37:35Z</time>
      </trkpt>
      <trkpt lat="42.150838" lon="1.585803">
        <ele>1089.8</ele>
        <time>2014-07-17T15:37:42Z</time>
      </trkpt>
      <trkpt lat="42.150902" lon="1.585867">
        <ele>1089.4</ele>
        <time>2014-07-17T15:37:45Z</time>
      </trkpt>
      <trkpt lat="42.150931" lon="1.586004">
        <ele>1087.9</ele>
        <time>2014-07-17T15:37:48Z</time>
      </trkpt>
      <trkpt lat="42.150855" lon="1.586222">
        <ele>1088.4</ele>
        <time>2014-07-17T15:37:55Z</time>
      </trkpt>
      <trkpt lat="42.150954" lon="1.586457">
        <ele>1087.9</ele>
        <time>2014-07-17T15:38:03Z</time>
      </trkpt>
      <trkpt lat="42.150886" lon="1.586562">
        <ele>1086.0</ele>
        <time>2014-07-17T15:38:08Z</time>
      </trkpt>
      <trkpt lat="42.150768" lon="1.586476">
        <ele>1085.0</ele>
        <time>2014-07-17T15:38:11Z</time>
      </trkpt>
      <trkpt lat="42.150625" lon="1.586213">
        <ele>1080.7</ele>
        <time>2014-07-17T15:38:17Z</time>
      </trkpt>
      <trkpt lat="42.150551" lon="1.586062">
        <ele>1077.3</ele>
        <time>2014-07-17T15:38:22Z</time>
      </trkpt>
      <trkpt lat="42.150424" lon="1.586188">
        <ele>1074.0</ele>
        <time>2014-07-17T15:38:26Z</time>
      </trkpt>
      <trkpt lat="42.150384" lon="1.586194">
        <ele>1074.0</ele>
        <time>2014-07-17T15:38:27Z</time>
      </trkpt>
      <trkpt lat="42.150248" lon="1.586310">
        <ele>1070.6</ele>
        <time>2014-07-17T15:38:31Z</time>
      </trkpt>
      <trkpt lat="42.150212" lon="1.586705">
        <ele>1065.3</ele>
        <time>2014-07-17T15:38:37Z</time>
      </trkpt>
      <trkpt lat="42.150189" lon="1.586779">
        <ele>1064.4</ele>
        <time>2014-07-17T15:38:38Z</time>
      </trkpt>
      <trkpt lat="42.150145" lon="1.587153">
        <ele>1058.6</ele>
        <time>2014-07-17T15:38:45Z</time>
      </trkpt>
      <trkpt lat="42.150143" lon="1.587170">
        <ele>1058.1</ele>
        <time>2014-07-17T15:38:46Z</time>
      </trkpt>
      <trkpt lat="42.150108" lon="1.587175">
        <ele>1057.2</ele>
        <time>2014-07-17T15:38:48Z</time>
      </trkpt>
      <trkpt lat="42.149995" lon="1.587008">
        <ele>1053.8</ele>
        <time>2014-07-17T15:38:54Z</time>
      </trkpt>
      <trkpt lat="42.149841" lon="1.586740">
        <ele>1050.5</ele>
        <time>2014-07-17T15:39:00Z</time>
      </trkpt>
      <trkpt lat="42.149745" lon="1.586647">
        <ele>1049.0</ele>
        <time>2014-07-17T15:39:03Z</time>
      </trkpt>
      <trkpt lat="42.149642" lon="1.586456">
        <ele>1045.6</ele>
        <time>2014-07-17T15:39:07Z</time>
      </trkpt>
      <trkpt lat="42.149619" lon="1.586327">
        <ele>1043.8</ele>
        <time>2014-07-17T15:39:09Z</time>
      </trkpt>
      <trkpt lat="42.149669" lon="1.586126">
        <ele>1040.8</ele>
        <time>2014-07-17T15:39:14Z</time>
      </trkpt>
      <trkpt lat="42.149676" lon="1.586023">
        <ele>1039.9</ele>
        <time>2014-07-17T15:39:16Z</time>
      </trkpt>
      <trkpt lat="42.149688" lon="1.585931">
        <ele>1038.4</ele>
        <time>2014-07-17T15:39:18Z</time>
      </trkpt>
      <trkpt lat="42.149588" lon="1.585729">
        <ele>1035.5</ele>
        <time>2014-07-17T15:39:24Z</time>
      </trkpt>
      <trkpt lat="42.149539" lon="1.585585">
        <ele>1033.1</ele>
        <time>2014-07-17T15:39:27Z</time>
      </trkpt>
      <trkpt lat="42.149473" lon="1.585378">
        <ele>1029.2</ele>
        <time>2014-07-17T15:39:31Z</time>
      </trkpt>
      <trkpt lat="42.149458" lon="1.585359">
        <ele>1029.2</ele>
        <time>2014-07-17T15:39:32Z</time>
      </trkpt>
      <trkpt lat="42.149357" lon="1.585250">
        <ele>1025.9</ele>
        <time>2014-07-17T15:39:36Z</time>
      </trkpt>
      <trkpt lat="42.149256" lon="1.585169">
        <ele>1021.6</ele>
        <time>2014-07-17T15:39:40Z</time>
      </trkpt>
      <trkpt lat="42.149207" lon="1.585188">
        <ele>1020.1</ele>
        <time>2014-07-17T15:39:42Z</time>
      </trkpt>
      <trkpt lat="42.149103" lon="1.585280">
        <ele>1017.2</ele>
        <time>2014-07-17T15:39:47Z</time>
      </trkpt>
      <trkpt lat="42.149071" lon="1.585375">
        <ele>1015.4</ele>
        <time>2014-07-17T15:39:50Z</time>
      </trkpt>
      <trkpt lat="42.149008" lon="1.585520">
        <ele>1013.0</ele>
        <time>2014-07-17T15:39:54Z</time>
      </trkpt>
      <trkpt lat="42.148935" lon="1.585639">
        <ele>1009.6</ele>
        <time>2014-07-17T15:40:00Z</time>
      </trkpt>
      <trkpt lat="42.148927" lon="1.585628">
        <ele>1009.0</ele>
        <time>2014-07-17T15:40:02Z</time>
      </trkpt>
      <trkpt lat="42.148913" lon="1.585580">
        <ele>1007.1</ele>
        <time>2014-07-17T15:40:06Z</time>
      </trkpt>
      <trkpt lat="42.148912" lon="1.585590">
        <ele>1006.7</ele>
        <time>2014-07-17T15:40:09Z</time>
      </trkpt>
      <trkpt lat="42.148785" lon="1.585777">
        <ele>1003.9</ele>
        <time>2014-07-17T15:40:16Z</time>
      </trkpt>
      <trkpt lat="42.148819" lon="1.586002">
        <ele>1001.4</ele>
        <time>2014-07-17T15:40:22Z</time>
      </trkpt>
      <trkpt lat="42.148833" lon="1.586033">
        <ele>1000.4</ele>
        <time>2014-07-17T15:40:23Z</time>
      </trkpt>
      <trkpt lat="42.148853" lon="1.586103">
        <ele>999.1</ele>
        <time>2014-07-17T15:40:25Z</time>
      </trkpt>
      <trkpt lat="42.148851" lon="1.586141">
        <ele>998.6</ele>
        <time>2014-07-17T15:40:26Z</time>
      </trkpt>
      <trkpt lat="42.148838" lon="1.586179">
        <ele>997.5</ele>
        <time>2014-07-17T15:40:27Z</time>
      </trkpt>
      <trkpt lat="42.148818" lon="1.586215">
        <ele>997.0</ele>
        <time>2014-07-17T15:40:28Z</time>
      </trkpt>
      <trkpt lat="42.148707" lon="1.586430">
        <ele>995.1</ele>
        <time>2014-07-17T15:40:32Z</time>
      </trkpt>
      <trkpt lat="42.148613" lon="1.586655">
        <ele>991.3</ele>
        <time>2014-07-17T15:40:36Z</time>
      </trkpt>
      <trkpt lat="42.148503" lon="1.586802">
        <ele>987.4</ele>
        <time>2014-07-17T15:40:40Z</time>
      </trkpt>
      <trkpt lat="42.148407" lon="1.586891">
        <ele>985.0</ele>
        <time>2014-07-17T15:40:43Z</time>
      </trkpt>
      <trkpt lat="42.148337" lon="1.586920">
        <ele>983.7</ele>
        <time>2014-07-17T15:40:45Z</time>
      </trkpt>
      <trkpt lat="42.148206" lon="1.587086">
        <ele>981.3</ele>
        <time>2014-07-17T15:40:49Z</time>
      </trkpt>
      <trkpt lat="42.147999" lon="1.587290">
        <ele>978.9</ele>
        <time>2014-07-17T15:40:53Z</time>
      </trkpt>
      <trkpt lat="42.147758" lon="1.587425">
        <ele>974.4</ele>
        <time>2014-07-17T15:40:56Z</time>
      </trkpt>
      <trkpt lat="42.147576" lon="1.587517">
        <ele>972.1</ele>
        <time>2014-07-17T15:40:58Z</time>
      </trkpt>
      <trkpt lat="42.147463" lon="1.587696">
        <ele>970.6</ele>
        <time>2014-07-17T15:41:00Z</time>
      </trkpt>
      <trkpt lat="42.147384" lon="1.587944">
        <ele>971.6</ele>
        <time>2014-07-17T15:41:03Z</time>
      </trkpt>
      <trkpt lat="42.147323" lon="1.588530">
        <ele>972.6</ele>
        <time>2014-07-17T15:41:16Z</time>
      </trkpt>
      <trkpt lat="42.147288" lon="1.589016">
        <ele>974.0</ele>
        <time>2014-07-17T15:41:27Z</time>
      </trkpt>
      <trkpt lat="42.147267" lon="1.589165">
        <ele>973.5</ele>
        <time>2014-07-17T15:41:30Z</time>
      </trkpt>
      <trkpt lat="42.147037" lon="1.589806">
        <ele>973.1</ele>
        <time>2014-07-17T15:41:42Z</time>
      </trkpt>
      <trkpt lat="42.146823" lon="1.590181">
        <ele>972.0</ele>
        <time>2014-07-17T15:41:49Z</time>
      </trkpt>
      <trkpt lat="42.146725" lon="1.590308">
        <ele>971.1</ele>
        <time>2014-07-17T15:41:51Z</time>
      </trkpt>
      <trkpt lat="42.146633" lon="1.590462">
        <ele>969.7</ele>
        <time>2014-07-17T15:41:53Z</time>
      </trkpt>
      <trkpt lat="42.146536" lon="1.590739">
        <ele>967.3</ele>
        <time>2014-07-17T15:41:56Z</time>
      </trkpt>
      <trkpt lat="42.146535" lon="1.591099">
        <ele>962.4</ele>
        <time>2014-07-17T15:42:00Z</time>
      </trkpt>
      <trkpt lat="42.146583" lon="1.591215">
        <ele>961.5</ele>
        <time>2014-07-17T15:42:01Z</time>
      </trkpt>
      <trkpt lat="42.146803" lon="1.591639">
        <ele>956.2</ele>
        <time>2014-07-17T15:42:07Z</time>
      </trkpt>
      <trkpt lat="42.147119" lon="1.592040">
        <ele>951.5</ele>
        <time>2014-07-17T15:42:13Z</time>
      </trkpt>
      <trkpt lat="42.147209" lon="1.592146">
        <ele>950.4</ele>
        <time>2014-07-17T15:42:15Z</time>
      </trkpt>
      <trkpt lat="42.147286" lon="1.592359">
        <ele>948.0</ele>
        <time>2014-07-17T15:42:19Z</time>
      </trkpt>
      <trkpt lat="42.147242" lon="1.592382">
        <ele>947.6</ele>
        <time>2014-07-17T15:42:20Z</time>
      </trkpt>
      <trkpt lat="42.147145" lon="1.592414">
        <ele>947.0</ele>
        <time>2014-07-17T15:42:22Z</time>
      </trkpt>
      <trkpt lat="42.146916" lon="1.592440">
        <ele>944.3</ele>
        <time>2014-07-17T15:42:26Z</time>
      </trkpt>
      <trkpt lat="42.146217" lon="1.592146">
        <ele>940.4</ele>
        <time>2014-07-17T15:42:35Z</time>
      </trkpt>
      <trkpt lat="42.145909" lon="1.592220">
        <ele>935.6</ele>
        <time>2014-07-17T15:42:40Z</time>
      </trkpt>
      <trkpt lat="42.145750" lon="1.592096">
        <ele>932.2</ele>
        <time>2014-07-17T15:42:44Z</time>
      </trkpt>
      <trkpt lat="42.145712" lon="1.592095">
        <ele>931.7</ele>
        <time>2014-07-17T15:42:45Z</time>
      </trkpt>
      <trkpt lat="42.145683" lon="1.592286">
        <ele>929.4</ele>
        <time>2014-07-17T15:42:49Z</time>
      </trkpt>
      <trkpt lat="42.145734" lon="1.592427">
        <ele>928.4</ele>
        <time>2014-07-17T15:42:51Z</time>
      </trkpt>
      <trkpt lat="42.146046" lon="1.592766">
        <ele>924.5</ele>
        <time>2014-07-17T15:42:58Z</time>
      </trkpt>
      <trkpt lat="42.146260" lon="1.592886">
        <ele>922.0</ele>
        <time>2014-07-17T15:43:02Z</time>
      </trkpt>
      <trkpt lat="42.146318" lon="1.592957">
        <ele>921.6</ele>
        <time>2014-07-17T15:43:04Z</time>
      </trkpt>
      <trkpt lat="42.146714" lon="1.593133">
        <ele>924.1</ele>
        <time>2014-07-17T15:43:16Z</time>
      </trkpt>
      <trkpt lat="42.147113" lon="1.593258">
        <ele>925.9</ele>
        <time>2014-07-17T15:43:28Z</time>
      </trkpt>
      <trkpt lat="42.147661" lon="1.593436">
        <ele>928.8</ele>
        <time>2014-07-17T15:43:45Z</time>
      </trkpt>
      <trkpt lat="42.148114" lon="1.593581">
        <ele>931.7</ele>
        <time>2014-07-17T15:43:59Z</time>
      </trkpt>
      <trkpt lat="42.148681" lon="1.593525">
        <ele>934.6</ele>
        <time>2014-07-17T15:44:16Z</time>
      </trkpt>
      <trkpt lat="42.149191" lon="1.593175">
        <ele>937.5</ele>
        <time>2014-07-17T15:44:33Z</time>
      </trkpt>
      <trkpt lat="42.149624" lon="1.593265">
        <ele>939.9</ele>
        <time>2014-07-17T15:44:46Z</time>
      </trkpt>
      <trkpt lat="42.149953" lon="1.593798">
        <ele>942.7</ele>
        <time>2014-07-17T15:45:01Z</time>
      </trkpt>
      <trkpt lat="42.150328" lon="1.594367">
        <ele>945.6</ele>
        <time>2014-07-17T15:45:17Z</time>
      </trkpt>
      <trkpt lat="42.150889" lon="1.594658">
        <ele>946.6</ele>
        <time>2014-07-17T15:45:32Z</time>
      </trkpt>
      <trkpt lat="42.151612" lon="1.594522">
        <ele>947.5</ele>
        <time>2014-07-17T15:45:48Z</time>
      </trkpt>
      <trkpt lat="42.151987" lon="1.594350">
        <ele>947.5</ele>
        <time>2014-07-17T15:45:56Z</time>
      </trkpt>
      <trkpt lat="42.152480" lon="1.594122">
        <ele>949.1</ele>
        <time>2014-07-17T15:46:07Z</time>
      </trkpt>
      <trkpt lat="42.153009" lon="1.593427">
        <ele>950.0</ele>
        <time>2014-07-17T15:46:23Z</time>
      </trkpt>
      <trkpt lat="42.153213" lon="1.593021">
        <ele>949.9</ele>
        <time>2014-07-17T15:46:31Z</time>
      </trkpt>
      <trkpt lat="42.153513" lon="1.592844">
        <ele>949.9</ele>
        <time>2014-07-17T15:46:38Z</time>
      </trkpt>
      <trkpt lat="42.153998" lon="1.593028">
        <ele>949.9</ele>
        <time>2014-07-17T15:46:48Z</time>
      </trkpt>
      <trkpt lat="42.154179" lon="1.593343">
        <ele>950.5</ele>
        <time>2014-07-17T15:46:54Z</time>
      </trkpt>
      <trkpt lat="42.154317" lon="1.594402">
        <ele>951.0</ele>
        <time>2014-07-17T15:47:10Z</time>
      </trkpt>
      <trkpt lat="42.154399" lon="1.594766">
        <ele>950.9</ele>
        <time>2014-07-17T15:47:16Z</time>
      </trkpt>
      <trkpt lat="42.154477" lon="1.594944">
        <ele>950.4</ele>
        <time>2014-07-17T15:47:19Z</time>
      </trkpt>
      <trkpt lat="42.154627" lon="1.595154">
        <ele>950.0</ele>
        <time>2014-07-17T15:47:23Z</time>
      </trkpt>
      <trkpt lat="42.154777" lon="1.595285">
        <ele>949.5</ele>
        <time>2014-07-17T15:47:26Z</time>
      </trkpt>
      <trkpt lat="42.154961" lon="1.595366">
        <ele>949.1</ele>
        <time>2014-07-17T15:47:29Z</time>
      </trkpt>
      <trkpt lat="42.155709" lon="1.595317">
        <ele>945.7</ele>
        <time>2014-07-17T15:47:39Z</time>
      </trkpt>
      <trkpt lat="42.156489" lon="1.595206">
        <ele>942.3</ele>
        <time>2014-07-17T15:47:48Z</time>
      </trkpt>
      <trkpt lat="42.157155" lon="1.595138">
        <ele>939.0</ele>
        <time>2014-07-17T15:47:55Z</time>
      </trkpt>
      <trkpt lat="42.157684" lon="1.595137">
        <ele>935.6</ele>
        <time>2014-07-17T15:48:00Z</time>
      </trkpt>
      <trkpt lat="42.158280" lon="1.595184">
        <ele>931.3</ele>
        <time>2014-07-17T15:48:05Z</time>
      </trkpt>
      <trkpt lat="42.158877" lon="1.595280">
        <ele>928.9</ele>
        <time>2014-07-17T15:48:10Z</time>
      </trkpt>
      <trkpt lat="42.159871" lon="1.595426">
        <ele>925.4</ele>
        <time>2014-07-17T15:48:19Z</time>
      </trkpt>
      <trkpt lat="42.159976" lon="1.595421">
        <ele>925.4</ele>
        <time>2014-07-17T15:48:20Z</time>
      </trkpt>
      <trkpt lat="42.160862" lon="1.595152">
        <ele>922.0</ele>
        <time>2014-07-17T15:48:29Z</time>
      </trkpt>
      <trkpt lat="42.161777" lon="1.594794">
        <ele>918.7</ele>
        <time>2014-07-17T15:48:39Z</time>
      </trkpt>
      <trkpt lat="42.162752" lon="1.594481">
        <ele>915.9</ele>
        <time>2014-07-17T15:48:50Z</time>
      </trkpt>
      <trkpt lat="42.163867" lon="1.594256">
        <ele>913.4</ele>
        <time>2014-07-17T15:49:04Z</time>
      </trkpt>
      <trkpt lat="42.164137" lon="1.594207">
        <ele>912.9</ele>
        <time>2014-07-17T15:49:08Z</time>
      </trkpt>
      <trkpt lat="42.164686" lon="1.594388">
        <ele>913.0</ele>
        <time>2014-07-17T15:49:17Z</time>
      </trkpt>
      <trkpt lat="42.165110" lon="1.595200">
        <ele>915.9</ele>
        <time>2014-07-17T15:49:31Z</time>
      </trkpt>
      <trkpt lat="42.165305" lon="1.595737">
        <ele>918.8</ele>
        <time>2014-07-17T15:49:43Z</time>
      </trkpt>
      <trkpt lat="42.165288" lon="1.596200">
        <ele>921.2</ele>
        <time>2014-07-17T15:49:54Z</time>
      </trkpt>
      <trkpt lat="42.165080" lon="1.596373">
        <ele>920.1</ele>
        <time>2014-07-17T15:49:59Z</time>
      </trkpt>
      <trkpt lat="42.164766" lon="1.596749">
        <ele>920.6</ele>
        <time>2014-07-17T15:50:09Z</time>
      </trkpt>
      <trkpt lat="42.164679" lon="1.597019">
        <ele>924.1</ele>
        <time>2014-07-17T15:50:19Z</time>
      </trkpt>
      <trkpt lat="42.164871" lon="1.597179">
        <ele>925.5</ele>
        <time>2014-07-17T15:50:28Z</time>
      </trkpt>
      <trkpt lat="42.165066" lon="1.597225">
        <ele>928.8</ele>
        <time>2014-07-17T15:50:36Z</time>
      </trkpt>
      <trkpt lat="42.165268" lon="1.597414">
        <ele>931.7</ele>
        <time>2014-07-17T15:50:47Z</time>
      </trkpt>
      <trkpt lat="42.165479" lon="1.597659">
        <ele>935.0</ele>
        <time>2014-07-17T15:50:59Z</time>
      </trkpt>
      <trkpt lat="42.165750" lon="1.597893">
        <ele>938.4</ele>
        <time>2014-07-17T15:51:14Z</time>
      </trkpt>
      <trkpt lat="42.166017" lon="1.598088">
        <ele>941.3</ele>
        <time>2014-07-17T15:51:29Z</time>
      </trkpt>
      <trkpt lat="42.166109" lon="1.598379">
        <ele>944.3</ele>
        <time>2014-07-17T15:51:41Z</time>
      </trkpt>
      <trkpt lat="42.166042" lon="1.598471">
        <ele>944.7</ele>
        <time>2014-07-17T15:51:45Z</time>
      </trkpt>
      <trkpt lat="42.165812" lon="1.598731">
        <ele>948.0</ele>
        <time>2014-07-17T15:51:59Z</time>
      </trkpt>
      <trkpt lat="42.165606" lon="1.598957">
        <ele>950.4</ele>
        <time>2014-07-17T15:52:12Z</time>
      </trkpt>
      <trkpt lat="42.165414" lon="1.599289">
        <ele>953.4</ele>
        <time>2014-07-17T15:52:26Z</time>
      </trkpt>
      <trkpt lat="42.165276" lon="1.599681">
        <ele>956.7</ele>
        <time>2014-07-17T15:52:40Z</time>
      </trkpt>
      <trkpt lat="42.165252" lon="1.600169">
        <ele>959.1</ele>
        <time>2014-07-17T15:52:56Z</time>
      </trkpt>
      <trkpt lat="42.165233" lon="1.600641">
        <ele>961.6</ele>
        <time>2014-07-17T15:53:12Z</time>
      </trkpt>
      <trkpt lat="42.165218" lon="1.601026">
        <ele>964.8</ele>
        <time>2014-07-17T15:53:25Z</time>
      </trkpt>
      <trkpt lat="42.165251" lon="1.601223">
        <ele>966.8</ele>
        <time>2014-07-17T15:53:32Z</time>
      </trkpt>
      <trkpt lat="42.165370" lon="1.601177">
        <ele>968.2</ele>
        <time>2014-07-17T15:53:38Z</time>
      </trkpt>
      <trkpt lat="42.165545" lon="1.600766">
        <ele>972.1</ele>
        <time>2014-07-17T15:53:54Z</time>
      </trkpt>
      <trkpt lat="42.165554" lon="1.600738">
        <ele>972.6</ele>
        <time>2014-07-17T15:53:55Z</time>
      </trkpt>
      <trkpt lat="42.165638" lon="1.600406">
        <ele>975.4</ele>
        <time>2014-07-17T15:54:07Z</time>
      </trkpt>
      <trkpt lat="42.165664" lon="1.600006">
        <ele>978.8</ele>
        <time>2014-07-17T15:54:20Z</time>
      </trkpt>
      <trkpt lat="42.165780" lon="1.599789">
        <ele>981.7</ele>
        <time>2014-07-17T15:54:30Z</time>
      </trkpt>
      <trkpt lat="42.165980" lon="1.599830">
        <ele>984.5</ele>
        <time>2014-07-17T15:54:42Z</time>
      </trkpt>
      <trkpt lat="42.166099" lon="1.599925">
        <ele>987.0</ele>
        <time>2014-07-17T15:54:50Z</time>
      </trkpt>
      <trkpt lat="42.166174" lon="1.600029">
        <ele>988.9</ele>
        <time>2014-07-17T15:54:56Z</time>
      </trkpt>
      <trkpt lat="42.166236" lon="1.600054">
        <ele>989.8</ele>
        <time>2014-07-17T15:55:00Z</time>
      </trkpt>
      <trkpt lat="42.166278" lon="1.600105">
        <ele>990.9</ele>
        <time>2014-07-17T15:55:03Z</time>
      </trkpt>
      <trkpt lat="42.166327" lon="1.600180">
        <ele>991.8</ele>
        <time>2014-07-17T15:55:07Z</time>
      </trkpt>
      <trkpt lat="42.166588" lon="1.600388">
        <ele>995.7</ele>
        <time>2014-07-17T15:55:21Z</time>
      </trkpt>
      <trkpt lat="42.166837" lon="1.600594">
        <ele>999.0</ele>
        <time>2014-07-17T15:55:35Z</time>
      </trkpt>
      <trkpt lat="42.167102" lon="1.600774">
        <ele>1002.3</ele>
        <time>2014-07-17T15:55:49Z</time>
      </trkpt>
      <trkpt lat="42.167368" lon="1.600999">
        <ele>1004.7</ele>
        <time>2014-07-17T15:56:02Z</time>
      </trkpt>
      <trkpt lat="42.167551" lon="1.601331">
        <ele>1008.2</ele>
        <time>2014-07-17T15:56:15Z</time>
      </trkpt>
      <trkpt lat="42.167552" lon="1.601379">
        <ele>1008.6</ele>
        <time>2014-07-17T15:56:17Z</time>
      </trkpt>
      <trkpt lat="42.167467" lon="1.601617">
        <ele>1011.4</ele>
        <time>2014-07-17T15:56:27Z</time>
      </trkpt>
      <trkpt lat="42.167458" lon="1.601663">
        <ele>1012.5</ele>
        <time>2014-07-17T15:56:29Z</time>
      </trkpt>
      <trkpt lat="42.167599" lon="1.601932">
        <ele>1014.4</ele>
        <time>2014-07-17T15:56:41Z</time>
      </trkpt>
      <trkpt lat="42.167937" lon="1.602057">
        <ele>1015.8</ele>
        <time>2014-07-17T15:56:55Z</time>
      </trkpt>
      <trkpt lat="42.168209" lon="1.602127">
        <ele>1017.2</ele>
        <time>2014-07-17T15:57:06Z</time>
      </trkpt>
      <trkpt lat="42.168474" lon="1.602294">
        <ele>1018.7</ele>
        <time>2014-07-17T15:57:19Z</time>
      </trkpt>
      <trkpt lat="42.168778" lon="1.602510">
        <ele>1020.7</ele>
        <time>2014-07-17T15:57:30Z</time>
      </trkpt>
      <trkpt lat="42.169018" lon="1.602771">
        <ele>1023.5</ele>
        <time>2014-07-17T15:57:42Z</time>
      </trkpt>
      <trkpt lat="42.169267" lon="1.603047">
        <ele>1024.9</ele>
        <time>2014-07-17T15:57:55Z</time>
      </trkpt>
      <trkpt lat="42.169510" lon="1.603307">
        <ele>1026.9</ele>
        <time>2014-07-17T15:58:07Z</time>
      </trkpt>
      <trkpt lat="42.169740" lon="1.603678">
        <ele>1030.3</ele>
        <time>2014-07-17T15:58:22Z</time>
      </trkpt>
      <trkpt lat="42.169903" lon="1.603996">
        <ele>1033.2</ele>
        <time>2014-07-17T15:58:35Z</time>
      </trkpt>
      <trkpt lat="42.170008" lon="1.604298">
        <ele>1036.0</ele>
        <time>2014-07-17T15:58:46Z</time>
      </trkpt>
      <trkpt lat="42.169990" lon="1.604411">
        <ele>1037.5</ele>
        <time>2014-07-17T15:58:51Z</time>
      </trkpt>
      <trkpt lat="42.169885" lon="1.604545">
        <ele>1040.4</ele>
        <time>2014-07-17T15:59:01Z</time>
      </trkpt>
      <trkpt lat="42.169694" lon="1.604431">
        <ele>1041.8</ele>
        <time>2014-07-17T15:59:10Z</time>
      </trkpt>
      <trkpt lat="42.169394" lon="1.604337">
        <ele>1043.8</ele>
        <time>2014-07-17T15:59:22Z</time>
      </trkpt>
      <trkpt lat="42.169337" lon="1.604389">
        <ele>1044.6</ele>
        <time>2014-07-17T15:59:25Z</time>
      </trkpt>
      <trkpt lat="42.169328" lon="1.604492">
        <ele>1046.1</ele>
        <time>2014-07-17T15:59:29Z</time>
      </trkpt>
      <trkpt lat="42.169440" lon="1.604846">
        <ele>1048.9</ele>
        <time>2014-07-17T15:59:44Z</time>
      </trkpt>
      <trkpt lat="42.169557" lon="1.605152">
        <ele>1052.3</ele>
        <time>2014-07-17T15:59:57Z</time>
      </trkpt>
      <trkpt lat="42.169610" lon="1.605362">
        <ele>1054.3</ele>
        <time>2014-07-17T16:00:06Z</time>
      </trkpt>
      <trkpt lat="42.169630" lon="1.605500">
        <ele>1056.2</ele>
        <time>2014-07-17T16:00:12Z</time>
      </trkpt>
      <trkpt lat="42.169677" lon="1.605662">
        <ele>1057.6</ele>
        <time>2014-07-17T16:00:19Z</time>
      </trkpt>
      <trkpt lat="42.169727" lon="1.605796">
        <ele>1059.5</ele>
        <time>2014-07-17T16:00:25Z</time>
      </trkpt>
      <trkpt lat="42.169733" lon="1.605885">
        <ele>1060.5</ele>
        <time>2014-07-17T16:00:29Z</time>
      </trkpt>
      <trkpt lat="42.169796" lon="1.606163">
        <ele>1063.9</ele>
        <time>2014-07-17T16:00:40Z</time>
      </trkpt>
      <trkpt lat="42.169850" lon="1.606425">
        <ele>1066.7</ele>
        <time>2014-07-17T16:00:51Z</time>
      </trkpt>
      <trkpt lat="42.169835" lon="1.606506">
        <ele>1067.8</ele>
        <time>2014-07-17T16:00:54Z</time>
      </trkpt>
      <trkpt lat="42.169839" lon="1.606676">
        <ele>1070.1</ele>
        <time>2014-07-17T16:01:01Z</time>
      </trkpt>
      <trkpt lat="42.169827" lon="1.606736">
        <ele>1070.6</ele>
        <time>2014-07-17T16:01:04Z</time>
      </trkpt>
      <trkpt lat="42.169807" lon="1.606789">
        <ele>1071.6</ele>
        <time>2014-07-17T16:01:07Z</time>
      </trkpt>
      <trkpt lat="42.169790" lon="1.606812">
        <ele>1072.1</ele>
        <time>2014-07-17T16:01:09Z</time>
      </trkpt>
      <trkpt lat="42.169738" lon="1.606823">
        <ele>1072.6</ele>
        <time>2014-07-17T16:01:12Z</time>
      </trkpt>
      <trkpt lat="42.169535" lon="1.606598">
        <ele>1075.4</ele>
        <time>2014-07-17T16:01:25Z</time>
      </trkpt>
      <trkpt lat="42.169524" lon="1.606584">
        <ele>1075.4</ele>
        <time>2014-07-17T16:01:26Z</time>
      </trkpt>
      <trkpt lat="42.169374" lon="1.606314">
        <ele>1078.7</ele>
        <time>2014-07-17T16:01:39Z</time>
      </trkpt>
      <trkpt lat="42.169122" lon="1.606069">
        <ele>1081.7</ele>
        <time>2014-07-17T16:01:54Z</time>
      </trkpt>
      <trkpt lat="42.168909" lon="1.605862">
        <ele>1084.0</ele>
        <time>2014-07-17T16:02:07Z</time>
      </trkpt>
      <trkpt lat="42.168718" lon="1.605675">
        <ele>1086.1</ele>
        <time>2014-07-17T16:02:19Z</time>
      </trkpt>
      <trkpt lat="42.168507" lon="1.605535">
        <ele>1088.8</ele>
        <time>2014-07-17T16:02:32Z</time>
      </trkpt>
      <trkpt lat="42.168493" lon="1.605535">
        <ele>1089.3</ele>
        <time>2014-07-17T16:02:33Z</time>
      </trkpt>
      <trkpt lat="42.168371" lon="1.605559">
        <ele>1090.9</ele>
        <time>2014-07-17T16:02:40Z</time>
      </trkpt>
      <trkpt lat="42.168326" lon="1.605626">
        <ele>1092.2</ele>
        <time>2014-07-17T16:02:44Z</time>
      </trkpt>
      <trkpt lat="42.168351" lon="1.605755">
        <ele>1093.7</ele>
        <time>2014-07-17T16:02:50Z</time>
      </trkpt>
      <trkpt lat="42.168523" lon="1.605981">
        <ele>1097.0</ele>
        <time>2014-07-17T16:03:04Z</time>
      </trkpt>
      <trkpt lat="42.168671" lon="1.606200">
        <ele>1099.5</ele>
        <time>2014-07-17T16:03:15Z</time>
      </trkpt>
      <trkpt lat="42.168756" lon="1.606320">
        <ele>1100.9</ele>
        <time>2014-07-17T16:03:21Z</time>
      </trkpt>
      <trkpt lat="42.168884" lon="1.606623">
        <ele>1104.8</ele>
        <time>2014-07-17T16:03:34Z</time>
      </trkpt>
      <trkpt lat="42.168914" lon="1.606713">
        <ele>1106.1</ele>
        <time>2014-07-17T16:03:38Z</time>
      </trkpt>
      <trkpt lat="42.168899" lon="1.606857">
        <ele>1107.7</ele>
        <time>2014-07-17T16:03:44Z</time>
      </trkpt>
      <trkpt lat="42.168883" lon="1.607212">
        <ele>1110.9</ele>
        <time>2014-07-17T16:03:58Z</time>
      </trkpt>
      <trkpt lat="42.168892" lon="1.607462">
        <ele>1113.8</ele>
        <time>2014-07-17T16:04:08Z</time>
      </trkpt>
      <trkpt lat="42.168848" lon="1.607622">
        <ele>1115.8</ele>
        <time>2014-07-17T16:04:16Z</time>
      </trkpt>
      <trkpt lat="42.168768" lon="1.607806">
        <ele>1119.1</ele>
        <time>2014-07-17T16:04:27Z</time>
      </trkpt>
      <trkpt lat="42.168643" lon="1.607577">
        <ele>1121.5</ele>
        <time>2014-07-17T16:04:39Z</time>
      </trkpt>
      <trkpt lat="42.168618" lon="1.607189">
        <ele>1123.1</ele>
        <time>2014-07-17T16:04:52Z</time>
      </trkpt>
      <trkpt lat="42.168502" lon="1.606884">
        <ele>1124.0</ele>
        <time>2014-07-17T16:05:04Z</time>
      </trkpt>
      <trkpt lat="42.168151" lon="1.606752">
        <ele>1125.9</ele>
        <time>2014-07-17T16:05:20Z</time>
      </trkpt>
      <trkpt lat="42.167883" lon="1.606942">
        <ele>1129.3</ele>
        <time>2014-07-17T16:05:34Z</time>
      </trkpt>
      <trkpt lat="42.167690" lon="1.607128">
        <ele>1132.2</ele>
        <time>2014-07-17T16:05:46Z</time>
      </trkpt>
      <trkpt lat="42.167633" lon="1.607206">
        <ele>1133.1</ele>
        <time>2014-07-17T16:05:50Z</time>
      </trkpt>
      <trkpt lat="42.167405" lon="1.607382">
        <ele>1136.9</ele>
        <time>2014-07-17T16:06:03Z</time>
      </trkpt>
      <trkpt lat="42.167177" lon="1.607526">
        <ele>1139.8</ele>
        <time>2014-07-17T16:06:15Z</time>
      </trkpt>
      <trkpt lat="42.166860" lon="1.607779">
        <ele>1143.2</ele>
        <time>2014-07-17T16:06:32Z</time>
      </trkpt>
      <trkpt lat="42.166554" lon="1.608038">
        <ele>1145.6</ele>
        <time>2014-07-17T16:06:48Z</time>
      </trkpt>
      <trkpt lat="42.166288" lon="1.608398">
        <ele>1148.0</ele>
        <time>2014-07-17T16:07:04Z</time>
      </trkpt>
      <trkpt lat="42.166185" lon="1.608808">
        <ele>1149.9</ele>
        <time>2014-07-17T16:07:18Z</time>
      </trkpt>
      <trkpt lat="42.166008" lon="1.609081">
        <ele>1152.3</ele>
        <time>2014-07-17T16:07:30Z</time>
      </trkpt>
      <trkpt lat="42.165873" lon="1.609281">
        <ele>1153.3</ele>
        <time>2014-07-17T16:07:39Z</time>
      </trkpt>
      <trkpt lat="42.165747" lon="1.609404">
        <ele>1154.8</ele>
        <time>2014-07-17T16:07:46Z</time>
      </trkpt>
      <trkpt lat="42.165703" lon="1.609441">
        <ele>1155.2</ele>
        <time>2014-07-17T16:07:48Z</time>
      </trkpt>
      <trkpt lat="42.165487" lon="1.609788">
        <ele>1157.2</ele>
        <time>2014-07-17T16:08:02Z</time>
      </trkpt>
      <trkpt lat="42.165310" lon="1.610284">
        <ele>1156.6</ele>
        <time>2014-07-17T16:08:14Z</time>
      </trkpt>
      <trkpt lat="42.165169" lon="1.610886">
        <ele>1156.1</ele>
        <time>2014-07-17T16:08:27Z</time>
      </trkpt>
      <trkpt lat="42.165414" lon="1.611309">
        <ele>1157.2</ele>
        <time>2014-07-17T16:08:39Z</time>
      </trkpt>
      <trkpt lat="42.165559" lon="1.611787">
        <ele>1159.0</ele>
        <time>2014-07-17T16:08:52Z</time>
      </trkpt>
      <trkpt lat="42.165662" lon="1.612254">
        <ele>1160.0</ele>
        <time>2014-07-17T16:09:04Z</time>
      </trkpt>
      <trkpt lat="42.165694" lon="1.612792">
        <ele>1160.9</ele>
        <time>2014-07-17T16:09:16Z</time>
      </trkpt>
      <trkpt lat="42.165948" lon="1.613261">
        <ele>1162.5</ele>
        <time>2014-07-17T16:09:29Z</time>
      </trkpt>
      <trkpt lat="42.166264" lon="1.613536">
        <ele>1164.3</ele>
        <time>2014-07-17T16:09:42Z</time>
      </trkpt>
      <trkpt lat="42.166523" lon="1.613835">
        <ele>1166.3</ele>
        <time>2014-07-17T16:09:54Z</time>
      </trkpt>
      <trkpt lat="42.166556" lon="1.614250">
        <ele>1169.1</ele>
        <time>2014-07-17T16:10:07Z</time>
      </trkpt>
      <trkpt lat="42.166509" lon="1.614785">
        <ele>1172.1</ele>
        <time>2014-07-17T16:10:23Z</time>
      </trkpt>
      <trkpt lat="42.166564" lon="1.615211">
        <ele>1174.9</ele>
        <time>2014-07-17T16:10:37Z</time>
      </trkpt>
      <trkpt lat="42.166687" lon="1.615548">
        <ele>1178.2</ele>
        <time>2014-07-17T16:10:50Z</time>
      </trkpt>
      <trkpt lat="42.166867" lon="1.615972">
        <ele>1180.7</ele>
        <time>2014-07-17T16:11:06Z</time>
      </trkpt>
      <trkpt lat="42.167022" lon="1.616270">
        <ele>1183.0</ele>
        <time>2014-07-17T16:11:19Z</time>
      </trkpt>
      <trkpt lat="42.167163" lon="1.616548">
        <ele>1185.4</ele>
        <time>2014-07-17T16:11:31Z</time>
      </trkpt>
      <trkpt lat="42.167170" lon="1.616669">
        <ele>1187.0</ele>
        <time>2014-07-17T16:11:37Z</time>
      </trkpt>
      <trkpt lat="42.167107" lon="1.616788">
        <ele>1188.9</ele>
        <time>2014-07-17T16:11:43Z</time>
      </trkpt>
      <trkpt lat="42.166997" lon="1.616804">
        <ele>1190.3</ele>
        <time>2014-07-17T16:11:50Z</time>
      </trkpt>
      <trkpt lat="42.166924" lon="1.616856">
        <ele>1191.7</ele>
        <time>2014-07-17T16:11:55Z</time>
      </trkpt>
      <trkpt lat="42.166855" lon="1.616970">
        <ele>1193.2</ele>
        <time>2014-07-17T16:12:03Z</time>
      </trkpt>
      <trkpt lat="42.166713" lon="1.617158">
        <ele>1195.1</ele>
        <time>2014-07-17T16:12:13Z</time>
      </trkpt>
      <trkpt lat="42.166587" lon="1.617164">
        <ele>1197.0</ele>
        <time>2014-07-17T16:12:21Z</time>
      </trkpt>
      <trkpt lat="42.166346" lon="1.617003">
        <ele>1199.4</ele>
        <time>2014-07-17T16:12:34Z</time>
      </trkpt>
      <trkpt lat="42.166157" lon="1.617215">
        <ele>1202.3</ele>
        <time>2014-07-17T16:12:48Z</time>
      </trkpt>
      <trkpt lat="42.166157" lon="1.617252">
        <ele>1202.8</ele>
        <time>2014-07-17T16:12:50Z</time>
      </trkpt>
      <trkpt lat="42.166171" lon="1.617302">
        <ele>1203.7</ele>
        <time>2014-07-17T16:12:53Z</time>
      </trkpt>
      <trkpt lat="42.166331" lon="1.617618">
        <ele>1206.7</ele>
        <time>2014-07-17T16:13:07Z</time>
      </trkpt>
      <trkpt lat="42.166426" lon="1.617824">
        <ele>1207.6</ele>
        <time>2014-07-17T16:13:15Z</time>
      </trkpt>
      <trkpt lat="42.166606" lon="1.617992">
        <ele>1209.5</ele>
        <time>2014-07-17T16:13:26Z</time>
      </trkpt>
      <trkpt lat="42.166664" lon="1.617987">
        <ele>1209.5</ele>
        <time>2014-07-17T16:13:29Z</time>
      </trkpt>
      <trkpt lat="42.166865" lon="1.617881">
        <ele>1212.4</ele>
        <time>2014-07-17T16:13:42Z</time>
      </trkpt>
      <trkpt lat="42.166997" lon="1.617919">
        <ele>1214.9</ele>
        <time>2014-07-17T16:13:50Z</time>
      </trkpt>
      <trkpt lat="42.167023" lon="1.617909">
        <ele>1214.8</ele>
        <time>2014-07-17T16:13:52Z</time>
      </trkpt>
      <trkpt lat="42.167285" lon="1.618030">
        <ele>1218.6</ele>
        <time>2014-07-17T16:14:06Z</time>
      </trkpt>
      <trkpt lat="42.167524" lon="1.618222">
        <ele>1222.0</ele>
        <time>2014-07-17T16:14:19Z</time>
      </trkpt>
      <trkpt lat="42.167702" lon="1.618436">
        <ele>1224.9</ele>
        <time>2014-07-17T16:14:32Z</time>
      </trkpt>
      <trkpt lat="42.167891" lon="1.618765">
        <ele>1227.8</ele>
        <time>2014-07-17T16:14:47Z</time>
      </trkpt>
      <trkpt lat="42.168094" lon="1.618889">
        <ele>1230.2</ele>
        <time>2014-07-17T16:14:58Z</time>
      </trkpt>
      <trkpt lat="42.168289" lon="1.618960">
        <ele>1232.2</ele>
        <time>2014-07-17T16:15:08Z</time>
      </trkpt>
      <trkpt lat="42.168366" lon="1.618974">
        <ele>1232.6</ele>
        <time>2014-07-17T16:15:12Z</time>
      </trkpt>
      <trkpt lat="42.168454" lon="1.619003">
        <ele>1234.1</ele>
        <time>2014-07-17T16:15:17Z</time>
      </trkpt>
      <trkpt lat="42.168703" lon="1.619154">
        <ele>1237.5</ele>
        <time>2014-07-17T16:15:30Z</time>
      </trkpt>
      <trkpt lat="42.168728" lon="1.619178">
        <ele>1237.8</ele>
        <time>2014-07-17T16:15:32Z</time>
      </trkpt>
      <trkpt lat="42.168791" lon="1.619259">
        <ele>1238.8</ele>
        <time>2014-07-17T16:15:37Z</time>
      </trkpt>
      <trkpt lat="42.168919" lon="1.619475">
        <ele>1242.2</ele>
        <time>2014-07-17T16:15:50Z</time>
      </trkpt>
      <trkpt lat="42.168926" lon="1.619489">
        <ele>1242.6</ele>
        <time>2014-07-17T16:15:51Z</time>
      </trkpt>
      <trkpt lat="42.168971" lon="1.619552">
        <ele>1243.7</ele>
        <time>2014-07-17T16:15:55Z</time>
      </trkpt>
      <trkpt lat="42.169004" lon="1.619605">
        <ele>1244.2</ele>
        <time>2014-07-17T16:15:58Z</time>
      </trkpt>
      <trkpt lat="42.169053" lon="1.619655">
        <ele>1245.0</ele>
        <time>2014-07-17T16:16:02Z</time>
      </trkpt>
      <trkpt lat="42.169091" lon="1.619725">
        <ele>1246.6</ele>
        <time>2014-07-17T16:16:06Z</time>
      </trkpt>
      <trkpt lat="42.169275" lon="1.619866">
        <ele>1249.5</ele>
        <time>2014-07-17T16:16:18Z</time>
      </trkpt>
      <trkpt lat="42.169429" lon="1.620076">
        <ele>1251.9</ele>
        <time>2014-07-17T16:16:29Z</time>
      </trkpt>
      <trkpt lat="42.169574" lon="1.620319">
        <ele>1252.8</ele>
        <time>2014-07-17T16:16:41Z</time>
      </trkpt>
      <trkpt lat="42.169652" lon="1.620666">
        <ele>1251.9</ele>
        <time>2014-07-17T16:16:47Z</time>
      </trkpt>
      <trkpt lat="42.169743" lon="1.620876">
        <ele>1251.3</ele>
        <time>2014-07-17T16:16:51Z</time>
      </trkpt>
      <trkpt lat="42.169895" lon="1.621046">
        <ele>1251.3</ele>
        <time>2014-07-17T16:16:56Z</time>
      </trkpt>
      <trkpt lat="42.170196" lon="1.621426">
        <ele>1251.9</ele>
        <time>2014-07-17T16:17:09Z</time>
      </trkpt>
      <trkpt lat="42.170462" lon="1.621871">
        <ele>1252.4</ele>
        <time>2014-07-17T16:17:22Z</time>
      </trkpt>
      <trkpt lat="42.170744" lon="1.622343">
        <ele>1253.8</ele>
        <time>2014-07-17T16:17:36Z</time>
      </trkpt>
      <trkpt lat="42.170832" lon="1.622876">
        <ele>1255.6</ele>
        <time>2014-07-17T16:17:50Z</time>
      </trkpt>
      <trkpt lat="42.171016" lon="1.623110">
        <ele>1257.1</ele>
        <time>2014-07-17T16:18:01Z</time>
      </trkpt>
      <trkpt lat="42.171310" lon="1.622981">
        <ele>1259.6</ele>
        <time>2014-07-17T16:18:14Z</time>
      </trkpt>
      <trkpt lat="42.171645" lon="1.622970">
        <ele>1261.5</ele>
        <time>2014-07-17T16:18:26Z</time>
      </trkpt>
      <trkpt lat="42.171877" lon="1.623166">
        <ele>1263.4</ele>
        <time>2014-07-17T16:18:37Z</time>
      </trkpt>
      <trkpt lat="42.172126" lon="1.623296">
        <ele>1266.7</ele>
        <time>2014-07-17T16:18:50Z</time>
      </trkpt>
      <trkpt lat="42.172433" lon="1.623373">
        <ele>1269.6</ele>
        <time>2014-07-17T16:19:02Z</time>
      </trkpt>
      <trkpt lat="42.172637" lon="1.623510">
        <ele>1272.0</ele>
        <time>2014-07-17T16:19:13Z</time>
      </trkpt>
      <trkpt lat="42.172824" lon="1.623692">
        <ele>1274.9</ele>
        <time>2014-07-17T16:19:24Z</time>
      </trkpt>
      <trkpt lat="42.173016" lon="1.623948">
        <ele>1276.4</ele>
        <time>2014-07-17T16:19:37Z</time>
      </trkpt>
      <trkpt lat="42.173195" lon="1.624230">
        <ele>1278.3</ele>
        <time>2014-07-17T16:19:50Z</time>
      </trkpt>
      <trkpt lat="42.173200" lon="1.624255">
        <ele>1278.8</ele>
        <time>2014-07-17T16:20:00Z</time>
      </trkpt>
      <trkpt lat="42.173197" lon="1.624274">
        <ele>1278.7</ele>
        <time>2014-07-17T16:20:06Z</time>
      </trkpt>
      <trkpt lat="42.173228" lon="1.624323">
        <ele>1279.2</ele>
        <time>2014-07-17T16:20:10Z</time>
      </trkpt>
      <trkpt lat="42.173321" lon="1.624528">
        <ele>1283.0</ele>
        <time>2014-07-17T16:20:23Z</time>
      </trkpt>
      <trkpt lat="42.173362" lon="1.624601">
        <ele>1284.1</ele>
        <time>2014-07-17T16:20:28Z</time>
      </trkpt>
      <trkpt lat="42.173463" lon="1.624689">
        <ele>1286.4</ele>
        <time>2014-07-17T16:20:38Z</time>
      </trkpt>
      <trkpt lat="42.173504" lon="1.624708">
        <ele>1286.9</ele>
        <time>2014-07-17T16:20:41Z</time>
      </trkpt>
      <trkpt lat="42.173548" lon="1.624774">
        <ele>1288.8</ele>
        <time>2014-07-17T16:20:47Z</time>
      </trkpt>
      <trkpt lat="42.173598" lon="1.624835">
        <ele>1290.2</ele>
        <time>2014-07-17T16:20:53Z</time>
      </trkpt>
      <trkpt lat="42.173611" lon="1.624928">
        <ele>1291.8</ele>
        <time>2014-07-17T16:20:59Z</time>
      </trkpt>
      <trkpt lat="42.173604" lon="1.624962">
        <ele>1292.2</ele>
        <time>2014-07-17T16:21:01Z</time>
      </trkpt>
      <trkpt lat="42.173592" lon="1.625042">
        <ele>1293.2</ele>
        <time>2014-07-17T16:21:06Z</time>
      </trkpt>
      <trkpt lat="42.173430" lon="1.625100">
        <ele>1295.6</ele>
        <time>2014-07-17T16:21:20Z</time>
      </trkpt>
      <trkpt lat="42.173326" lon="1.625057">
        <ele>1297.0</ele>
        <time>2014-07-17T16:21:28Z</time>
      </trkpt>
      <trkpt lat="42.173176" lon="1.624980">
        <ele>1300.4</ele>
        <time>2014-07-17T16:21:42Z</time>
      </trkpt>
      <trkpt lat="42.173053" lon="1.624988">
        <ele>1302.7</ele>
        <time>2014-07-17T16:21:53Z</time>
      </trkpt>
      <trkpt lat="42.173042" lon="1.624983">
        <ele>1302.8</ele>
        <time>2014-07-17T16:21:54Z</time>
      </trkpt>
      <trkpt lat="42.172885" lon="1.624966">
        <ele>1305.6</ele>
        <time>2014-07-17T16:22:06Z</time>
      </trkpt>
      <trkpt lat="42.172733" lon="1.624926">
        <ele>1308.0</ele>
        <time>2014-07-17T16:22:18Z</time>
      </trkpt>
      <trkpt lat="42.172568" lon="1.624909">
        <ele>1311.0</ele>
        <time>2014-07-17T16:22:30Z</time>
      </trkpt>
      <trkpt lat="42.172391" lon="1.624962">
        <ele>1313.4</ele>
        <time>2014-07-17T16:22:45Z</time>
      </trkpt>
      <trkpt lat="42.172191" lon="1.624938">
        <ele>1315.8</ele>
        <time>2014-07-17T16:22:57Z</time>
      </trkpt>
      <trkpt lat="42.171967" lon="1.624865">
        <ele>1317.6</ele>
        <time>2014-07-17T16:23:11Z</time>
      </trkpt>
      <trkpt lat="42.171825" lon="1.624798">
        <ele>1318.6</ele>
        <time>2014-07-17T16:23:20Z</time>
      </trkpt>
      <trkpt lat="42.171621" lon="1.624795">
        <ele>1321.1</ele>
        <time>2014-07-17T16:23:32Z</time>
      </trkpt>
      <trkpt lat="42.171513" lon="1.624841">
        <ele>1323.5</ele>
        <time>2014-07-17T16:23:44Z</time>
      </trkpt>
      <trkpt lat="42.171432" lon="1.624859">
        <ele>1325.4</ele>
        <time>2014-07-17T16:23:51Z</time>
      </trkpt>
      <trkpt lat="42.171293" lon="1.624896">
        <ele>1327.7</ele>
        <time>2014-07-17T16:24:02Z</time>
      </trkpt>
      <trkpt lat="42.171279" lon="1.624894">
        <ele>1327.7</ele>
        <time>2014-07-17T16:24:03Z</time>
      </trkpt>
      <trkpt lat="42.171156" lon="1.624895">
        <ele>1330.1</ele>
        <time>2014-07-17T16:24:14Z</time>
      </trkpt>
      <trkpt lat="42.170967" lon="1.624888">
        <ele>1332.1</ele>
        <time>2014-07-17T16:24:27Z</time>
      </trkpt>
      <trkpt lat="42.170786" lon="1.624849">
        <ele>1334.9</ele>
        <time>2014-07-17T16:24:39Z</time>
      </trkpt>
      <trkpt lat="42.170620" lon="1.624813">
        <ele>1337.4</ele>
        <time>2014-07-17T16:24:51Z</time>
      </trkpt>
      <trkpt lat="42.170350" lon="1.624734">
        <ele>1338.3</ele>
        <time>2014-07-17T16:25:03Z</time>
      </trkpt>
      <trkpt lat="42.170129" lon="1.624846">
        <ele>1339.7</ele>
        <time>2014-07-17T16:25:14Z</time>
      </trkpt>
      <trkpt lat="42.170097" lon="1.624973">
        <ele>1341.3</ele>
        <time>2014-07-17T16:25:21Z</time>
      </trkpt>
      <trkpt lat="42.170114" lon="1.625007">
        <ele>1341.7</ele>
        <time>2014-07-17T16:25:24Z</time>
      </trkpt>
      <trkpt lat="42.170271" lon="1.624995">
        <ele>1344.1</ele>
        <time>2014-07-17T16:25:36Z</time>
      </trkpt>
      <trkpt lat="42.170425" lon="1.625111">
        <ele>1347.5</ele>
        <time>2014-07-17T16:25:49Z</time>
      </trkpt>
      <trkpt lat="42.170500" lon="1.625194">
        <ele>1349.8</ele>
        <time>2014-07-17T16:26:00Z</time>
      </trkpt>
      <trkpt lat="42.170549" lon="1.625228">
        <ele>1350.3</ele>
        <time>2014-07-17T16:26:03Z</time>
      </trkpt>
      <trkpt lat="42.170607" lon="1.625331">
        <ele>1351.8</ele>
        <time>2014-07-17T16:26:10Z</time>
      </trkpt>
      <trkpt lat="42.170655" lon="1.625407">
        <ele>1352.7</ele>
        <time>2014-07-17T16:26:15Z</time>
      </trkpt>
      <trkpt lat="42.170756" lon="1.625551">
        <ele>1354.7</ele>
        <time>2014-07-17T16:26:25Z</time>
      </trkpt>
      <trkpt lat="42.170764" lon="1.625578">
        <ele>1354.6</ele>
        <time>2014-07-17T16:26:27Z</time>
      </trkpt>
      <trkpt lat="42.170922" lon="1.625669">
        <ele>1357.1</ele>
        <time>2014-07-17T16:26:40Z</time>
      </trkpt>
      <trkpt lat="42.171002" lon="1.625734">
        <ele>1358.6</ele>
        <time>2014-07-17T16:26:46Z</time>
      </trkpt>
      <trkpt lat="42.171028" lon="1.625754">
        <ele>1358.6</ele>
        <time>2014-07-17T16:26:48Z</time>
      </trkpt>
      <trkpt lat="42.171050" lon="1.625769">
        <ele>1359.0</ele>
        <time>2014-07-17T16:26:50Z</time>
      </trkpt>
      <trkpt lat="42.171124" lon="1.625791">
        <ele>1359.4</ele>
        <time>2014-07-17T16:26:56Z</time>
      </trkpt>
      <trkpt lat="42.171301" lon="1.625965">
        <ele>1362.3</ele>
        <time>2014-07-17T16:27:12Z</time>
      </trkpt>
      <trkpt lat="42.171391" lon="1.626019">
        <ele>1363.8</ele>
        <time>2014-07-17T16:27:19Z</time>
      </trkpt>
      <trkpt lat="42.171503" lon="1.626057">
        <ele>1365.3</ele>
        <time>2014-07-17T16:27:28Z</time>
      </trkpt>
      <trkpt lat="42.171634" lon="1.626131">
        <ele>1367.7</ele>
        <time>2014-07-17T16:27:40Z</time>
      </trkpt>
      <trkpt lat="42.171789" lon="1.626196">
        <ele>1369.5</ele>
        <time>2014-07-17T16:27:52Z</time>
      </trkpt>
      <trkpt lat="42.172009" lon="1.626309">
        <ele>1371.9</ele>
        <time>2014-07-17T16:28:06Z</time>
      </trkpt>
      <trkpt lat="42.172175" lon="1.626397">
        <ele>1374.3</ele>
        <time>2014-07-17T16:28:18Z</time>
      </trkpt>
      <trkpt lat="42.172229" lon="1.626461">
        <ele>1375.4</ele>
        <time>2014-07-17T16:28:23Z</time>
      </trkpt>
      <trkpt lat="42.172232" lon="1.626502">
        <ele>1375.9</ele>
        <time>2014-07-17T16:28:25Z</time>
      </trkpt>
      <trkpt lat="42.172211" lon="1.626558">
        <ele>1376.9</ele>
        <time>2014-07-17T16:28:29Z</time>
      </trkpt>
      <trkpt lat="42.172181" lon="1.626566">
        <ele>1377.3</ele>
        <time>2014-07-17T16:28:32Z</time>
      </trkpt>
      <trkpt lat="42.172009" lon="1.626541">
        <ele>1380.6</ele>
        <time>2014-07-17T16:28:47Z</time>
      </trkpt>
      <trkpt lat="42.172001" lon="1.626536">
        <ele>1380.6</ele>
        <time>2014-07-17T16:28:48Z</time>
      </trkpt>
      <trkpt lat="42.171984" lon="1.626520">
        <ele>1381.2</ele>
        <time>2014-07-17T16:28:50Z</time>
      </trkpt>
      <trkpt lat="42.171727" lon="1.626511">
        <ele>1383.5</ele>
        <time>2014-07-17T16:29:05Z</time>
      </trkpt>
      <trkpt lat="42.171490" lon="1.626507">
        <ele>1386.9</ele>
        <time>2014-07-17T16:29:20Z</time>
      </trkpt>
      <trkpt lat="42.171437" lon="1.626507">
        <ele>1387.3</ele>
        <time>2014-07-17T16:29:24Z</time>
      </trkpt>
      <trkpt lat="42.171368" lon="1.626496">
        <ele>1388.8</ele>
        <time>2014-07-17T16:29:31Z</time>
      </trkpt>
      <trkpt lat="42.171171" lon="1.626460">
        <ele>1391.7</ele>
        <time>2014-07-17T16:29:45Z</time>
      </trkpt>
      <trkpt lat="42.170944" lon="1.626452">
        <ele>1394.6</ele>
        <time>2014-07-17T16:29:59Z</time>
      </trkpt>
      <trkpt lat="42.170853" lon="1.626527">
        <ele>1396.0</ele>
        <time>2014-07-17T16:30:10Z</time>
      </trkpt>
      <trkpt lat="42.171018" lon="1.626622">
        <ele>1398.5</ele>
        <time>2014-07-17T16:30:22Z</time>
      </trkpt>
      <trkpt lat="42.171133" lon="1.626657">
        <ele>1399.3</ele>
        <time>2014-07-17T16:30:30Z</time>
      </trkpt>
      <trkpt lat="42.171375" lon="1.626758">
        <ele>1399.8</ele>
        <time>2014-07-17T16:30:43Z</time>
      </trkpt>
      <trkpt lat="42.171623" lon="1.626869">
        <ele>1401.8</ele>
        <time>2014-07-17T16:30:56Z</time>
      </trkpt>
      <trkpt lat="42.171800" lon="1.626943">
        <ele>1404.6</ele>
        <time>2014-07-17T16:31:09Z</time>
      </trkpt>
      <trkpt lat="42.171811" lon="1.626949">
        <ele>1404.7</ele>
        <time>2014-07-17T16:31:10Z</time>
      </trkpt>
      <trkpt lat="42.171885" lon="1.626975">
        <ele>1405.7</ele>
        <time>2014-07-17T16:31:15Z</time>
      </trkpt>
      <trkpt lat="42.172034" lon="1.627054">
        <ele>1407.1</ele>
        <time>2014-07-17T16:31:25Z</time>
      </trkpt>
      <trkpt lat="42.172050" lon="1.627065">
        <ele>1407.5</ele>
        <time>2014-07-17T16:31:26Z</time>
      </trkpt>
      <trkpt lat="42.172132" lon="1.627134">
        <ele>1408.1</ele>
        <time>2014-07-17T16:31:32Z</time>
      </trkpt>
      <trkpt lat="42.172324" lon="1.627168">
        <ele>1410.0</ele>
        <time>2014-07-17T16:31:44Z</time>
      </trkpt>
      <trkpt lat="42.172522" lon="1.627222">
        <ele>1411.4</ele>
        <time>2014-07-17T16:31:57Z</time>
      </trkpt>
      <trkpt lat="42.172547" lon="1.627217">
        <ele>1411.8</ele>
        <time>2014-07-17T16:32:00Z</time>
      </trkpt>
      <trkpt lat="42.172702" lon="1.627273">
        <ele>1413.8</ele>
        <time>2014-07-17T16:32:11Z</time>
      </trkpt>
      <trkpt lat="42.172836" lon="1.627345">
        <ele>1415.8</ele>
        <time>2014-07-17T16:32:20Z</time>
      </trkpt>
      <trkpt lat="42.172932" lon="1.627369">
        <ele>1416.7</ele>
        <time>2014-07-17T16:32:26Z</time>
      </trkpt>
      <trkpt lat="42.172957" lon="1.627375">
        <ele>1417.1</ele>
        <time>2014-07-17T16:32:28Z</time>
      </trkpt>
      <trkpt lat="42.172985" lon="1.627378">
        <ele>1417.7</ele>
        <time>2014-07-17T16:32:32Z</time>
      </trkpt>
      <trkpt lat="42.173017" lon="1.627381">
        <ele>1418.7</ele>
        <time>2014-07-17T16:32:36Z</time>
      </trkpt>
      <trkpt lat="42.173186" lon="1.627391">
        <ele>1421.1</ele>
        <time>2014-07-17T16:32:48Z</time>
      </trkpt>
      <trkpt lat="42.173237" lon="1.627388">
        <ele>1421.6</ele>
        <time>2014-07-17T16:32:51Z</time>
      </trkpt>
      <trkpt lat="42.173351" lon="1.627364">
        <ele>1422.5</ele>
        <time>2014-07-17T16:32:58Z</time>
      </trkpt>
      <trkpt lat="42.173560" lon="1.627341">
        <ele>1424.4</ele>
        <time>2014-07-17T16:33:11Z</time>
      </trkpt>
      <trkpt lat="42.173632" lon="1.627363">
        <ele>1424.3</ele>
        <time>2014-07-17T16:33:17Z</time>
      </trkpt>
      <trkpt lat="42.173587" lon="1.627426">
        <ele>1424.8</ele>
        <time>2014-07-17T16:33:22Z</time>
      </trkpt>
      <trkpt lat="42.173536" lon="1.627416">
        <ele>1425.3</ele>
        <time>2014-07-17T16:33:25Z</time>
      </trkpt>
      <trkpt lat="42.173448" lon="1.627472">
        <ele>1427.3</ele>
        <time>2014-07-17T16:33:32Z</time>
      </trkpt>
      <trkpt lat="42.173389" lon="1.627505">
        <ele>1429.1</ele>
        <time>2014-07-17T16:33:37Z</time>
      </trkpt>
      <trkpt lat="42.173136" lon="1.627526">
        <ele>1431.1</ele>
        <time>2014-07-17T16:33:52Z</time>
      </trkpt>
      <trkpt lat="42.173092" lon="1.627551">
        <ele>1431.5</ele>
        <time>2014-07-17T16:33:55Z</time>
      </trkpt>
      <trkpt lat="42.172879" lon="1.627564">
        <ele>1433.5</ele>
        <time>2014-07-17T16:34:08Z</time>
      </trkpt>
      <trkpt lat="42.172865" lon="1.627587">
        <ele>1433.6</ele>
        <time>2014-07-17T16:34:10Z</time>
      </trkpt>
      <trkpt lat="42.172833" lon="1.627615">
        <ele>1433.9</ele>
        <time>2014-07-17T16:34:13Z</time>
      </trkpt>
      <trkpt lat="42.172622" lon="1.627651">
        <ele>1436.5</ele>
        <time>2014-07-17T16:34:27Z</time>
      </trkpt>
      <trkpt lat="42.172560" lon="1.627637">
        <ele>1436.8</ele>
        <time>2014-07-17T16:34:30Z</time>
      </trkpt>
      <trkpt lat="42.172410" lon="1.627678">
        <ele>1438.8</ele>
        <time>2014-07-17T16:34:40Z</time>
      </trkpt>
      <trkpt lat="42.172322" lon="1.627690">
        <ele>1439.7</ele>
        <time>2014-07-17T16:34:46Z</time>
      </trkpt>
      <trkpt lat="42.172190" lon="1.627681">
        <ele>1440.8</ele>
        <time>2014-07-17T16:34:53Z</time>
      </trkpt>
      <trkpt lat="42.172107" lon="1.627705">
        <ele>1441.6</ele>
        <time>2014-07-17T16:34:58Z</time>
      </trkpt>
      <trkpt lat="42.171921" lon="1.627737">
        <ele>1443.6</ele>
        <time>2014-07-17T16:35:09Z</time>
      </trkpt>
      <trkpt lat="42.171843" lon="1.627735">
        <ele>1444.6</ele>
        <time>2014-07-17T16:35:14Z</time>
      </trkpt>
      <trkpt lat="42.171686" lon="1.627753">
        <ele>1446.4</ele>
        <time>2014-07-17T16:35:26Z</time>
      </trkpt>
      <trkpt lat="42.171514" lon="1.627758">
        <ele>1448.8</ele>
        <time>2014-07-17T16:35:39Z</time>
      </trkpt>
      <trkpt lat="42.171335" lon="1.627793">
        <ele>1451.3</ele>
        <time>2014-07-17T16:35:52Z</time>
      </trkpt>
      <trkpt lat="42.171310" lon="1.627795">
        <ele>1451.8</ele>
        <time>2014-07-17T16:35:54Z</time>
      </trkpt>
      <trkpt lat="42.171127" lon="1.627779">
        <ele>1453.7</ele>
        <time>2014-07-17T16:36:06Z</time>
      </trkpt>
      <trkpt lat="42.170971" lon="1.627765">
        <ele>1456.1</ele>
        <time>2014-07-17T16:36:20Z</time>
      </trkpt>
      <trkpt lat="42.170928" lon="1.627754">
        <ele>1457.1</ele>
        <time>2014-07-17T16:36:23Z</time>
      </trkpt>
      <trkpt lat="42.170758" lon="1.627630">
        <ele>1459.5</ele>
        <time>2014-07-17T16:36:37Z</time>
      </trkpt>
      <trkpt lat="42.170579" lon="1.627542">
        <ele>1461.9</ele>
        <time>2014-07-17T16:36:52Z</time>
      </trkpt>
      <trkpt lat="42.170429" lon="1.627509">
        <ele>1464.2</ele>
        <time>2014-07-17T16:37:04Z</time>
      </trkpt>
      <trkpt lat="42.170246" lon="1.627419">
        <ele>1465.7</ele>
        <time>2014-07-17T16:37:17Z</time>
      </trkpt>
      <trkpt lat="42.170057" lon="1.627349">
        <ele>1468.2</ele>
        <time>2014-07-17T16:37:29Z</time>
      </trkpt>
      <trkpt lat="42.169989" lon="1.627339">
        <ele>1469.1</ele>
        <time>2014-07-17T16:37:34Z</time>
      </trkpt>
      <trkpt lat="42.169926" lon="1.627324">
        <ele>1470.1</ele>
        <time>2014-07-17T16:37:38Z</time>
      </trkpt>
      <trkpt lat="42.169738" lon="1.627281">
        <ele>1472.4</ele>
        <time>2014-07-17T16:37:52Z</time>
      </trkpt>
      <trkpt lat="42.169686" lon="1.627250">
        <ele>1473.4</ele>
        <time>2014-07-17T16:37:55Z</time>
      </trkpt>
      <trkpt lat="42.169547" lon="1.627174">
        <ele>1475.3</ele>
        <time>2014-07-17T16:38:05Z</time>
      </trkpt>
      <trkpt lat="42.169502" lon="1.627160">
        <ele>1476.2</ele>
        <time>2014-07-17T16:38:08Z</time>
      </trkpt>
      <trkpt lat="42.169477" lon="1.627161">
        <ele>1476.8</ele>
        <time>2014-07-17T16:38:10Z</time>
      </trkpt>
      <trkpt lat="42.169402" lon="1.627127">
        <ele>1477.2</ele>
        <time>2014-07-17T16:38:15Z</time>
      </trkpt>
      <trkpt lat="42.169369" lon="1.627121">
        <ele>1477.7</ele>
        <time>2014-07-17T16:38:17Z</time>
      </trkpt>
      <trkpt lat="42.169316" lon="1.627120">
        <ele>1478.8</ele>
        <time>2014-07-17T16:38:21Z</time>
      </trkpt>
      <trkpt lat="42.169197" lon="1.627102">
        <ele>1480.2</ele>
        <time>2014-07-17T16:38:30Z</time>
      </trkpt>
      <trkpt lat="42.169096" lon="1.627084">
        <ele>1481.2</ele>
        <time>2014-07-17T16:38:37Z</time>
      </trkpt>
      <trkpt lat="42.168932" lon="1.627021">
        <ele>1483.6</ele>
        <time>2014-07-17T16:38:51Z</time>
      </trkpt>
      <trkpt lat="42.168772" lon="1.627025">
        <ele>1486.3</ele>
        <time>2014-07-17T16:39:04Z</time>
      </trkpt>
      <trkpt lat="42.168746" lon="1.627034">
        <ele>1486.3</ele>
        <time>2014-07-17T16:39:06Z</time>
      </trkpt>
      <trkpt lat="42.168683" lon="1.627017">
        <ele>1486.8</ele>
        <time>2014-07-17T16:39:10Z</time>
      </trkpt>
      <trkpt lat="42.168532" lon="1.626982">
        <ele>1489.3</ele>
        <time>2014-07-17T16:39:23Z</time>
      </trkpt>
      <trkpt lat="42.168501" lon="1.626969">
        <ele>1489.7</ele>
        <time>2014-07-17T16:39:25Z</time>
      </trkpt>
      <trkpt lat="42.168324" lon="1.626941">
        <ele>1491.6</ele>
        <time>2014-07-17T16:39:38Z</time>
      </trkpt>
      <trkpt lat="42.168292" lon="1.626931">
        <ele>1492.1</ele>
        <time>2014-07-17T16:39:40Z</time>
      </trkpt>
      <trkpt lat="42.168141" lon="1.626886">
        <ele>1494.1</ele>
        <time>2014-07-17T16:39:52Z</time>
      </trkpt>
      <trkpt lat="42.168000" lon="1.626816">
        <ele>1496.0</ele>
        <time>2014-07-17T16:40:03Z</time>
      </trkpt>
      <trkpt lat="42.167824" lon="1.626710">
        <ele>1498.4</ele>
        <time>2014-07-17T16:40:17Z</time>
      </trkpt>
      <trkpt lat="42.167683" lon="1.626573">
        <ele>1500.8</ele>
        <time>2014-07-17T16:40:31Z</time>
      </trkpt>
      <trkpt lat="42.167559" lon="1.626352">
        <ele>1503.2</ele>
        <time>2014-07-17T16:40:46Z</time>
      </trkpt>
      <trkpt lat="42.167529" lon="1.626279">
        <ele>1503.6</ele>
        <time>2014-07-17T16:40:50Z</time>
      </trkpt>
      <trkpt lat="42.167502" lon="1.626218">
        <ele>1504.6</ele>
        <time>2014-07-17T16:40:54Z</time>
      </trkpt>
      <trkpt lat="42.167440" lon="1.626066">
        <ele>1506.0</ele>
        <time>2014-07-17T16:41:03Z</time>
      </trkpt>
      <trkpt lat="42.167298" lon="1.625896">
        <ele>1508.6</ele>
        <time>2014-07-17T16:41:17Z</time>
      </trkpt>
      <trkpt lat="42.167124" lon="1.625884">
        <ele>1511.0</ele>
        <time>2014-07-17T16:41:30Z</time>
      </trkpt>
      <trkpt lat="42.166963" lon="1.625888">
        <ele>1512.8</ele>
        <time>2014-07-17T16:41:40Z</time>
      </trkpt>
      <trkpt lat="42.166924" lon="1.625900">
        <ele>1513.7</ele>
        <time>2014-07-17T16:41:43Z</time>
      </trkpt>
      <trkpt lat="42.166720" lon="1.625880">
        <ele>1516.7</ele>
        <time>2014-07-17T16:41:58Z</time>
      </trkpt>
      <trkpt lat="42.166579" lon="1.625870">
        <ele>1518.6</ele>
        <time>2014-07-17T16:42:09Z</time>
      </trkpt>
      <trkpt lat="42.166504" lon="1.625843">
        <ele>1520.5</ele>
        <time>2014-07-17T16:42:16Z</time>
      </trkpt>
      <trkpt lat="42.166340" lon="1.625817">
        <ele>1522.5</ele>
        <time>2014-07-17T16:42:30Z</time>
      </trkpt>
      <trkpt lat="42.166156" lon="1.625765">
        <ele>1524.8</ele>
        <time>2014-07-17T16:42:44Z</time>
      </trkpt>
      <trkpt lat="42.166052" lon="1.625732">
        <ele>1526.2</ele>
        <time>2014-07-17T16:42:52Z</time>
      </trkpt>
      <trkpt lat="42.165875" lon="1.625666">
        <ele>1528.6</ele>
        <time>2014-07-17T16:43:06Z</time>
      </trkpt>
      <trkpt lat="42.165804" lon="1.625653">
        <ele>1529.6</ele>
        <time>2014-07-17T16:43:11Z</time>
      </trkpt>
      <trkpt lat="42.165626" lon="1.625634">
        <ele>1532.0</ele>
        <time>2014-07-17T16:43:25Z</time>
      </trkpt>
      <trkpt lat="42.165459" lon="1.625649">
        <ele>1535.5</ele>
        <time>2014-07-17T16:43:39Z</time>
      </trkpt>
      <trkpt lat="42.165306" lon="1.625692">
        <ele>1537.4</ele>
        <time>2014-07-17T16:43:51Z</time>
      </trkpt>
      <trkpt lat="42.165090" lon="1.625726">
        <ele>1539.7</ele>
        <time>2014-07-17T16:44:05Z</time>
      </trkpt>
      <trkpt lat="42.164958" lon="1.625727">
        <ele>1541.7</ele>
        <time>2014-07-17T16:44:14Z</time>
      </trkpt>
      <trkpt lat="42.164845" lon="1.625677">
        <ele>1543.1</ele>
        <time>2014-07-17T16:44:24Z</time>
      </trkpt>
      <trkpt lat="42.164750" lon="1.625597">
        <ele>1544.0</ele>
        <time>2014-07-17T16:44:32Z</time>
      </trkpt>
      <trkpt lat="42.164640" lon="1.625557">
        <ele>1545.5</ele>
        <time>2014-07-17T16:44:40Z</time>
      </trkpt>
      <trkpt lat="42.164626" lon="1.625531">
        <ele>1545.9</ele>
        <time>2014-07-17T16:44:42Z</time>
      </trkpt>
      <trkpt lat="42.164556" lon="1.625496">
        <ele>1546.9</ele>
        <time>2014-07-17T16:44:48Z</time>
      </trkpt>
      <trkpt lat="42.164493" lon="1.625507">
        <ele>1548.0</ele>
        <time>2014-07-17T16:44:53Z</time>
      </trkpt>
      <trkpt lat="42.164354" lon="1.625586">
        <ele>1548.9</ele>
        <time>2014-07-17T16:45:02Z</time>
      </trkpt>
      <trkpt lat="42.164200" lon="1.625823">
        <ele>1548.9</ele>
        <time>2014-07-17T16:45:15Z</time>
      </trkpt>
      <trkpt lat="42.164105" lon="1.625910">
        <ele>1548.4</ele>
        <time>2014-07-17T16:45:21Z</time>
      </trkpt>
      <trkpt lat="42.164043" lon="1.625981">
        <ele>1547.5</ele>
        <time>2014-07-17T16:45:33Z</time>
      </trkpt>
      <trkpt lat="42.164035" lon="1.626006">
        <ele>1547.4</ele>
        <time>2014-07-17T16:45:52Z</time>
      </trkpt>
      <trkpt lat="42.164037" lon="1.626014">
        <ele>1547.9</ele>
        <time>2014-07-17T16:46:02Z</time>
      </trkpt>
      <trkpt lat="42.163846" lon="1.626187">
        <ele>1546.5</ele>
        <time>2014-07-17T16:46:12Z</time>
      </trkpt>
      <trkpt lat="42.163815" lon="1.626222">
        <ele>1546.4</ele>
        <time>2014-07-17T16:46:14Z</time>
      </trkpt>
      <trkpt lat="42.163577" lon="1.626550">
        <ele>1545.0</ele>
        <time>2014-07-17T16:46:26Z</time>
      </trkpt>
      <trkpt lat="42.163149" lon="1.627193">
        <ele>1542.6</ele>
        <time>2014-07-17T16:46:40Z</time>
      </trkpt>
      <trkpt lat="42.162964" lon="1.627427">
        <ele>1544.6</ele>
        <time>2014-07-17T16:46:52Z</time>
      </trkpt>
      <trkpt lat="42.162785" lon="1.627718">
        <ele>1544.6</ele>
        <time>2014-07-17T16:47:04Z</time>
      </trkpt>
      <trkpt lat="42.162634" lon="1.628183">
        <ele>1543.1</ele>
        <time>2014-07-17T16:47:15Z</time>
      </trkpt>
      <trkpt lat="42.162773" lon="1.628461">
        <ele>1543.6</ele>
        <time>2014-07-17T16:47:26Z</time>
      </trkpt>
      <trkpt lat="42.163006" lon="1.628629">
        <ele>1545.9</ele>
        <time>2014-07-17T16:47:41Z</time>
      </trkpt>
      <trkpt lat="42.163229" lon="1.628811">
        <ele>1547.5</ele>
        <time>2014-07-17T16:47:53Z</time>
      </trkpt>
      <trkpt lat="42.163440" lon="1.628934">
        <ele>1548.9</ele>
        <time>2014-07-17T16:48:05Z</time>
      </trkpt>
      <trkpt lat="42.163625" lon="1.629014">
        <ele>1550.7</ele>
        <time>2014-07-17T16:48:16Z</time>
      </trkpt>
      <trkpt lat="42.163755" lon="1.629077">
        <ele>1551.7</ele>
        <time>2014-07-17T16:48:24Z</time>
      </trkpt>
      <trkpt lat="42.163987" lon="1.629084">
        <ele>1553.2</ele>
        <time>2014-07-17T16:48:38Z</time>
      </trkpt>
      <trkpt lat="42.164279" lon="1.629150">
        <ele>1554.2</ele>
        <time>2014-07-17T16:48:53Z</time>
      </trkpt>
      <trkpt lat="42.164468" lon="1.629348">
        <ele>1556.5</ele>
        <time>2014-07-17T16:49:09Z</time>
      </trkpt>
      <trkpt lat="42.164494" lon="1.629365">
        <ele>1557.0</ele>
        <time>2014-07-17T16:49:11Z</time>
      </trkpt>
      <trkpt lat="42.164604" lon="1.629479">
        <ele>1559.0</ele>
        <time>2014-07-17T16:49:22Z</time>
      </trkpt>
      <trkpt lat="42.164810" lon="1.629542">
        <ele>1561.8</ele>
        <time>2014-07-17T16:49:37Z</time>
      </trkpt>
      <trkpt lat="42.164823" lon="1.629543">
        <ele>1562.3</ele>
        <time>2014-07-17T16:49:38Z</time>
      </trkpt>
      <trkpt lat="42.164872" lon="1.629538">
        <ele>1563.3</ele>
        <time>2014-07-17T16:49:42Z</time>
      </trkpt>
      <trkpt lat="42.164925" lon="1.629555">
        <ele>1564.2</ele>
        <time>2014-07-17T16:49:46Z</time>
      </trkpt>
      <trkpt lat="42.165095" lon="1.629612">
        <ele>1566.1</ele>
        <time>2014-07-17T16:49:58Z</time>
      </trkpt>
      <trkpt lat="42.165336" lon="1.629706">
        <ele>1569.0</ele>
        <time>2014-07-17T16:50:14Z</time>
      </trkpt>
      <trkpt lat="42.165430" lon="1.629731">
        <ele>1570.0</ele>
        <time>2014-07-17T16:50:21Z</time>
      </trkpt>
      <trkpt lat="42.165483" lon="1.629753">
        <ele>1570.5</ele>
        <time>2014-07-17T16:50:26Z</time>
      </trkpt>
      <trkpt lat="42.165656" lon="1.629818">
        <ele>1572.9</ele>
        <time>2014-07-17T16:50:40Z</time>
      </trkpt>
      <trkpt lat="42.165694" lon="1.629842">
        <ele>1572.9</ele>
        <time>2014-07-17T16:50:43Z</time>
      </trkpt>
      <trkpt lat="42.165746" lon="1.629886">
        <ele>1573.9</ele>
        <time>2014-07-17T16:50:47Z</time>
      </trkpt>
      <trkpt lat="42.165775" lon="1.629912">
        <ele>1574.4</ele>
        <time>2014-07-17T16:50:49Z</time>
      </trkpt>
      <trkpt lat="42.165815" lon="1.629968">
        <ele>1575.4</ele>
        <time>2014-07-17T16:50:53Z</time>
      </trkpt>
      <trkpt lat="42.165959" lon="1.630136">
        <ele>1577.8</ele>
        <time>2014-07-17T16:51:06Z</time>
      </trkpt>
      <trkpt lat="42.166214" lon="1.630384">
        <ele>1579.7</ele>
        <time>2014-07-17T16:51:25Z</time>
      </trkpt>
      <trkpt lat="42.166228" lon="1.630419">
        <ele>1580.1</ele>
        <time>2014-07-17T16:51:27Z</time>
      </trkpt>
      <trkpt lat="42.166236" lon="1.630476">
        <ele>1580.5</ele>
        <time>2014-07-17T16:51:30Z</time>
      </trkpt>
      <trkpt lat="42.166389" lon="1.630561">
        <ele>1583.9</ele>
        <time>2014-07-17T16:51:44Z</time>
      </trkpt>
      <trkpt lat="42.166412" lon="1.630554">
        <ele>1584.5</ele>
        <time>2014-07-17T16:51:46Z</time>
      </trkpt>
      <trkpt lat="42.166471" lon="1.630558">
        <ele>1584.9</ele>
        <time>2014-07-17T16:51:50Z</time>
      </trkpt>
      <trkpt lat="42.166531" lon="1.630551">
        <ele>1586.4</ele>
        <time>2014-07-17T16:51:54Z</time>
      </trkpt>
      <trkpt lat="42.166646" lon="1.630569">
        <ele>1587.4</ele>
        <time>2014-07-17T16:52:03Z</time>
      </trkpt>
      <trkpt lat="42.166737" lon="1.630549">
        <ele>1589.2</ele>
        <time>2014-07-17T16:52:10Z</time>
      </trkpt>
      <trkpt lat="42.166904" lon="1.630514">
        <ele>1592.7</ele>
        <time>2014-07-17T16:52:23Z</time>
      </trkpt>
      <trkpt lat="42.166948" lon="1.630482">
        <ele>1593.5</ele>
        <time>2014-07-17T16:52:28Z</time>
      </trkpt>
      <trkpt lat="42.167074" lon="1.630372">
        <ele>1597.0</ele>
        <time>2014-07-17T16:52:40Z</time>
      </trkpt>
      <trkpt lat="42.167182" lon="1.630297">
        <ele>1600.3</ele>
        <time>2014-07-17T16:52:50Z</time>
      </trkpt>
      <trkpt lat="42.167190" lon="1.630291">
        <ele>1600.3</ele>
        <time>2014-07-17T16:52:51Z</time>
      </trkpt>
      <trkpt lat="42.167249" lon="1.630253">
        <ele>1602.2</ele>
        <time>2014-07-17T16:53:02Z</time>
      </trkpt>
      <trkpt lat="42.167260" lon="1.630250">
        <ele>1603.1</ele>
        <time>2014-07-17T16:53:17Z</time>
      </trkpt>
      <trkpt lat="42.167270" lon="1.630217">
        <ele>1603.7</ele>
        <time>2014-07-17T16:53:36Z</time>
      </trkpt>
      <trkpt lat="42.167288" lon="1.630187">
        <ele>1604.2</ele>
        <time>2014-07-17T16:53:39Z</time>
      </trkpt>
      <trkpt lat="42.167362" lon="1.630108">
        <ele>1606.0</ele>
        <time>2014-07-17T16:53:46Z</time>
      </trkpt>
      <trkpt lat="42.167389" lon="1.630072">
        <ele>1607.1</ele>
        <time>2014-07-17T16:53:49Z</time>
      </trkpt>
      <trkpt lat="42.167505" lon="1.629931">
        <ele>1610.5</ele>
        <time>2014-07-17T16:54:02Z</time>
      </trkpt>
      <trkpt lat="42.167530" lon="1.629909">
        <ele>1610.8</ele>
        <time>2014-07-17T16:54:05Z</time>
      </trkpt>
      <trkpt lat="42.167590" lon="1.629833">
        <ele>1611.9</ele>
        <time>2014-07-17T16:54:12Z</time>
      </trkpt>
      <trkpt lat="42.167682" lon="1.629647">
        <ele>1614.2</ele>
        <time>2014-07-17T16:54:25Z</time>
      </trkpt>
      <trkpt lat="42.167696" lon="1.629609">
        <ele>1614.7</ele>
        <time>2014-07-17T16:54:28Z</time>
      </trkpt>
      <trkpt lat="42.167765" lon="1.629516">
        <ele>1616.1</ele>
        <time>2014-07-17T16:54:35Z</time>
      </trkpt>
      <trkpt lat="42.167745" lon="1.629642">
        <ele>1616.7</ele>
        <time>2014-07-17T16:54:44Z</time>
      </trkpt>
      <trkpt lat="42.167711" lon="1.629720">
        <ele>1616.7</ele>
        <time>2014-07-17T16:54:47Z</time>
      </trkpt>
      <trkpt lat="42.167562" lon="1.630097">
        <ele>1616.7</ele>
        <time>2014-07-17T16:55:00Z</time>
      </trkpt>
      <trkpt lat="42.167531" lon="1.630230">
        <ele>1618.6</ele>
        <time>2014-07-17T16:55:07Z</time>
      </trkpt>
      <trkpt lat="42.167622" lon="1.630481">
        <ele>1617.7</ele>
        <time>2014-07-17T16:55:20Z</time>
      </trkpt>
      <trkpt lat="42.167656" lon="1.630502">
        <ele>1617.2</ele>
        <time>2014-07-17T16:55:22Z</time>
      </trkpt>
      <trkpt lat="42.167871" lon="1.630717">
        <ele>1614.2</ele>
        <time>2014-07-17T16:55:34Z</time>
      </trkpt>
      <trkpt lat="42.168013" lon="1.630888">
        <ele>1610.8</ele>
        <time>2014-07-17T16:55:44Z</time>
      </trkpt>
      <trkpt lat="42.168075" lon="1.630955">
        <ele>1609.9</ele>
        <time>2014-07-17T16:55:48Z</time>
      </trkpt>
      <trkpt lat="42.168134" lon="1.631031">
        <ele>1608.4</ele>
        <time>2014-07-17T16:55:52Z</time>
      </trkpt>
      <trkpt lat="42.168185" lon="1.631090">
        <ele>1607.5</ele>
        <time>2014-07-17T16:55:55Z</time>
      </trkpt>
      <trkpt lat="42.168379" lon="1.631237">
        <ele>1603.7</ele>
        <time>2014-07-17T16:56:05Z</time>
      </trkpt>
      <trkpt lat="42.168397" lon="1.631253">
        <ele>1603.6</ele>
        <time>2014-07-17T16:56:06Z</time>
      </trkpt>
      <trkpt lat="42.168419" lon="1.631262">
        <ele>1603.6</ele>
        <time>2014-07-17T16:56:07Z</time>
      </trkpt>
      <trkpt lat="42.168528" lon="1.631335">
        <ele>1602.2</ele>
        <time>2014-07-17T16:56:12Z</time>
      </trkpt>
      <trkpt lat="42.168577" lon="1.631423">
        <ele>1599.9</ele>
        <time>2014-07-17T16:56:17Z</time>
      </trkpt>
      <trkpt lat="42.168625" lon="1.631484">
        <ele>1597.9</ele>
        <time>2014-07-17T16:56:21Z</time>
      </trkpt>
      <trkpt lat="42.168723" lon="1.631615">
        <ele>1595.0</ele>
        <time>2014-07-17T16:56:30Z</time>
      </trkpt>
      <trkpt lat="42.168813" lon="1.631776">
        <ele>1591.6</ele>
        <time>2014-07-17T16:56:39Z</time>
      </trkpt>
      <trkpt lat="42.168938" lon="1.631925">
        <ele>1588.2</ele>
        <time>2014-07-17T16:56:48Z</time>
      </trkpt>
      <trkpt lat="42.168994" lon="1.631973">
        <ele>1586.8</ele>
        <time>2014-07-17T16:56:52Z</time>
      </trkpt>
      <trkpt lat="42.169110" lon="1.632086">
        <ele>1583.9</ele>
        <time>2014-07-17T16:57:00Z</time>
      </trkpt>
      <trkpt lat="42.169264" lon="1.632188">
        <ele>1581.1</ele>
        <time>2014-07-17T16:57:10Z</time>
      </trkpt>
      <trkpt lat="42.169334" lon="1.632223">
        <ele>1579.6</ele>
        <time>2014-07-17T16:57:14Z</time>
      </trkpt>
      <trkpt lat="42.169488" lon="1.632302">
        <ele>1576.3</ele>
        <time>2014-07-17T16:57:23Z</time>
      </trkpt>
      <trkpt lat="42.169539" lon="1.632324">
        <ele>1575.3</ele>
        <time>2014-07-17T16:57:26Z</time>
      </trkpt>
      <trkpt lat="42.169606" lon="1.632362">
        <ele>1573.8</ele>
        <time>2014-07-17T16:57:30Z</time>
      </trkpt>
      <trkpt lat="42.169709" lon="1.632378">
        <ele>1571.9</ele>
        <time>2014-07-17T16:57:36Z</time>
      </trkpt>
      <trkpt lat="42.169855" lon="1.632356">
        <ele>1569.6</ele>
        <time>2014-07-17T16:57:44Z</time>
      </trkpt>
      <trkpt lat="42.169839" lon="1.632489">
        <ele>1565.7</ele>
        <time>2014-07-17T16:57:53Z</time>
      </trkpt>
      <trkpt lat="42.169822" lon="1.632510">
        <ele>1565.2</ele>
        <time>2014-07-17T16:57:54Z</time>
      </trkpt>
      <trkpt lat="42.169772" lon="1.632556">
        <ele>1564.2</ele>
        <time>2014-07-17T16:57:57Z</time>
      </trkpt>
      <trkpt lat="42.169639" lon="1.632609">
        <ele>1560.8</ele>
        <time>2014-07-17T16:58:07Z</time>
      </trkpt>
      <trkpt lat="42.169569" lon="1.632641">
        <ele>1558.5</ele>
        <time>2014-07-17T16:58:12Z</time>
      </trkpt>
      <trkpt lat="42.169524" lon="1.632651">
        <ele>1557.1</ele>
        <time>2014-07-17T16:58:15Z</time>
      </trkpt>
      <trkpt lat="42.169483" lon="1.632660">
        <ele>1556.0</ele>
        <time>2014-07-17T16:58:18Z</time>
      </trkpt>
      <trkpt lat="42.169435" lon="1.632702">
        <ele>1554.6</ele>
        <time>2014-07-17T16:58:22Z</time>
      </trkpt>
      <trkpt lat="42.169404" lon="1.632732">
        <ele>1553.2</ele>
        <time>2014-07-17T16:58:25Z</time>
      </trkpt>
      <trkpt lat="42.169310" lon="1.632796">
        <ele>1549.9</ele>
        <time>2014-07-17T16:58:33Z</time>
      </trkpt>
      <trkpt lat="42.169207" lon="1.632842">
        <ele>1546.0</ele>
        <time>2014-07-17T16:58:40Z</time>
      </trkpt>
      <trkpt lat="42.169142" lon="1.632831">
        <ele>1544.6</ele>
        <time>2014-07-17T16:58:50Z</time>
      </trkpt>
      <trkpt lat="42.169121" lon="1.632832">
        <ele>1544.0</ele>
        <time>2014-07-17T16:58:52Z</time>
      </trkpt>
      <trkpt lat="42.169061" lon="1.632858">
        <ele>1542.1</ele>
        <time>2014-07-17T16:58:58Z</time>
      </trkpt>
      <trkpt lat="42.169016" lon="1.632882">
        <ele>1539.2</ele>
        <time>2014-07-17T16:59:02Z</time>
      </trkpt>
      <trkpt lat="42.168973" lon="1.632910">
        <ele>1538.4</ele>
        <time>2014-07-17T16:59:05Z</time>
      </trkpt>
      <trkpt lat="42.168893" lon="1.632964">
        <ele>1535.5</ele>
        <time>2014-07-17T16:59:11Z</time>
      </trkpt>
      <trkpt lat="42.168860" lon="1.633001">
        <ele>1534.9</ele>
        <time>2014-07-17T16:59:14Z</time>
      </trkpt>
      <trkpt lat="42.168793" lon="1.633048">
        <ele>1533.0</ele>
        <time>2014-07-17T16:59:24Z</time>
      </trkpt>
      <trkpt lat="42.168781" lon="1.633077">
        <ele>1533.1</ele>
        <time>2014-07-17T16:59:26Z</time>
      </trkpt>
      <trkpt lat="42.168749" lon="1.633112">
        <ele>1531.1</ele>
        <time>2014-07-17T16:59:29Z</time>
      </trkpt>
      <trkpt lat="42.168703" lon="1.633152">
        <ele>1529.1</ele>
        <time>2014-07-17T16:59:34Z</time>
      </trkpt>
      <trkpt lat="42.168670" lon="1.633200">
        <ele>1528.3</ele>
        <time>2014-07-17T16:59:37Z</time>
      </trkpt>
      <trkpt lat="42.168622" lon="1.633224">
        <ele>1526.7</ele>
        <time>2014-07-17T16:59:48Z</time>
      </trkpt>
      <trkpt lat="42.168519" lon="1.633265">
        <ele>1522.9</ele>
        <time>2014-07-17T16:59:55Z</time>
      </trkpt>
      <trkpt lat="42.168507" lon="1.633273">
        <ele>1522.4</ele>
        <time>2014-07-17T16:59:56Z</time>
      </trkpt>
      <trkpt lat="42.168375" lon="1.633245">
        <ele>1519.1</ele>
        <time>2014-07-17T17:00:04Z</time>
      </trkpt>
      <trkpt lat="42.168290" lon="1.633196">
        <ele>1517.7</ele>
        <time>2014-07-17T17:00:08Z</time>
      </trkpt>
      <trkpt lat="42.168185" lon="1.633218">
        <ele>1515.7</ele>
        <time>2014-07-17T17:00:12Z</time>
      </trkpt>
      <trkpt lat="42.168064" lon="1.633347">
        <ele>1512.3</ele>
        <time>2014-07-17T17:00:21Z</time>
      </trkpt>
      <trkpt lat="42.168224" lon="1.633437">
        <ele>1509.4</ele>
        <time>2014-07-17T17:00:30Z</time>
      </trkpt>
      <trkpt lat="42.168260" lon="1.633468">
        <ele>1508.0</ele>
        <time>2014-07-17T17:00:33Z</time>
      </trkpt>
      <trkpt lat="42.168341" lon="1.633659">
        <ele>1504.2</ele>
        <time>2014-07-17T17:00:41Z</time>
      </trkpt>
      <trkpt lat="42.168362" lon="1.633669">
        <ele>1504.1</ele>
        <time>2014-07-17T17:00:42Z</time>
      </trkpt>
      <trkpt lat="42.168417" lon="1.633701">
        <ele>1503.3</ele>
        <time>2014-07-17T17:00:44Z</time>
      </trkpt>
      <trkpt lat="42.168679" lon="1.633810">
        <ele>1499.8</ele>
        <time>2014-07-17T17:00:51Z</time>
      </trkpt>
      <trkpt lat="42.168724" lon="1.633829">
        <ele>1499.3</ele>
        <time>2014-07-17T17:00:52Z</time>
      </trkpt>
      <trkpt lat="42.169094" lon="1.634060">
        <ele>1496.0</ele>
        <time>2014-07-17T17:01:02Z</time>
      </trkpt>
      <trkpt lat="42.169214" lon="1.634121">
        <ele>1494.6</ele>
        <time>2014-07-17T17:01:06Z</time>
      </trkpt>
      <trkpt lat="42.169358" lon="1.634216">
        <ele>1492.7</ele>
        <time>2014-07-17T17:01:11Z</time>
      </trkpt>
      <trkpt lat="42.169309" lon="1.634384">
        <ele>1489.8</ele>
        <time>2014-07-17T17:01:16Z</time>
      </trkpt>
      <trkpt lat="42.169173" lon="1.634492">
        <ele>1487.8</ele>
        <time>2014-07-17T17:01:20Z</time>
      </trkpt>
      <trkpt lat="42.168966" lon="1.634648">
        <ele>1485.0</ele>
        <time>2014-07-17T17:01:26Z</time>
      </trkpt>
      <trkpt lat="42.168638" lon="1.634765">
        <ele>1481.2</ele>
        <time>2014-07-17T17:01:34Z</time>
      </trkpt>
      <trkpt lat="42.168605" lon="1.634762">
        <ele>1481.1</ele>
        <time>2014-07-17T17:01:35Z</time>
      </trkpt>
      <trkpt lat="42.168438" lon="1.634826">
        <ele>1479.1</ele>
        <time>2014-07-17T17:01:40Z</time>
      </trkpt>
      <trkpt lat="42.168329" lon="1.635064">
        <ele>1475.8</ele>
        <time>2014-07-17T17:01:46Z</time>
      </trkpt>
      <trkpt lat="42.168316" lon="1.635107">
        <ele>1475.8</ele>
        <time>2014-07-17T17:01:47Z</time>
      </trkpt>
      <trkpt lat="42.168251" lon="1.635252">
        <ele>1473.9</ele>
        <time>2014-07-17T17:01:51Z</time>
      </trkpt>
      <trkpt lat="42.167994" lon="1.635203">
        <ele>1471.4</ele>
        <time>2014-07-17T17:01:58Z</time>
      </trkpt>
      <trkpt lat="42.167742" lon="1.634978">
        <ele>1471.5</ele>
        <time>2014-07-17T17:02:07Z</time>
      </trkpt>
      <trkpt lat="42.167455" lon="1.634620">
        <ele>1471.1</ele>
        <time>2014-07-17T17:02:18Z</time>
      </trkpt>
      <trkpt lat="42.167148" lon="1.634212">
        <ele>1473.0</ele>
        <time>2014-07-17T17:02:32Z</time>
      </trkpt>
      <trkpt lat="42.166907" lon="1.633936">
        <ele>1472.9</ele>
        <time>2014-07-17T17:02:42Z</time>
      </trkpt>
      <trkpt lat="42.166619" lon="1.633753">
        <ele>1473.0</ele>
        <time>2014-07-17T17:02:53Z</time>
      </trkpt>
      <trkpt lat="42.166287" lon="1.633542">
        <ele>1472.4</ele>
        <time>2014-07-17T17:03:04Z</time>
      </trkpt>
      <trkpt lat="42.166058" lon="1.633489">
        <ele>1472.0</ele>
        <time>2014-07-17T17:03:11Z</time>
      </trkpt>
      <trkpt lat="42.165971" lon="1.633479">
        <ele>1471.4</ele>
        <time>2014-07-17T17:03:13Z</time>
      </trkpt>
      <trkpt lat="42.165718" lon="1.633329">
        <ele>1470.0</ele>
        <time>2014-07-17T17:03:19Z</time>
      </trkpt>
      <trkpt lat="42.165575" lon="1.633232">
        <ele>1469.1</ele>
        <time>2014-07-17T17:03:22Z</time>
      </trkpt>
      <trkpt lat="42.165384" lon="1.633059">
        <ele>1469.5</ele>
        <time>2014-07-17T17:03:27Z</time>
      </trkpt>
      <trkpt lat="42.165204" lon="1.632908">
        <ele>1468.7</ele>
        <time>2014-07-17T17:03:32Z</time>
      </trkpt>
      <trkpt lat="42.164950" lon="1.632793">
        <ele>1465.8</ele>
        <time>2014-07-17T17:03:36Z</time>
      </trkpt>
      <trkpt lat="42.164884" lon="1.632761">
        <ele>1465.8</ele>
        <time>2014-07-17T17:03:37Z</time>
      </trkpt>
      <trkpt lat="42.164585" lon="1.632640">
        <ele>1463.8</ele>
        <time>2014-07-17T17:03:42Z</time>
      </trkpt>
      <trkpt lat="42.164468" lon="1.632606">
        <ele>1462.8</ele>
        <time>2014-07-17T17:03:44Z</time>
      </trkpt>
      <trkpt lat="42.164321" lon="1.632653">
        <ele>1460.5</ele>
        <time>2014-07-17T17:03:46Z</time>
      </trkpt>
      <trkpt lat="42.164068" lon="1.632643">
        <ele>1456.1</ele>
        <time>2014-07-17T17:03:50Z</time>
      </trkpt>
      <trkpt lat="42.163995" lon="1.632638">
        <ele>1455.1</ele>
        <time>2014-07-17T17:03:51Z</time>
      </trkpt>
      <trkpt lat="42.163858" lon="1.632583">
        <ele>1453.7</ele>
        <time>2014-07-17T17:03:53Z</time>
      </trkpt>
      <trkpt lat="42.163599" lon="1.632565">
        <ele>1451.7</ele>
        <time>2014-07-17T17:03:57Z</time>
      </trkpt>
      <trkpt lat="42.163447" lon="1.632583">
        <ele>1449.9</ele>
        <time>2014-07-17T17:04:00Z</time>
      </trkpt>
      <trkpt lat="42.163345" lon="1.632605">
        <ele>1448.4</ele>
        <time>2014-07-17T17:04:02Z</time>
      </trkpt>
      <trkpt lat="42.163088" lon="1.632561">
        <ele>1447.5</ele>
        <time>2014-07-17T17:04:07Z</time>
      </trkpt>
      <trkpt lat="42.162864" lon="1.632525">
        <ele>1446.1</ele>
        <time>2014-07-17T17:04:12Z</time>
      </trkpt>
      <trkpt lat="42.162787" lon="1.632525">
        <ele>1444.0</ele>
        <time>2014-07-17T17:04:14Z</time>
      </trkpt>
      <trkpt lat="42.162665" lon="1.632572">
        <ele>1441.7</ele>
        <time>2014-07-17T17:04:17Z</time>
      </trkpt>
      <trkpt lat="42.162371" lon="1.632632">
        <ele>1437.9</ele>
        <time>2014-07-17T17:04:23Z</time>
      </trkpt>
      <trkpt lat="42.162217" lon="1.632633">
        <ele>1437.4</ele>
        <time>2014-07-17T17:04:26Z</time>
      </trkpt>
      <trkpt lat="42.162054" lon="1.632617">
        <ele>1435.9</ele>
        <time>2014-07-17T17:04:29Z</time>
      </trkpt>
      <trkpt lat="42.161952" lon="1.632616">
        <ele>1434.9</ele>
        <time>2014-07-17T17:04:31Z</time>
      </trkpt>
      <trkpt lat="42.161759" lon="1.632596">
        <ele>1433.1</ele>
        <time>2014-07-17T17:04:35Z</time>
      </trkpt>
      <trkpt lat="42.161632" lon="1.632521">
        <ele>1433.9</ele>
        <time>2014-07-17T17:04:39Z</time>
      </trkpt>
      <trkpt lat="42.161555" lon="1.632504">
        <ele>1434.0</ele>
        <time>2014-07-17T17:04:41Z</time>
      </trkpt>
      <trkpt lat="42.161252" lon="1.632429">
        <ele>1432.6</ele>
        <time>2014-07-17T17:04:48Z</time>
      </trkpt>
      <trkpt lat="42.161099" lon="1.632401">
        <ele>1431.5</ele>
        <time>2014-07-17T17:04:51Z</time>
      </trkpt>
      <trkpt lat="42.160985" lon="1.632369">
        <ele>1430.1</ele>
        <time>2014-07-17T17:04:53Z</time>
      </trkpt>
      <trkpt lat="42.160737" lon="1.632089">
        <ele>1430.7</ele>
        <time>2014-07-17T17:05:00Z</time>
      </trkpt>
      <trkpt lat="42.160534" lon="1.631986">
        <ele>1430.7</ele>
        <time>2014-07-17T17:05:05Z</time>
      </trkpt>
      <trkpt lat="42.160272" lon="1.631895">
        <ele>1428.7</ele>
        <time>2014-07-17T17:05:10Z</time>
      </trkpt>
      <trkpt lat="42.160006" lon="1.631809">
        <ele>1424.8</ele>
        <time>2014-07-17T17:05:15Z</time>
      </trkpt>
      <trkpt lat="42.159817" lon="1.631720">
        <ele>1423.4</ele>
        <time>2014-07-17T17:05:18Z</time>
      </trkpt>
      <trkpt lat="42.159696" lon="1.631640">
        <ele>1422.5</ele>
        <time>2014-07-17T17:05:20Z</time>
      </trkpt>
      <trkpt lat="42.159592" lon="1.631550">
        <ele>1421.6</ele>
        <time>2014-07-17T17:05:22Z</time>
      </trkpt>
      <trkpt lat="42.159390" lon="1.631405">
        <ele>1421.0</ele>
        <time>2014-07-17T17:05:26Z</time>
      </trkpt>
      <trkpt lat="42.159146" lon="1.631266">
        <ele>1419.5</ele>
        <time>2014-07-17T17:05:30Z</time>
      </trkpt>
      <trkpt lat="42.158978" lon="1.631176">
        <ele>1419.1</ele>
        <time>2014-07-17T17:05:33Z</time>
      </trkpt>
      <trkpt lat="42.158758" lon="1.630921">
        <ele>1422.4</ele>
        <time>2014-07-17T17:05:43Z</time>
      </trkpt>
      <trkpt lat="42.158709" lon="1.630864">
        <ele>1424.0</ele>
        <time>2014-07-17T17:05:46Z</time>
      </trkpt>
      <trkpt lat="42.158466" lon="1.630652">
        <ele>1425.8</ele>
        <time>2014-07-17T17:06:00Z</time>
      </trkpt>
      <trkpt lat="42.158348" lon="1.630548">
        <ele>1427.3</ele>
        <time>2014-07-17T17:06:08Z</time>
      </trkpt>
      <trkpt lat="42.158207" lon="1.630408">
        <ele>1431.1</ele>
        <time>2014-07-17T17:06:21Z</time>
      </trkpt>
      <trkpt lat="42.158090" lon="1.630269">
        <ele>1433.9</ele>
        <time>2014-07-17T17:06:34Z</time>
      </trkpt>
      <trkpt lat="42.158050" lon="1.630198">
        <ele>1435.0</ele>
        <time>2014-07-17T17:06:39Z</time>
      </trkpt>
      <trkpt lat="42.157982" lon="1.630096">
        <ele>1436.5</ele>
        <time>2014-07-17T17:06:47Z</time>
      </trkpt>
      <trkpt lat="42.157847" lon="1.629942">
        <ele>1438.8</ele>
        <time>2014-07-17T17:07:00Z</time>
      </trkpt>
      <trkpt lat="42.157691" lon="1.629786">
        <ele>1441.7</ele>
        <time>2014-07-17T17:07:14Z</time>
      </trkpt>
      <trkpt lat="42.157534" lon="1.629673">
        <ele>1444.5</ele>
        <time>2014-07-17T17:07:26Z</time>
      </trkpt>
      <trkpt lat="42.157274" lon="1.629657">
        <ele>1445.6</ele>
        <time>2014-07-17T17:07:39Z</time>
      </trkpt>
      <trkpt lat="42.157027" lon="1.629794">
        <ele>1447.0</ele>
        <time>2014-07-17T17:07:50Z</time>
      </trkpt>
      <trkpt lat="42.156949" lon="1.629750">
        <ele>1447.0</ele>
        <time>2014-07-17T17:07:54Z</time>
      </trkpt>
      <trkpt lat="42.156699" lon="1.629482">
        <ele>1449.3</ele>
        <time>2014-07-17T17:08:08Z</time>
      </trkpt>
      <trkpt lat="42.156510" lon="1.629331">
        <ele>1452.2</ele>
        <time>2014-07-17T17:08:20Z</time>
      </trkpt>
      <trkpt lat="42.156329" lon="1.629316">
        <ele>1455.1</ele>
        <time>2014-07-17T17:08:30Z</time>
      </trkpt>
      <trkpt lat="42.156126" lon="1.629396">
        <ele>1458.1</ele>
        <time>2014-07-17T17:08:41Z</time>
      </trkpt>
      <trkpt lat="42.155869" lon="1.629423">
        <ele>1461.0</ele>
        <time>2014-07-17T17:08:54Z</time>
      </trkpt>
      <trkpt lat="42.155589" lon="1.629423">
        <ele>1463.4</ele>
        <time>2014-07-17T17:09:08Z</time>
      </trkpt>
      <trkpt lat="42.155572" lon="1.629424">
        <ele>1463.8</ele>
        <time>2014-07-17T17:09:09Z</time>
      </trkpt>
      <trkpt lat="42.155339" lon="1.629394">
        <ele>1466.2</ele>
        <time>2014-07-17T17:09:21Z</time>
      </trkpt>
      <trkpt lat="42.155318" lon="1.629392">
        <ele>1466.2</ele>
        <time>2014-07-17T17:09:22Z</time>
      </trkpt>
      <trkpt lat="42.155065" lon="1.629314">
        <ele>1468.1</ele>
        <time>2014-07-17T17:09:35Z</time>
      </trkpt>
      <trkpt lat="42.154804" lon="1.629246">
        <ele>1470.1</ele>
        <time>2014-07-17T17:09:49Z</time>
      </trkpt>
      <trkpt lat="42.154542" lon="1.629180">
        <ele>1473.0</ele>
        <time>2014-07-17T17:10:03Z</time>
      </trkpt>
      <trkpt lat="42.154461" lon="1.629179">
        <ele>1473.4</ele>
        <time>2014-07-17T17:10:07Z</time>
      </trkpt>
      <trkpt lat="42.154171" lon="1.629146">
        <ele>1475.8</ele>
        <time>2014-07-17T17:10:22Z</time>
      </trkpt>
      <trkpt lat="42.153913" lon="1.629083">
        <ele>1477.3</ele>
        <time>2014-07-17T17:10:34Z</time>
      </trkpt>
      <trkpt lat="42.153651" lon="1.629037">
        <ele>1478.2</ele>
        <time>2014-07-17T17:10:46Z</time>
      </trkpt>
      <trkpt lat="42.153636" lon="1.629038">
        <ele>1478.3</ele>
        <time>2014-07-17T17:10:47Z</time>
      </trkpt>
      <trkpt lat="42.153344" lon="1.628927">
        <ele>1476.7</ele>
        <time>2014-07-17T17:10:58Z</time>
      </trkpt>
      <trkpt lat="42.153113" lon="1.628846">
        <ele>1475.4</ele>
        <time>2014-07-17T17:11:03Z</time>
      </trkpt>
      <trkpt lat="42.152927" lon="1.628866">
        <ele>1476.2</ele>
        <time>2014-07-17T17:11:08Z</time>
      </trkpt>
      <trkpt lat="42.152629" lon="1.628807">
        <ele>1473.9</ele>
        <time>2014-07-17T17:11:16Z</time>
      </trkpt>
      <trkpt lat="42.152384" lon="1.628644">
        <ele>1473.0</ele>
        <time>2014-07-17T17:11:21Z</time>
      </trkpt>
      <trkpt lat="42.152224" lon="1.628557">
        <ele>1472.4</ele>
        <time>2014-07-17T17:11:24Z</time>
      </trkpt>
      <trkpt lat="42.152017" lon="1.628391">
        <ele>1470.5</ele>
        <time>2014-07-17T17:11:30Z</time>
      </trkpt>
      <trkpt lat="42.151695" lon="1.628343">
        <ele>1466.2</ele>
        <time>2014-07-17T17:11:38Z</time>
      </trkpt>
      <trkpt lat="42.151386" lon="1.628260">
        <ele>1465.2</ele>
        <time>2014-07-17T17:11:44Z</time>
      </trkpt>
      <trkpt lat="42.151119" lon="1.628164">
        <ele>1464.3</ele>
        <time>2014-07-17T17:11:50Z</time>
      </trkpt>
      <trkpt lat="42.151030" lon="1.628209">
        <ele>1463.3</ele>
        <time>2014-07-17T17:11:52Z</time>
      </trkpt>
      <trkpt lat="42.150775" lon="1.628320">
        <ele>1461.0</ele>
        <time>2014-07-17T17:11:58Z</time>
      </trkpt>
      <trkpt lat="42.150646" lon="1.628683">
        <ele>1457.6</ele>
        <time>2014-07-17T17:12:06Z</time>
      </trkpt>
      <trkpt lat="42.150590" lon="1.628969">
        <ele>1456.5</ele>
        <time>2014-07-17T17:12:10Z</time>
      </trkpt>
      <trkpt lat="42.150664" lon="1.629567">
        <ele>1453.8</ele>
        <time>2014-07-17T17:12:17Z</time>
      </trkpt>
      <trkpt lat="42.150769" lon="1.630056">
        <ele>1450.3</ele>
        <time>2014-07-17T17:12:23Z</time>
      </trkpt>
      <trkpt lat="42.150800" lon="1.630275">
        <ele>1448.9</ele>
        <time>2014-07-17T17:12:25Z</time>
      </trkpt>
      <trkpt lat="42.150914" lon="1.630712">
        <ele>1445.5</ele>
        <time>2014-07-17T17:12:29Z</time>
      </trkpt>
      <trkpt lat="42.150958" lon="1.630884">
        <ele>1444.0</ele>
        <time>2014-07-17T17:12:31Z</time>
      </trkpt>
      <trkpt lat="42.150888" lon="1.631076">
        <ele>1440.2</ele>
        <time>2014-07-17T17:12:36Z</time>
      </trkpt>
      <trkpt lat="42.150822" lon="1.630990">
        <ele>1438.8</ele>
        <time>2014-07-17T17:12:38Z</time>
      </trkpt>
      <trkpt lat="42.150683" lon="1.630716">
        <ele>1437.4</ele>
        <time>2014-07-17T17:12:42Z</time>
      </trkpt>
      <trkpt lat="42.150321" lon="1.630222">
        <ele>1434.0</ele>
        <time>2014-07-17T17:12:49Z</time>
      </trkpt>
      <trkpt lat="42.150040" lon="1.629751">
        <ele>1432.0</ele>
        <time>2014-07-17T17:12:55Z</time>
      </trkpt>
      <trkpt lat="42.149790" lon="1.629288">
        <ele>1428.3</ele>
        <time>2014-07-17T17:13:01Z</time>
      </trkpt>
      <trkpt lat="42.149546" lon="1.629000">
        <ele>1425.4</ele>
        <time>2014-07-17T17:13:05Z</time>
      </trkpt>
      <trkpt lat="42.149186" lon="1.628501">
        <ele>1422.9</ele>
        <time>2014-07-17T17:13:11Z</time>
      </trkpt>
      <trkpt lat="42.148933" lon="1.628169">
        <ele>1420.5</ele>
        <time>2014-07-17T17:13:15Z</time>
      </trkpt>
      <trkpt lat="42.148655" lon="1.627891">
        <ele>1418.1</ele>
        <time>2014-07-17T17:13:19Z</time>
      </trkpt>
      <trkpt lat="42.148353" lon="1.627494">
        <ele>1414.7</ele>
        <time>2014-07-17T17:13:25Z</time>
      </trkpt>
      <trkpt lat="42.148163" lon="1.627589">
        <ele>1413.4</ele>
        <time>2014-07-17T17:13:32Z</time>
      </trkpt>
      <trkpt lat="42.148146" lon="1.627984">
        <ele>1413.3</ele>
        <time>2014-07-17T17:13:39Z</time>
      </trkpt>
      <trkpt lat="42.148153" lon="1.628107">
        <ele>1412.9</ele>
        <time>2014-07-17T17:13:41Z</time>
      </trkpt>
      <trkpt lat="42.148249" lon="1.628558">
        <ele>1412.4</ele>
        <time>2014-07-17T17:13:50Z</time>
      </trkpt>
      <trkpt lat="42.148356" lon="1.628893">
        <ele>1411.0</ele>
        <time>2014-07-17T17:13:56Z</time>
      </trkpt>
      <trkpt lat="42.148453" lon="1.629143">
        <ele>1409.1</ele>
        <time>2014-07-17T17:14:00Z</time>
      </trkpt>
      <trkpt lat="42.148560" lon="1.629482">
        <ele>1405.1</ele>
        <time>2014-07-17T17:14:05Z</time>
      </trkpt>
      <trkpt lat="42.148761" lon="1.629689">
        <ele>1402.3</ele>
        <time>2014-07-17T17:14:10Z</time>
      </trkpt>
      <trkpt lat="42.148891" lon="1.629824">
        <ele>1401.4</ele>
        <time>2014-07-17T17:14:13Z</time>
      </trkpt>
      <trkpt lat="42.149021" lon="1.630074">
        <ele>1400.8</ele>
        <time>2014-07-17T17:14:17Z</time>
      </trkpt>
      <trkpt lat="42.149147" lon="1.630452">
        <ele>1399.8</ele>
        <time>2014-07-17T17:14:22Z</time>
      </trkpt>
      <trkpt lat="42.149219" lon="1.630711">
        <ele>1399.0</ele>
        <time>2014-07-17T17:14:25Z</time>
      </trkpt>
      <trkpt lat="42.149279" lon="1.631130">
        <ele>1397.0</ele>
        <time>2014-07-17T17:14:29Z</time>
      </trkpt>
      <trkpt lat="42.149327" lon="1.631440">
        <ele>1393.7</ele>
        <time>2014-07-17T17:14:32Z</time>
      </trkpt>
      <trkpt lat="42.149292" lon="1.631704">
        <ele>1391.2</ele>
        <time>2014-07-17T17:14:35Z</time>
      </trkpt>
      <trkpt lat="42.149275" lon="1.632019">
        <ele>1386.9</ele>
        <time>2014-07-17T17:14:39Z</time>
      </trkpt>
      <trkpt lat="42.149313" lon="1.632176">
        <ele>1386.4</ele>
        <time>2014-07-17T17:14:41Z</time>
      </trkpt>
      <trkpt lat="42.149329" lon="1.632254">
        <ele>1386.4</ele>
        <time>2014-07-17T17:14:42Z</time>
      </trkpt>
      <trkpt lat="42.149383" lon="1.632495">
        <ele>1385.0</ele>
        <time>2014-07-17T17:14:45Z</time>
      </trkpt>
      <trkpt lat="42.149411" lon="1.632771">
        <ele>1383.5</ele>
        <time>2014-07-17T17:14:48Z</time>
      </trkpt>
      <trkpt lat="42.149588" lon="1.633103">
        <ele>1381.1</ele>
        <time>2014-07-17T17:14:53Z</time>
      </trkpt>
      <trkpt lat="42.149719" lon="1.633274">
        <ele>1376.8</ele>
        <time>2014-07-17T17:14:56Z</time>
      </trkpt>
      <trkpt lat="42.149682" lon="1.633432">
        <ele>1375.4</ele>
        <time>2014-07-17T17:14:59Z</time>
      </trkpt>
      <trkpt lat="42.149581" lon="1.633470">
        <ele>1375.8</ele>
        <time>2014-07-17T17:15:02Z</time>
      </trkpt>
      <trkpt lat="42.149405" lon="1.633900">
        <ele>1375.8</ele>
        <time>2014-07-17T17:15:13Z</time>
      </trkpt>
      <trkpt lat="42.149448" lon="1.634135">
        <ele>1375.8</ele>
        <time>2014-07-17T17:15:17Z</time>
      </trkpt>
      <trkpt lat="42.149751" lon="1.634843">
        <ele>1378.3</ele>
        <time>2014-07-17T17:15:31Z</time>
      </trkpt>
      <trkpt lat="42.149885" lon="1.635272">
        <ele>1381.2</ele>
        <time>2014-07-17T17:15:43Z</time>
      </trkpt>
      <trkpt lat="42.149995" lon="1.635774">
        <ele>1381.6</ele>
        <time>2014-07-17T17:15:55Z</time>
      </trkpt>
      <trkpt lat="42.150011" lon="1.636028">
        <ele>1379.2</ele>
        <time>2014-07-17T17:15:58Z</time>
      </trkpt>
      <trkpt lat="42.150068" lon="1.636337">
        <ele>1377.7</ele>
        <time>2014-07-17T17:16:01Z</time>
      </trkpt>
      <trkpt lat="42.150148" lon="1.636581">
        <ele>1375.3</ele>
        <time>2014-07-17T17:16:03Z</time>
      </trkpt>
      <trkpt lat="42.150421" lon="1.637734">
        <ele>1371.9</ele>
        <time>2014-07-17T17:16:13Z</time>
      </trkpt>
      <trkpt lat="42.150488" lon="1.638126">
        <ele>1369.6</ele>
        <time>2014-07-17T17:16:16Z</time>
      </trkpt>
      <trkpt lat="42.150507" lon="1.638394">
        <ele>1369.1</ele>
        <time>2014-07-17T17:16:18Z</time>
      </trkpt>
      <trkpt lat="42.150484" lon="1.638649">
        <ele>1368.6</ele>
        <time>2014-07-17T17:16:20Z</time>
      </trkpt>
      <trkpt lat="42.150486" lon="1.638903">
        <ele>1367.2</ele>
        <time>2014-07-17T17:16:22Z</time>
      </trkpt>
      <trkpt lat="42.150518" lon="1.639145">
        <ele>1367.1</ele>
        <time>2014-07-17T17:16:24Z</time>
      </trkpt>
      <trkpt lat="42.150664" lon="1.639449">
        <ele>1365.3</ele>
        <time>2014-07-17T17:16:27Z</time>
      </trkpt>
      <trkpt lat="42.151090" lon="1.640236">
        <ele>1361.5</ele>
        <time>2014-07-17T17:16:35Z</time>
      </trkpt>
      <trkpt lat="42.151200" lon="1.640440">
        <ele>1360.0</ele>
        <time>2014-07-17T17:16:37Z</time>
      </trkpt>
      <trkpt lat="42.151379" lon="1.640820">
        <ele>1360.5</ele>
        <time>2014-07-17T17:16:41Z</time>
      </trkpt>
      <trkpt lat="42.151421" lon="1.641018">
        <ele>1359.4</ele>
        <time>2014-07-17T17:16:43Z</time>
      </trkpt>
      <trkpt lat="42.151642" lon="1.641613">
        <ele>1355.1</ele>
        <time>2014-07-17T17:16:48Z</time>
      </trkpt>
      <trkpt lat="42.151695" lon="1.641717">
        <ele>1354.7</ele>
        <time>2014-07-17T17:16:49Z</time>
      </trkpt>
      <trkpt lat="42.151744" lon="1.642061">
        <ele>1355.2</ele>
        <time>2014-07-17T17:16:52Z</time>
      </trkpt>
      <trkpt lat="42.151999" lon="1.642805">
        <ele>1350.8</ele>
        <time>2014-07-17T17:16:59Z</time>
      </trkpt>
      <trkpt lat="42.152077" lon="1.642869">
        <ele>1350.9</ele>
        <time>2014-07-17T17:17:00Z</time>
      </trkpt>
      <trkpt lat="42.152189" lon="1.643104">
        <ele>1346.6</ele>
        <time>2014-07-17T17:17:02Z</time>
      </trkpt>
      <trkpt lat="42.152226" lon="1.643254">
        <ele>1344.6</ele>
        <time>2014-07-17T17:17:03Z</time>
      </trkpt>
      <trkpt lat="42.152406" lon="1.643754">
        <ele>1339.7</ele>
        <time>2014-07-17T17:17:07Z</time>
      </trkpt>
      <trkpt lat="42.152576" lon="1.644065">
        <ele>1336.4</ele>
        <time>2014-07-17T17:17:10Z</time>
      </trkpt>
      <trkpt lat="42.153013" lon="1.644661">
        <ele>1332.0</ele>
        <time>2014-07-17T17:17:16Z</time>
      </trkpt>
      <trkpt lat="42.153130" lon="1.644897">
        <ele>1331.1</ele>
        <time>2014-07-17T17:17:18Z</time>
      </trkpt>
      <trkpt lat="42.153278" lon="1.645508">
        <ele>1326.8</ele>
        <time>2014-07-17T17:17:22Z</time>
      </trkpt>
      <trkpt lat="42.153364" lon="1.645848">
        <ele>1324.0</ele>
        <time>2014-07-17T17:17:24Z</time>
      </trkpt>
      <trkpt lat="42.153400" lon="1.646699">
        <ele>1319.2</ele>
        <time>2014-07-17T17:17:29Z</time>
      </trkpt>
      <trkpt lat="42.153402" lon="1.646868">
        <ele>1319.2</ele>
        <time>2014-07-17T17:17:30Z</time>
      </trkpt>
      <trkpt lat="42.153391" lon="1.647370">
        <ele>1316.2</ele>
        <time>2014-07-17T17:17:33Z</time>
      </trkpt>
      <trkpt lat="42.153254" lon="1.648119">
        <ele>1313.4</ele>
        <time>2014-07-17T17:17:38Z</time>
      </trkpt>
      <trkpt lat="42.153131" lon="1.648880">
        <ele>1308.5</ele>
        <time>2014-07-17T17:17:43Z</time>
      </trkpt>
      <trkpt lat="42.153070" lon="1.649204">
        <ele>1305.2</ele>
        <time>2014-07-17T17:17:45Z</time>
      </trkpt>
      <trkpt lat="42.153046" lon="1.649358">
        <ele>1303.3</ele>
        <time>2014-07-17T17:17:46Z</time>
      </trkpt>
      <trkpt lat="42.153081" lon="1.649967">
        <ele>1297.5</ele>
        <time>2014-07-17T17:17:50Z</time>
      </trkpt>
      <trkpt lat="42.153148" lon="1.650297">
        <ele>1295.0</ele>
        <time>2014-07-17T17:17:52Z</time>
      </trkpt>
      <trkpt lat="42.153347" lon="1.651008">
        <ele>1288.3</ele>
        <time>2014-07-17T17:17:56Z</time>
      </trkpt>
      <trkpt lat="42.153464" lon="1.651540">
        <ele>1284.1</ele>
        <time>2014-07-17T17:17:59Z</time>
      </trkpt>
      <trkpt lat="42.153514" lon="1.651702">
        <ele>1283.6</ele>
        <time>2014-07-17T17:18:00Z</time>
      </trkpt>
      <trkpt lat="42.153785" lon="1.652163">
        <ele>1277.4</ele>
        <time>2014-07-17T17:18:04Z</time>
      </trkpt>
      <trkpt lat="42.153884" lon="1.652212">
        <ele>1275.8</ele>
        <time>2014-07-17T17:18:05Z</time>
      </trkpt>
      <trkpt lat="42.154109" lon="1.652293">
        <ele>1273.5</ele>
        <time>2014-07-17T17:18:07Z</time>
      </trkpt>
      <trkpt lat="42.154459" lon="1.652383">
        <ele>1271.5</ele>
        <time>2014-07-17T17:18:10Z</time>
      </trkpt>
      <trkpt lat="42.154821" lon="1.652311">
        <ele>1271.6</ele>
        <time>2014-07-17T17:18:14Z</time>
      </trkpt>
      <trkpt lat="42.154964" lon="1.652171">
        <ele>1272.1</ele>
        <time>2014-07-17T17:18:16Z</time>
      </trkpt>
      <trkpt lat="42.155265" lon="1.651764">
        <ele>1269.7</ele>
        <time>2014-07-17T17:18:21Z</time>
      </trkpt>
      <trkpt lat="42.155419" lon="1.651433">
        <ele>1267.2</ele>
        <time>2014-07-17T17:18:24Z</time>
      </trkpt>
      <trkpt lat="42.155758" lon="1.651043">
        <ele>1263.3</ele>
        <time>2014-07-17T17:18:28Z</time>
      </trkpt>
      <trkpt lat="42.156081" lon="1.650673">
        <ele>1259.5</ele>
        <time>2014-07-17T17:18:33Z</time>
      </trkpt>
      <trkpt lat="42.156137" lon="1.650903">
        <ele>1256.2</ele>
        <time>2014-07-17T17:18:36Z</time>
      </trkpt>
      <trkpt lat="42.156080" lon="1.651126">
        <ele>1254.7</ele>
        <time>2014-07-17T17:18:38Z</time>
      </trkpt>
      <trkpt lat="42.155981" lon="1.651560">
        <ele>1250.4</ele>
        <time>2014-07-17T17:18:41Z</time>
      </trkpt>
      <trkpt lat="42.155963" lon="1.651734">
        <ele>1246.6</ele>
        <time>2014-07-17T17:18:42Z</time>
      </trkpt>
      <trkpt lat="42.155788" lon="1.652127">
        <ele>1242.7</ele>
        <time>2014-07-17T17:18:46Z</time>
      </trkpt>
      <trkpt lat="42.155525" lon="1.652562">
        <ele>1241.3</ele>
        <time>2014-07-17T17:18:52Z</time>
      </trkpt>
      <trkpt lat="42.155492" lon="1.652826">
        <ele>1239.4</ele>
        <time>2014-07-17T17:18:54Z</time>
      </trkpt>
      <trkpt lat="42.155339" lon="1.653299">
        <ele>1235.9</ele>
        <time>2014-07-17T17:18:58Z</time>
      </trkpt>
      <trkpt lat="42.155194" lon="1.653506">
        <ele>1231.6</ele>
        <time>2014-07-17T17:19:00Z</time>
      </trkpt>
      <trkpt lat="42.155006" lon="1.653568">
        <ele>1229.2</ele>
        <time>2014-07-17T17:19:02Z</time>
      </trkpt>
      <trkpt lat="42.154686" lon="1.653970">
        <ele>1225.0</ele>
        <time>2014-07-17T17:19:06Z</time>
      </trkpt>
      <trkpt lat="42.154526" lon="1.654180">
        <ele>1223.9</ele>
        <time>2014-07-17T17:19:08Z</time>
      </trkpt>
      <trkpt lat="42.154434" lon="1.654279">
        <ele>1223.4</ele>
        <time>2014-07-17T17:19:09Z</time>
      </trkpt>
      <trkpt lat="42.153940" lon="1.654524">
        <ele>1217.7</ele>
        <time>2014-07-17T17:19:14Z</time>
      </trkpt>
      <trkpt lat="42.153538" lon="1.654373">
        <ele>1215.3</ele>
        <time>2014-07-17T17:19:18Z</time>
      </trkpt>
      <trkpt lat="42.152995" lon="1.653787">
        <ele>1212.9</ele>
        <time>2014-07-17T17:19:25Z</time>
      </trkpt>
      <trkpt lat="42.152811" lon="1.653500">
        <ele>1210.9</ele>
        <time>2014-07-17T17:19:28Z</time>
      </trkpt>
      <trkpt lat="42.152316" lon="1.652665">
        <ele>1210.9</ele>
        <time>2014-07-17T17:19:38Z</time>
      </trkpt>
      <trkpt lat="42.152102" lon="1.652294">
        <ele>1209.6</ele>
        <time>2014-07-17T17:19:42Z</time>
      </trkpt>
      <trkpt lat="42.151942" lon="1.652406">
        <ele>1206.1</ele>
        <time>2014-07-17T17:19:46Z</time>
      </trkpt>
      <trkpt lat="42.152006" lon="1.652909">
        <ele>1202.8</ele>
        <time>2014-07-17T17:19:50Z</time>
      </trkpt>
      <trkpt lat="42.151951" lon="1.653296">
        <ele>1200.4</ele>
        <time>2014-07-17T17:19:53Z</time>
      </trkpt>
      <trkpt lat="42.152048" lon="1.653713">
        <ele>1193.1</ele>
        <time>2014-07-17T17:19:58Z</time>
      </trkpt>
      <trkpt lat="42.152129" lon="1.653774">
        <ele>1192.2</ele>
        <time>2014-07-17T17:19:59Z</time>
      </trkpt>
      <trkpt lat="42.152428" lon="1.654266">
        <ele>1186.5</ele>
        <time>2014-07-17T17:20:04Z</time>
      </trkpt>
      <trkpt lat="42.152526" lon="1.654612">
        <ele>1182.7</ele>
        <time>2014-07-17T17:20:07Z</time>
      </trkpt>
      <trkpt lat="42.152546" lon="1.654755">
        <ele>1178.8</ele>
        <time>2014-07-17T17:20:10Z</time>
      </trkpt>
      <trkpt lat="42.152451" lon="1.654632">
        <ele>1177.9</ele>
        <time>2014-07-17T17:20:12Z</time>
      </trkpt>
      <trkpt lat="42.152242" lon="1.654357">
        <ele>1176.8</ele>
        <time>2014-07-17T17:20:15Z</time>
      </trkpt>
      <trkpt lat="42.151909" lon="1.654205">
        <ele>1177.9</ele>
        <time>2014-07-17T17:20:20Z</time>
      </trkpt>
      <trkpt lat="42.151433" lon="1.654018">
        <ele>1174.9</ele>
        <time>2014-07-17T17:20:27Z</time>
      </trkpt>
      <trkpt lat="42.151246" lon="1.654071">
        <ele>1171.0</ele>
        <time>2014-07-17T17:20:31Z</time>
      </trkpt>
      <trkpt lat="42.151451" lon="1.654448">
        <ele>1167.3</ele>
        <time>2014-07-17T17:20:35Z</time>
      </trkpt>
      <trkpt lat="42.151710" lon="1.654788">
        <ele>1161.9</ele>
        <time>2014-07-17T17:20:38Z</time>
      </trkpt>
      <trkpt lat="42.151829" lon="1.655336">
        <ele>1157.6</ele>
        <time>2014-07-17T17:20:42Z</time>
      </trkpt>
      <trkpt lat="42.152085" lon="1.655614">
        <ele>1154.7</ele>
        <time>2014-07-17T17:20:45Z</time>
      </trkpt>
      <trkpt lat="42.152368" lon="1.655793">
        <ele>1152.3</ele>
        <time>2014-07-17T17:20:48Z</time>
      </trkpt>
      <trkpt lat="42.152881" lon="1.656004">
        <ele>1147.1</ele>
        <time>2014-07-17T17:20:53Z</time>
      </trkpt>
      <trkpt lat="42.153106" lon="1.656181">
        <ele>1143.6</ele>
        <time>2014-07-17T17:20:56Z</time>
      </trkpt>
      <trkpt lat="42.153146" lon="1.656226">
        <ele>1142.8</ele>
        <time>2014-07-17T17:20:57Z</time>
      </trkpt>
      <trkpt lat="42.153227" lon="1.656301">
        <ele>1140.3</ele>
        <time>2014-07-17T17:20:59Z</time>
      </trkpt>
      <trkpt lat="42.153274" lon="1.656329">
        <ele>1138.3</ele>
        <time>2014-07-17T17:21:00Z</time>
      </trkpt>
      <trkpt lat="42.153351" lon="1.656408">
        <ele>1135.9</ele>
        <time>2014-07-17T17:21:01Z</time>
      </trkpt>
      <trkpt lat="42.153357" lon="1.656534">
        <ele>1134.6</ele>
        <time>2014-07-17T17:21:04Z</time>
      </trkpt>
      <trkpt lat="42.153370" lon="1.656575">
        <ele>1133.6</ele>
        <time>2014-07-17T17:21:05Z</time>
      </trkpt>
      <trkpt lat="42.153385" lon="1.656605">
        <ele>1132.2</ele>
        <time>2014-07-17T17:21:06Z</time>
      </trkpt>
      <trkpt lat="42.153399" lon="1.656627">
        <ele>1130.7</ele>
        <time>2014-07-17T17:21:07Z</time>
      </trkpt>
      <trkpt lat="42.151596" lon="1.656337">
        <ele>1129.3</ele>
        <time>2014-07-17T17:21:08Z</time>
      </trkpt>
      <trkpt lat="42.151246" lon="1.656457">
        <ele>1125.9</ele>
        <time>2014-07-17T17:21:11Z</time>
      </trkpt>
      <trkpt lat="42.151139" lon="1.656498">
        <ele>1124.5</ele>
        <time>2014-07-17T17:21:12Z</time>
      </trkpt>
      <trkpt lat="42.150873" lon="1.656462">
        <ele>1121.6</ele>
        <time>2014-07-17T17:21:15Z</time>
      </trkpt>
      <trkpt lat="42.150680" lon="1.656386">
        <ele>1117.8</ele>
        <time>2014-07-17T17:21:17Z</time>
      </trkpt>
      <trkpt lat="42.150186" lon="1.656393">
        <ele>1117.2</ele>
        <time>2014-07-17T17:21:22Z</time>
      </trkpt>
      <trkpt lat="42.150045" lon="1.656646">
        <ele>1117.7</ele>
        <time>2014-07-17T17:21:25Z</time>
      </trkpt>
      <trkpt lat="42.149812" lon="1.657201">
        <ele>1115.4</ele>
        <time>2014-07-17T17:21:30Z</time>
      </trkpt>
      <trkpt lat="42.149625" lon="1.657557">
        <ele>1113.0</ele>
        <time>2014-07-17T17:21:33Z</time>
      </trkpt>
      <trkpt lat="42.149297" lon="1.658482">
        <ele>1108.6</ele>
        <time>2014-07-17T17:21:40Z</time>
      </trkpt>
      <trkpt lat="42.149182" lon="1.658756">
        <ele>1106.1</ele>
        <time>2014-07-17T17:21:42Z</time>
      </trkpt>
      <trkpt lat="42.149021" lon="1.659548">
        <ele>1100.5</ele>
        <time>2014-07-17T17:21:47Z</time>
      </trkpt>
      <trkpt lat="42.148970" lon="1.659921">
        <ele>1097.0</ele>
        <time>2014-07-17T17:21:49Z</time>
      </trkpt>
      <trkpt lat="42.148743" lon="1.660632">
        <ele>1092.3</ele>
        <time>2014-07-17T17:21:53Z</time>
      </trkpt>
      <trkpt lat="42.148552" lon="1.661323">
        <ele>1087.0</ele>
        <time>2014-07-17T17:21:57Z</time>
      </trkpt>
      <trkpt lat="42.148294" lon="1.661941">
        <ele>1083.6</ele>
        <time>2014-07-17T17:22:01Z</time>
      </trkpt>
      <trkpt lat="42.147843" lon="1.662377">
        <ele>1079.7</ele>
        <time>2014-07-17T17:22:06Z</time>
      </trkpt>
      <trkpt lat="42.147684" lon="1.662614">
        <ele>1078.3</ele>
        <time>2014-07-17T17:22:09Z</time>
      </trkpt>
      <trkpt lat="42.147577" lon="1.663346">
        <ele>1074.4</ele>
        <time>2014-07-17T17:22:15Z</time>
      </trkpt>
      <trkpt lat="42.147511" lon="1.663779">
        <ele>1071.2</ele>
        <time>2014-07-17T17:22:18Z</time>
      </trkpt>
      <trkpt lat="42.147418" lon="1.664134">
        <ele>1068.2</ele>
        <time>2014-07-17T17:22:20Z</time>
      </trkpt>
      <trkpt lat="42.147123" lon="1.664611">
        <ele>1064.9</ele>
        <time>2014-07-17T17:22:24Z</time>
      </trkpt>
      <trkpt lat="42.147018" lon="1.664731">
        <ele>1062.5</ele>
        <time>2014-07-17T17:22:25Z</time>
      </trkpt>
      <trkpt lat="42.146808" lon="1.664824">
        <ele>1061.0</ele>
        <time>2014-07-17T17:22:27Z</time>
      </trkpt>
      <trkpt lat="42.146515" lon="1.665121">
        <ele>1058.2</ele>
        <time>2014-07-17T17:22:31Z</time>
      </trkpt>
      <trkpt lat="42.146421" lon="1.665691">
        <ele>1053.8</ele>
        <time>2014-07-17T17:22:35Z</time>
      </trkpt>
      <trkpt lat="42.146417" lon="1.665861">
        <ele>1052.8</ele>
        <time>2014-07-17T17:22:36Z</time>
      </trkpt>
      <trkpt lat="42.146255" lon="1.666467">
        <ele>1048.0</ele>
        <time>2014-07-17T17:22:40Z</time>
      </trkpt>
      <trkpt lat="42.146217" lon="1.666806">
        <ele>1045.1</ele>
        <time>2014-07-17T17:22:42Z</time>
      </trkpt>
      <trkpt lat="42.146134" lon="1.667505">
        <ele>1040.3</ele>
        <time>2014-07-17T17:22:46Z</time>
      </trkpt>
      <trkpt lat="42.146098" lon="1.667669">
        <ele>1038.9</ele>
        <time>2014-07-17T17:22:47Z</time>
      </trkpt>
      <trkpt lat="42.146035" lon="1.668328">
        <ele>1032.6</ele>
        <time>2014-07-17T17:22:51Z</time>
      </trkpt>
      <trkpt lat="42.145991" lon="1.668466">
        <ele>1031.6</ele>
        <time>2014-07-17T17:22:52Z</time>
      </trkpt>
      <trkpt lat="42.145676" lon="1.669179">
        <ele>1026.3</ele>
        <time>2014-07-17T17:22:58Z</time>
      </trkpt>
      <trkpt lat="42.145683" lon="1.669343">
        <ele>1025.9</ele>
        <time>2014-07-17T17:22:59Z</time>
      </trkpt>
      <trkpt lat="42.145727" lon="1.669895">
        <ele>1021.2</ele>
        <time>2014-07-17T17:23:02Z</time>
      </trkpt>
      <trkpt lat="42.145737" lon="1.670074">
        <ele>1019.2</ele>
        <time>2014-07-17T17:23:03Z</time>
      </trkpt>
      <trkpt lat="42.145572" lon="1.670693">
        <ele>1014.9</ele>
        <time>2014-07-17T17:23:07Z</time>
      </trkpt>
      <trkpt lat="42.145447" lon="1.671012">
        <ele>1011.9</ele>
        <time>2014-07-17T17:23:09Z</time>
      </trkpt>
      <trkpt lat="42.145418" lon="1.671179">
        <ele>1011.0</ele>
        <time>2014-07-17T17:23:10Z</time>
      </trkpt>
      <trkpt lat="42.145290" lon="1.671881">
        <ele>1005.3</ele>
        <time>2014-07-17T17:23:15Z</time>
      </trkpt>
      <trkpt lat="42.145157" lon="1.672316">
        <ele>1001.9</ele>
        <time>2014-07-17T17:23:18Z</time>
      </trkpt>
      <trkpt lat="42.145055" lon="1.672868">
        <ele>996.1</ele>
        <time>2014-07-17T17:23:22Z</time>
      </trkpt>
      <trkpt lat="42.144929" lon="1.672849">
        <ele>992.7</ele>
        <time>2014-07-17T17:23:26Z</time>
      </trkpt>
      <trkpt lat="42.144986" lon="1.672502">
        <ele>987.4</ele>
        <time>2014-07-17T17:23:29Z</time>
      </trkpt>
      <trkpt lat="42.144999" lon="1.672359">
        <ele>987.4</ele>
        <time>2014-07-17T17:23:30Z</time>
      </trkpt>
      <trkpt lat="42.145084" lon="1.671766">
        <ele>984.1</ele>
        <time>2014-07-17T17:23:34Z</time>
      </trkpt>
      <trkpt lat="42.145067" lon="1.671175">
        <ele>981.3</ele>
        <time>2014-07-17T17:23:38Z</time>
      </trkpt>
      <trkpt lat="42.145011" lon="1.670734">
        <ele>978.8</ele>
        <time>2014-07-17T17:23:41Z</time>
      </trkpt>
      <trkpt lat="42.144780" lon="1.670447">
        <ele>974.4</ele>
        <time>2014-07-17T17:23:45Z</time>
      </trkpt>
      <trkpt lat="42.144689" lon="1.670751">
        <ele>972.0</ele>
        <time>2014-07-17T17:23:49Z</time>
      </trkpt>
      <trkpt lat="42.144685" lon="1.670878">
        <ele>971.6</ele>
        <time>2014-07-17T17:23:50Z</time>
      </trkpt>
      <trkpt lat="42.144563" lon="1.671506">
        <ele>971.2</ele>
        <time>2014-07-17T17:23:56Z</time>
      </trkpt>
      <trkpt lat="42.144278" lon="1.672090">
        <ele>970.2</ele>
        <time>2014-07-17T17:24:03Z</time>
      </trkpt>
      <trkpt lat="42.144072" lon="1.672686">
        <ele>968.3</ele>
        <time>2014-07-17T17:24:10Z</time>
      </trkpt>
      <trkpt lat="42.143784" lon="1.673179">
        <ele>964.3</ele>
        <time>2014-07-17T17:24:15Z</time>
      </trkpt>
      <trkpt lat="42.143689" lon="1.673440">
        <ele>962.9</ele>
        <time>2014-07-17T17:24:17Z</time>
      </trkpt>
      <trkpt lat="42.143528" lon="1.674211">
        <ele>957.7</ele>
        <time>2014-07-17T17:24:22Z</time>
      </trkpt>
      <trkpt lat="42.143474" lon="1.674551">
        <ele>953.3</ele>
        <time>2014-07-17T17:24:24Z</time>
      </trkpt>
      <trkpt lat="42.143280" lon="1.675078">
        <ele>949.1</ele>
        <time>2014-07-17T17:24:28Z</time>
      </trkpt>
      <trkpt lat="42.143056" lon="1.675429">
        <ele>942.7</ele>
        <time>2014-07-17T17:24:31Z</time>
      </trkpt>
      <trkpt lat="42.142854" lon="1.675517">
        <ele>937.4</ele>
        <time>2014-07-17T17:24:34Z</time>
      </trkpt>
      <trkpt lat="42.142790" lon="1.675369">
        <ele>933.2</ele>
        <time>2014-07-17T17:24:36Z</time>
      </trkpt>
      <trkpt lat="42.142754" lon="1.675156">
        <ele>930.7</ele>
        <time>2014-07-17T17:24:38Z</time>
      </trkpt>
      <trkpt lat="42.142535" lon="1.674691">
        <ele>927.4</ele>
        <time>2014-07-17T17:24:42Z</time>
      </trkpt>
      <trkpt lat="42.142200" lon="1.674017">
        <ele>924.5</ele>
        <time>2014-07-17T17:24:48Z</time>
      </trkpt>
      <trkpt lat="42.142155" lon="1.673938">
        <ele>924.6</ele>
        <time>2014-07-17T17:24:49Z</time>
      </trkpt>
      <trkpt lat="42.142007" lon="1.673703">
        <ele>922.1</ele>
        <time>2014-07-17T17:24:51Z</time>
      </trkpt>
      <trkpt lat="42.141713" lon="1.673363">
        <ele>916.9</ele>
        <time>2014-07-17T17:24:54Z</time>
      </trkpt>
      <trkpt lat="42.141207" lon="1.672812">
        <ele>912.4</ele>
        <time>2014-07-17T17:25:00Z</time>
      </trkpt>
      <trkpt lat="42.141118" lon="1.672335">
        <ele>911.0</ele>
        <time>2014-07-17T17:25:04Z</time>
      </trkpt>
      <trkpt lat="42.140973" lon="1.671844">
        <ele>910.5</ele>
        <time>2014-07-17T17:25:09Z</time>
      </trkpt>
      <trkpt lat="42.140880" lon="1.671672">
        <ele>910.0</ele>
        <time>2014-07-17T17:25:11Z</time>
      </trkpt>
      <trkpt lat="42.140529" lon="1.671227">
        <ele>909.5</ele>
        <time>2014-07-17T17:25:17Z</time>
      </trkpt>
      <trkpt lat="42.140407" lon="1.671043">
        <ele>907.6</ele>
        <time>2014-07-17T17:25:19Z</time>
      </trkpt>
      <trkpt lat="42.139800" lon="1.670755">
        <ele>904.8</ele>
        <time>2014-07-17T17:25:26Z</time>
      </trkpt>
      <trkpt lat="42.138989" lon="1.670672">
        <ele>901.9</ele>
        <time>2014-07-17T17:25:35Z</time>
      </trkpt>
      <trkpt lat="42.138616" lon="1.670725">
        <ele>899.9</ele>
        <time>2014-07-17T17:25:39Z</time>
      </trkpt>
      <trkpt lat="42.138234" lon="1.670660">
        <ele>898.1</ele>
        <time>2014-07-17T17:25:43Z</time>
      </trkpt>
      <trkpt lat="42.138048" lon="1.670584">
        <ele>897.1</ele>
        <time>2014-07-17T17:25:45Z</time>
      </trkpt>
      <trkpt lat="42.137598" lon="1.670371">
        <ele>895.7</ele>
        <time>2014-07-17T17:25:50Z</time>
      </trkpt>
      <trkpt lat="42.137222" lon="1.670440">
        <ele>893.8</ele>
        <time>2014-07-17T17:25:54Z</time>
      </trkpt>
      <trkpt lat="42.136979" lon="1.670910">
        <ele>893.2</ele>
        <time>2014-07-17T17:25:59Z</time>
      </trkpt>
      <trkpt lat="42.136915" lon="1.671376">
        <ele>892.7</ele>
        <time>2014-07-17T17:26:03Z</time>
      </trkpt>
      <trkpt lat="42.136591" lon="1.671752">
        <ele>892.2</ele>
        <time>2014-07-17T17:26:10Z</time>
      </trkpt>
      <trkpt lat="42.136429" lon="1.671456">
        <ele>891.9</ele>
        <time>2014-07-17T17:26:14Z</time>
      </trkpt>
      <trkpt lat="42.136035" lon="1.670453">
        <ele>888.5</ele>
        <time>2014-07-17T17:26:25Z</time>
      </trkpt>
      <trkpt lat="42.135556" lon="1.669546">
        <ele>886.0</ele>
        <time>2014-07-17T17:26:35Z</time>
      </trkpt>
      <trkpt lat="42.135166" lon="1.669180">
        <ele>883.6</ele>
        <time>2014-07-17T17:26:41Z</time>
      </trkpt>
      <trkpt lat="42.134904" lon="1.668879">
        <ele>881.3</ele>
        <time>2014-07-17T17:26:45Z</time>
      </trkpt>
      <trkpt lat="42.134795" lon="1.668675">
        <ele>879.8</ele>
        <time>2014-07-17T17:26:47Z</time>
      </trkpt>
      <trkpt lat="42.134665" lon="1.668489">
        <ele>878.8</ele>
        <time>2014-07-17T17:26:49Z</time>
      </trkpt>
      <trkpt lat="42.134328" lon="1.668324">
        <ele>877.9</ele>
        <time>2014-07-17T17:26:53Z</time>
      </trkpt>
      <trkpt lat="42.134014" lon="1.668352">
        <ele>878.3</ele>
        <time>2014-07-17T17:26:57Z</time>
      </trkpt>
      <trkpt lat="42.133521" lon="1.668071">
        <ele>879.3</ele>
        <time>2014-07-17T17:27:05Z</time>
      </trkpt>
      <trkpt lat="42.133215" lon="1.667530">
        <ele>879.3</ele>
        <time>2014-07-17T17:27:13Z</time>
      </trkpt>
      <trkpt lat="42.132586" lon="1.666813">
        <ele>877.0</ele>
        <time>2014-07-17T17:27:25Z</time>
      </trkpt>
      <trkpt lat="42.132448" lon="1.666558">
        <ele>875.5</ele>
        <time>2014-07-17T17:27:28Z</time>
      </trkpt>
      <trkpt lat="42.132107" lon="1.665975">
        <ele>875.4</ele>
        <time>2014-07-17T17:27:36Z</time>
      </trkpt>
      <trkpt lat="42.131833" lon="1.665704">
        <ele>874.9</ele>
        <time>2014-07-17T17:27:41Z</time>
      </trkpt>
      <trkpt lat="42.131575" lon="1.665529">
        <ele>874.1</ele>
        <time>2014-07-17T17:27:45Z</time>
      </trkpt>
      <trkpt lat="42.130737" lon="1.665195">
        <ele>870.6</ele>
        <time>2014-07-17T17:27:56Z</time>
      </trkpt>
      <trkpt lat="42.130494" lon="1.665115">
        <ele>869.7</ele>
        <time>2014-07-17T17:27:59Z</time>
      </trkpt>
      <trkpt lat="42.130416" lon="1.665104">
        <ele>869.2</ele>
        <time>2014-07-17T17:28:00Z</time>
      </trkpt>
      <trkpt lat="42.130340" lon="1.665100">
        <ele>868.7</ele>
        <time>2014-07-17T17:28:01Z</time>
      </trkpt>
      <trkpt lat="42.129599" lon="1.665083">
        <ele>867.7</ele>
        <time>2014-07-17T17:28:12Z</time>
      </trkpt>
      <trkpt lat="42.129502" lon="1.665080">
        <ele>867.8</ele>
        <time>2014-07-17T17:28:14Z</time>
      </trkpt>
      <trkpt lat="42.129454" lon="1.665086">
        <ele>867.8</ele>
        <time>2014-07-17T17:28:15Z</time>
      </trkpt>
      <trkpt lat="42.129406" lon="1.665101">
        <ele>868.3</ele>
        <time>2014-07-17T17:28:16Z</time>
      </trkpt>
      <trkpt lat="42.129357" lon="1.665117">
        <ele>868.2</ele>
        <time>2014-07-17T17:28:17Z</time>
      </trkpt>
      <trkpt lat="42.129309" lon="1.665124">
        <ele>868.3</ele>
        <time>2014-07-17T17:28:18Z</time>
      </trkpt>
      <trkpt lat="42.129260" lon="1.665126">
        <ele>868.7</ele>
        <time>2014-07-17T17:28:19Z</time>
      </trkpt>
      <trkpt lat="42.129211" lon="1.665127">
        <ele>868.8</ele>
        <time>2014-07-17T17:28:20Z</time>
      </trkpt>
      <trkpt lat="42.129076" lon="1.665133">
        <ele>869.3</ele>
        <time>2014-07-17T17:28:23Z</time>
      </trkpt>
      <trkpt lat="42.129034" lon="1.665133">
        <ele>869.3</ele>
        <time>2014-07-17T17:28:24Z</time>
      </trkpt>
      <trkpt lat="42.128994" lon="1.665134">
        <ele>870.1</ele>
        <time>2014-07-17T17:28:25Z</time>
      </trkpt>
      <trkpt lat="42.128957" lon="1.665136">
        <ele>869.7</ele>
        <time>2014-07-17T17:28:26Z</time>
      </trkpt>
      <trkpt lat="42.128919" lon="1.665133">
        <ele>870.1</ele>
        <time>2014-07-17T17:28:27Z</time>
      </trkpt>
      <trkpt lat="42.128581" lon="1.665103">
        <ele>869.2</ele>
        <time>2014-07-17T17:28:40Z</time>
      </trkpt>
      <trkpt lat="42.128563" lon="1.665146">
        <ele>868.7</ele>
        <time>2014-07-17T17:28:51Z</time>
      </trkpt>
      <trkpt lat="42.128548" lon="1.665127">
        <ele>868.2</ele>
        <time>2014-07-17T17:29:23Z</time>
      </trkpt>
      <trkpt lat="42.128550" lon="1.665141">
        <ele>867.7</ele>
        <time>2014-07-17T17:29:56Z</time>
      </trkpt>
      <trkpt lat="42.128541" lon="1.665174">
        <ele>867.8</ele>
        <time>2014-07-17T17:30:22Z</time>
      </trkpt>
      <trkpt lat="42.128551" lon="1.665149">
        <ele>866.9</ele>
        <time>2014-07-17T17:30:51Z</time>
      </trkpt>
      <trkpt lat="42.128572" lon="1.665137">
        <ele>866.3</ele>
        <time>2014-07-17T17:31:17Z</time>
      </trkpt>
      <trkpt lat="42.128569" lon="1.665124">
        <ele>866.4</ele>
        <time>2014-07-17T17:31:20Z</time>
      </trkpt>
      <trkpt lat="42.128396" lon="1.664845">
        <ele>866.3</ele>
        <time>2014-07-17T17:31:31Z</time>
      </trkpt>
      <trkpt lat="42.128188" lon="1.664662">
        <ele>866.3</ele>
        <time>2014-07-17T17:31:38Z</time>
      </trkpt>
      <trkpt lat="42.127703" lon="1.664358">
        <ele>866.4</ele>
        <time>2014-07-17T17:31:52Z</time>
      </trkpt>
      <trkpt lat="42.127763" lon="1.664311">
        <ele>866.9</ele>
        <time>2014-07-17T17:31:59Z</time>
      </trkpt>
      <trkpt lat="42.127796" lon="1.664348">
        <ele>867.3</ele>
        <time>2014-07-17T17:32:01Z</time>
      </trkpt>
      <trkpt lat="42.127853" lon="1.664415">
        <ele>867.8</ele>
        <time>2014-07-17T17:32:05Z</time>
      </trkpt>
      <trkpt lat="42.128019" lon="1.664447">
        <ele>869.8</ele>
        <time>2014-07-17T17:32:14Z</time>
      </trkpt>
      <trkpt lat="42.128049" lon="1.664415">
        <ele>870.1</ele>
        <time>2014-07-17T17:32:16Z</time>
      </trkpt>
      <trkpt lat="42.128012" lon="1.664258">
        <ele>871.1</ele>
        <time>2014-07-17T17:32:23Z</time>
      </trkpt>
      <trkpt lat="42.127949" lon="1.664169">
        <ele>872.5</ele>
        <time>2014-07-17T17:32:28Z</time>
      </trkpt>
      <trkpt lat="42.127818" lon="1.663818">
        <ele>875.4</ele>
        <time>2014-07-17T17:32:43Z</time>
      </trkpt>
      <trkpt lat="42.127733" lon="1.663588">
        <ele>876.9</ele>
        <time>2014-07-17T17:32:53Z</time>
      </trkpt>
      <trkpt lat="42.127643" lon="1.663318">
        <ele>878.8</ele>
        <time>2014-07-17T17:33:05Z</time>
      </trkpt>
      <trkpt lat="42.127640" lon="1.663152">
        <ele>880.8</ele>
        <time>2014-07-17T17:33:12Z</time>
      </trkpt>
      <trkpt lat="42.127626" lon="1.662803">
        <ele>884.2</ele>
        <time>2014-07-17T17:33:27Z</time>
      </trkpt>
      <trkpt lat="42.127629" lon="1.662684">
        <ele>885.0</ele>
        <time>2014-07-17T17:33:32Z</time>
      </trkpt>
      <trkpt lat="42.127622" lon="1.662633">
        <ele>885.5</ele>
        <time>2014-07-17T17:33:34Z</time>
      </trkpt>
      <trkpt lat="42.127585" lon="1.662385">
        <ele>887.9</ele>
        <time>2014-07-17T17:33:45Z</time>
      </trkpt>
      <trkpt lat="42.127518" lon="1.662266">
        <ele>889.4</ele>
        <time>2014-07-17T17:33:51Z</time>
      </trkpt>
      <trkpt lat="42.127453" lon="1.662250">
        <ele>890.3</ele>
        <time>2014-07-17T17:33:55Z</time>
      </trkpt>
      <trkpt lat="42.127374" lon="1.662243">
        <ele>890.8</ele>
        <time>2014-07-17T17:33:59Z</time>
      </trkpt>
      <trkpt lat="42.127086" lon="1.662217">
        <ele>890.3</ele>
        <time>2014-07-17T17:34:12Z</time>
      </trkpt>
      <trkpt lat="42.126968" lon="1.662146">
        <ele>891.3</ele>
        <time>2014-07-17T17:34:18Z</time>
      </trkpt>
      <trkpt lat="42.126953" lon="1.661948">
        <ele>891.8</ele>
        <time>2014-07-17T17:34:25Z</time>
      </trkpt>
      <trkpt lat="42.126980" lon="1.661566">
        <ele>893.8</ele>
        <time>2014-07-17T17:34:39Z</time>
      </trkpt>
      <trkpt lat="42.127026" lon="1.661271">
        <ele>896.1</ele>
        <time>2014-07-17T17:34:50Z</time>
      </trkpt>
      <trkpt lat="42.127041" lon="1.661251">
        <ele>896.7</ele>
        <time>2014-07-17T17:34:51Z</time>
      </trkpt>
      <trkpt lat="42.127097" lon="1.661251">
        <ele>897.2</ele>
        <time>2014-07-17T17:34:55Z</time>
      </trkpt>
      <trkpt lat="42.127192" lon="1.661715">
        <ele>899.5</ele>
        <time>2014-07-17T17:35:11Z</time>
      </trkpt>
      <trkpt lat="42.127281" lon="1.661854">
        <ele>900.9</ele>
        <time>2014-07-17T17:35:17Z</time>
      </trkpt>
      <trkpt lat="42.127374" lon="1.661844">
        <ele>901.9</ele>
        <time>2014-07-17T17:35:21Z</time>
      </trkpt>
      <trkpt lat="42.127733" lon="1.661776">
        <ele>902.8</ele>
        <time>2014-07-17T17:35:35Z</time>
      </trkpt>
      <trkpt lat="42.127831" lon="1.661679">
        <ele>903.9</ele>
        <time>2014-07-17T17:35:40Z</time>
      </trkpt>
      <trkpt lat="42.128009" lon="1.661170">
        <ele>906.7</ele>
        <time>2014-07-17T17:35:56Z</time>
      </trkpt>
      <trkpt lat="42.128201" lon="1.660701">
        <ele>910.0</ele>
        <time>2014-07-17T17:36:12Z</time>
      </trkpt>
      <trkpt lat="42.128320" lon="1.660332">
        <ele>913.0</ele>
        <time>2014-07-17T17:36:24Z</time>
      </trkpt>
      <trkpt lat="42.128467" lon="1.660024">
        <ele>915.4</ele>
        <time>2014-07-17T17:36:35Z</time>
      </trkpt>
      <trkpt lat="42.128625" lon="1.659671">
        <ele>917.8</ele>
        <time>2014-07-17T17:36:47Z</time>
      </trkpt>
      <trkpt lat="42.128920" lon="1.659268">
        <ele>918.8</ele>
        <time>2014-07-17T17:37:01Z</time>
      </trkpt>
      <trkpt lat="42.129146" lon="1.658840">
        <ele>919.6</ele>
        <time>2014-07-17T17:37:13Z</time>
      </trkpt>
      <trkpt lat="42.129155" lon="1.658486">
        <ele>921.7</ele>
        <time>2014-07-17T17:37:23Z</time>
      </trkpt>
      <trkpt lat="42.129184" lon="1.658055">
        <ele>925.5</ele>
        <time>2014-07-17T17:37:36Z</time>
      </trkpt>
      <trkpt lat="42.129300" lon="1.657669">
        <ele>928.3</ele>
        <time>2014-07-17T17:37:50Z</time>
      </trkpt>
      <trkpt lat="42.129455" lon="1.657360">
        <ele>931.8</ele>
        <time>2014-07-17T17:38:03Z</time>
      </trkpt>
      <trkpt lat="42.129632" lon="1.656908">
        <ele>934.1</ele>
        <time>2014-07-17T17:38:19Z</time>
      </trkpt>
      <trkpt lat="42.129701" lon="1.656707">
        <ele>936.5</ele>
        <time>2014-07-17T17:38:26Z</time>
      </trkpt>
      <trkpt lat="42.129850" lon="1.656391">
        <ele>937.9</ele>
        <time>2014-07-17T17:38:37Z</time>
      </trkpt>
      <trkpt lat="42.130047" lon="1.656088">
        <ele>938.5</ele>
        <time>2014-07-17T17:38:48Z</time>
      </trkpt>
      <trkpt lat="42.130169" lon="1.656052">
        <ele>939.0</ele>
        <time>2014-07-17T17:38:52Z</time>
      </trkpt>
      <trkpt lat="42.130304" lon="1.656178">
        <ele>940.9</ele>
        <time>2014-07-17T17:38:58Z</time>
      </trkpt>
      <trkpt lat="42.130608" lon="1.656568">
        <ele>943.3</ele>
        <time>2014-07-17T17:39:13Z</time>
      </trkpt>
      <trkpt lat="42.130884" lon="1.656435">
        <ele>945.7</ele>
        <time>2014-07-17T17:39:26Z</time>
      </trkpt>
      <trkpt lat="42.131158" lon="1.656194">
        <ele>946.2</ele>
        <time>2014-07-17T17:39:37Z</time>
      </trkpt>
      <trkpt lat="42.131465" lon="1.655755">
        <ele>947.6</ele>
        <time>2014-07-17T17:39:51Z</time>
      </trkpt>
      <trkpt lat="42.131654" lon="1.655338">
        <ele>950.9</ele>
        <time>2014-07-17T17:40:04Z</time>
      </trkpt>
      <trkpt lat="42.131845" lon="1.654904">
        <ele>953.8</ele>
        <time>2014-07-17T17:40:17Z</time>
      </trkpt>
      <trkpt lat="42.132255" lon="1.654847">
        <ele>953.3</ele>
        <time>2014-07-17T17:40:29Z</time>
      </trkpt>
      <trkpt lat="42.132510" lon="1.654808">
        <ele>956.3</ele>
        <time>2014-07-17T17:40:40Z</time>
      </trkpt>
      <trkpt lat="42.132596" lon="1.654737">
        <ele>957.2</ele>
        <time>2014-07-17T17:40:46Z</time>
      </trkpt>
      <trkpt lat="42.132647" lon="1.654752">
        <ele>957.6</ele>
        <time>2014-07-17T17:40:49Z</time>
      </trkpt>
      <trkpt lat="42.132759" lon="1.654848">
        <ele>959.2</ele>
        <time>2014-07-17T17:40:55Z</time>
      </trkpt>
      <trkpt lat="42.133105" lon="1.655008">
        <ele>959.6</ele>
        <time>2014-07-17T17:41:08Z</time>
      </trkpt>
      <trkpt lat="42.133316" lon="1.655405">
        <ele>960.0</ele>
        <time>2014-07-17T17:41:21Z</time>
      </trkpt>
      <trkpt lat="42.133386" lon="1.655612">
        <ele>959.5</ele>
        <time>2014-07-17T17:41:26Z</time>
      </trkpt>
      <trkpt lat="42.133655" lon="1.655581">
        <ele>959.6</ele>
        <time>2014-07-17T17:41:36Z</time>
      </trkpt>
      <trkpt lat="42.133667" lon="1.655545">
        <ele>960.1</ele>
        <time>2014-07-17T17:41:37Z</time>
      </trkpt>
      <trkpt lat="42.133861" lon="1.654885">
        <ele>961.0</ele>
        <time>2014-07-17T17:41:53Z</time>
      </trkpt>
      <trkpt lat="42.133915" lon="1.654753">
        <ele>961.0</ele>
        <time>2014-07-17T17:41:56Z</time>
      </trkpt>
      <trkpt lat="42.134048" lon="1.654610">
        <ele>960.1</ele>
        <time>2014-07-17T17:42:00Z</time>
      </trkpt>
      <trkpt lat="42.134201" lon="1.654530">
        <ele>959.2</ele>
        <time>2014-07-17T17:42:03Z</time>
      </trkpt>
      <trkpt lat="42.134528" lon="1.654276">
        <ele>958.7</ele>
        <time>2014-07-17T17:42:11Z</time>
      </trkpt>
      <trkpt lat="42.134849" lon="1.654448">
        <ele>959.5</ele>
        <time>2014-07-17T17:42:22Z</time>
      </trkpt>
      <trkpt lat="42.135062" lon="1.654723">
        <ele>960.1</ele>
        <time>2014-07-17T17:42:32Z</time>
      </trkpt>
      <trkpt lat="42.135435" lon="1.655050">
        <ele>961.1</ele>
        <time>2014-07-17T17:42:45Z</time>
      </trkpt>
      <trkpt lat="42.135758" lon="1.655169">
        <ele>961.1</ele>
        <time>2014-07-17T17:42:56Z</time>
      </trkpt>
      <trkpt lat="42.135865" lon="1.655146">
        <ele>961.6</ele>
        <time>2014-07-17T17:43:01Z</time>
      </trkpt>
      <trkpt lat="42.136217" lon="1.655081">
        <ele>963.9</ele>
        <time>2014-07-17T17:43:14Z</time>
      </trkpt>
      <trkpt lat="42.136487" lon="1.655321">
        <ele>963.9</ele>
        <time>2014-07-17T17:43:25Z</time>
      </trkpt>
      <trkpt lat="42.136485" lon="1.655430">
        <ele>963.9</ele>
        <time>2014-07-17T17:43:28Z</time>
      </trkpt>
      <trkpt lat="42.136518" lon="1.655769">
        <ele>966.7</ele>
        <time>2014-07-17T17:43:40Z</time>
      </trkpt>
      <trkpt lat="42.136563" lon="1.655844">
        <ele>966.8</ele>
        <time>2014-07-17T17:43:43Z</time>
      </trkpt>
      <trkpt lat="42.136656" lon="1.655803">
        <ele>968.2</ele>
        <time>2014-07-17T17:43:49Z</time>
      </trkpt>
      <trkpt lat="42.136779" lon="1.655637">
        <ele>971.6</ele>
        <time>2014-07-17T17:44:02Z</time>
      </trkpt>
      <trkpt lat="42.136827" lon="1.655664">
        <ele>972.1</ele>
        <time>2014-07-17T17:44:05Z</time>
      </trkpt>
      <trkpt lat="42.136905" lon="1.655833">
        <ele>974.1</ele>
        <time>2014-07-17T17:44:14Z</time>
      </trkpt>
      <trkpt lat="42.136924" lon="1.655860">
        <ele>974.4</ele>
        <time>2014-07-17T17:44:16Z</time>
      </trkpt>
      <trkpt lat="42.136979" lon="1.655888">
        <ele>975.4</ele>
        <time>2014-07-17T17:44:20Z</time>
      </trkpt>
      <trkpt lat="42.137316" lon="1.656233">
        <ele>975.9</ele>
        <time>2014-07-17T17:44:35Z</time>
      </trkpt>
      <trkpt lat="42.137608" lon="1.656403">
        <ele>977.3</ele>
        <time>2014-07-17T17:44:47Z</time>
      </trkpt>
      <trkpt lat="42.137746" lon="1.656651">
        <ele>979.2</ele>
        <time>2014-07-17T17:44:58Z</time>
      </trkpt>
      <trkpt lat="42.137537" lon="1.656926">
        <ele>981.7</ele>
        <time>2014-07-17T17:45:11Z</time>
      </trkpt>
      <trkpt lat="42.137299" lon="1.657135">
        <ele>985.1</ele>
        <time>2014-07-17T17:45:25Z</time>
      </trkpt>
      <trkpt lat="42.137178" lon="1.657456">
        <ele>988.0</ele>
        <time>2014-07-17T17:45:38Z</time>
      </trkpt>
      <trkpt lat="42.137182" lon="1.657828">
        <ele>989.8</ele>
        <time>2014-07-17T17:45:51Z</time>
      </trkpt>
      <trkpt lat="42.137205" lon="1.658115">
        <ele>991.4</ele>
        <time>2014-07-17T17:46:01Z</time>
      </trkpt>
      <trkpt lat="42.137252" lon="1.658247">
        <ele>992.3</ele>
        <time>2014-07-17T17:46:07Z</time>
      </trkpt>
      <trkpt lat="42.137383" lon="1.658159">
        <ele>994.2</ele>
        <time>2014-07-17T17:46:17Z</time>
      </trkpt>
      <trkpt lat="42.137377" lon="1.658083">
        <ele>994.7</ele>
        <time>2014-07-17T17:46:20Z</time>
      </trkpt>
      <trkpt lat="42.137400" lon="1.657882">
        <ele>996.2</ele>
        <time>2014-07-17T17:46:28Z</time>
      </trkpt>
      <trkpt lat="42.137514" lon="1.657969">
        <ele>998.5</ele>
        <time>2014-07-17T17:46:37Z</time>
      </trkpt>
      <trkpt lat="42.137530" lon="1.657984">
        <ele>998.5</ele>
        <time>2014-07-17T17:46:38Z</time>
      </trkpt>
      <trkpt lat="42.137728" lon="1.657980">
        <ele>1001.0</ele>
        <time>2014-07-17T17:46:50Z</time>
      </trkpt>
      <trkpt lat="42.137778" lon="1.657939">
        <ele>1001.9</ele>
        <time>2014-07-17T17:46:54Z</time>
      </trkpt>
      <trkpt lat="42.137880" lon="1.657822">
        <ele>1003.3</ele>
        <time>2014-07-17T17:47:02Z</time>
      </trkpt>
      <trkpt lat="42.138099" lon="1.657652">
        <ele>1006.6</ele>
        <time>2014-07-17T17:47:16Z</time>
      </trkpt>
      <trkpt lat="42.138237" lon="1.657494">
        <ele>1008.7</ele>
        <time>2014-07-17T17:47:26Z</time>
      </trkpt>
      <trkpt lat="42.138294" lon="1.657413">
        <ele>1009.5</ele>
        <time>2014-07-17T17:47:31Z</time>
      </trkpt>
      <trkpt lat="42.138350" lon="1.657397">
        <ele>1010.0</ele>
        <time>2014-07-17T17:47:35Z</time>
      </trkpt>
      <trkpt lat="42.138632" lon="1.657426">
        <ele>1011.0</ele>
        <time>2014-07-17T17:47:48Z</time>
      </trkpt>
      <trkpt lat="42.138835" lon="1.657545">
        <ele>1011.9</ele>
        <time>2014-07-17T17:47:57Z</time>
      </trkpt>
      <trkpt lat="42.138904" lon="1.657630">
        <ele>1012.9</ele>
        <time>2014-07-17T17:48:02Z</time>
      </trkpt>
      <trkpt lat="42.139166" lon="1.657573">
        <ele>1015.3</ele>
        <time>2014-07-17T17:48:14Z</time>
      </trkpt>
      <trkpt lat="42.139182" lon="1.657562">
        <ele>1015.3</ele>
        <time>2014-07-17T17:48:15Z</time>
      </trkpt>
      <trkpt lat="42.139365" lon="1.657258">
        <ele>1018.8</ele>
        <time>2014-07-17T17:48:30Z</time>
      </trkpt>
      <trkpt lat="42.139495" lon="1.656970">
        <ele>1021.1</ele>
        <time>2014-07-17T17:48:42Z</time>
      </trkpt>
      <trkpt lat="42.139611" lon="1.656712">
        <ele>1024.5</ele>
        <time>2014-07-17T17:48:53Z</time>
      </trkpt>
      <trkpt lat="42.139727" lon="1.656380">
        <ele>1027.4</ele>
        <time>2014-07-17T17:49:06Z</time>
      </trkpt>
      <trkpt lat="42.139751" lon="1.656311">
        <ele>1028.4</ele>
        <time>2014-07-17T17:49:09Z</time>
      </trkpt>
      <trkpt lat="42.140023" lon="1.656383">
        <ele>1027.3</ele>
        <time>2014-07-17T17:49:20Z</time>
      </trkpt>
      <trkpt lat="42.140321" lon="1.656515">
        <ele>1027.9</ele>
        <time>2014-07-17T17:49:32Z</time>
      </trkpt>
      <trkpt lat="42.140521" lon="1.656738">
        <ele>1029.2</ele>
        <time>2014-07-17T17:49:43Z</time>
      </trkpt>
      <trkpt lat="42.140741" lon="1.656674">
        <ele>1032.1</ele>
        <time>2014-07-17T17:49:54Z</time>
      </trkpt>
      <trkpt lat="42.141003" lon="1.656580">
        <ele>1034.0</ele>
        <time>2014-07-17T17:50:06Z</time>
      </trkpt>
      <trkpt lat="42.141055" lon="1.656530">
        <ele>1033.7</ele>
        <time>2014-07-17T17:50:08Z</time>
      </trkpt>
      <trkpt lat="42.141154" lon="1.656322">
        <ele>1032.1</ele>
        <time>2014-07-17T17:50:12Z</time>
      </trkpt>
      <trkpt lat="42.141195" lon="1.655654">
        <ele>1027.8</ele>
        <time>2014-07-17T17:50:20Z</time>
      </trkpt>
      <trkpt lat="42.141057" lon="1.655466">
        <ele>1026.4</ele>
        <time>2014-07-17T17:50:23Z</time>
      </trkpt>
      <trkpt lat="42.140879" lon="1.655105">
        <ele>1026.4</ele>
        <time>2014-07-17T17:50:30Z</time>
      </trkpt>
      <trkpt lat="42.140668" lon="1.654456">
        <ele>1027.4</ele>
        <time>2014-07-17T17:50:44Z</time>
      </trkpt>
      <trkpt lat="42.140627" lon="1.654005">
        <ele>1028.4</ele>
        <time>2014-07-17T17:50:54Z</time>
      </trkpt>
      <trkpt lat="42.140625" lon="1.653435">
        <ele>1028.3</ele>
        <time>2014-07-17T17:51:06Z</time>
      </trkpt>
      <trkpt lat="42.140937" lon="1.653178">
        <ele>1029.2</ele>
        <time>2014-07-17T17:51:18Z</time>
      </trkpt>
      <trkpt lat="42.141188" lon="1.652989">
        <ele>1030.7</ele>
        <time>2014-07-17T17:51:28Z</time>
      </trkpt>
      <trkpt lat="42.141183" lon="1.652830">
        <ele>1031.6</ele>
        <time>2014-07-17T17:51:33Z</time>
      </trkpt>
      <trkpt lat="42.141218" lon="1.652430">
        <ele>1033.2</ele>
        <time>2014-07-17T17:51:45Z</time>
      </trkpt>
      <trkpt lat="42.141471" lon="1.652214">
        <ele>1033.2</ele>
        <time>2014-07-17T17:51:54Z</time>
      </trkpt>
      <trkpt lat="42.141352" lon="1.651640">
        <ele>1028.9</ele>
        <time>2014-07-17T17:52:02Z</time>
      </trkpt>
      <trkpt lat="42.141226" lon="1.651543">
        <ele>1027.3</ele>
        <time>2014-07-17T17:52:04Z</time>
      </trkpt>
      <trkpt lat="42.140905" lon="1.651443">
        <ele>1022.6</ele>
        <time>2014-07-17T17:52:08Z</time>
      </trkpt>
      <trkpt lat="42.140635" lon="1.651320">
        <ele>1018.8</ele>
        <time>2014-07-17T17:52:11Z</time>
      </trkpt>
      <trkpt lat="42.140547" lon="1.651262">
        <ele>1016.8</ele>
        <time>2014-07-17T17:52:12Z</time>
      </trkpt>
      <trkpt lat="42.140314" lon="1.651092">
        <ele>1012.0</ele>
        <time>2014-07-17T17:52:15Z</time>
      </trkpt>
      <trkpt lat="42.140144" lon="1.651051">
        <ele>1009.1</ele>
        <time>2014-07-17T17:52:17Z</time>
      </trkpt>
      <trkpt lat="42.140058" lon="1.651032">
        <ele>1008.1</ele>
        <time>2014-07-17T17:52:18Z</time>
      </trkpt>
      <trkpt lat="42.139899" lon="1.650973">
        <ele>1007.1</ele>
        <time>2014-07-17T17:52:20Z</time>
      </trkpt>
      <trkpt lat="42.139830" lon="1.650938">
        <ele>1007.1</ele>
        <time>2014-07-17T17:52:21Z</time>
      </trkpt>
      <trkpt lat="42.139759" lon="1.650632">
        <ele>1002.9</ele>
        <time>2014-07-17T17:52:26Z</time>
      </trkpt>
      <trkpt lat="42.139989" lon="1.650440">
        <ele>1001.4</ele>
        <time>2014-07-17T17:52:30Z</time>
      </trkpt>
      <trkpt lat="42.140046" lon="1.650406">
        <ele>1001.0</ele>
        <time>2014-07-17T17:52:31Z</time>
      </trkpt>
      <trkpt lat="42.140180" lon="1.650329">
        <ele>998.5</ele>
        <time>2014-07-17T17:52:34Z</time>
      </trkpt>
      <trkpt lat="42.140125" lon="1.650275">
        <ele>998.6</ele>
        <time>2014-07-17T17:52:36Z</time>
      </trkpt>
      <trkpt lat="42.140023" lon="1.650227">
        <ele>999.9</ele>
        <time>2014-07-17T17:52:40Z</time>
      </trkpt>
      <trkpt lat="42.139951" lon="1.650159">
        <ele>1000.5</ele>
        <time>2014-07-17T17:52:45Z</time>
      </trkpt>
      <trkpt lat="42.139685" lon="1.650134">
        <ele>1001.4</ele>
        <time>2014-07-17T17:52:56Z</time>
      </trkpt>
      <trkpt lat="42.139512" lon="1.650085">
        <ele>1000.9</ele>
        <time>2014-07-17T17:53:01Z</time>
      </trkpt>
      <trkpt lat="42.139346" lon="1.649873">
        <ele>999.9</ele>
        <time>2014-07-17T17:53:06Z</time>
      </trkpt>
      <trkpt lat="42.138918" lon="1.649205">
        <ele>998.1</ele>
        <time>2014-07-17T17:53:19Z</time>
      </trkpt>
      <trkpt lat="42.138866" lon="1.649156">
        <ele>998.0</ele>
        <time>2014-07-17T17:53:20Z</time>
      </trkpt>
      <trkpt lat="42.138569" lon="1.648958">
        <ele>994.2</ele>
        <time>2014-07-17T17:53:25Z</time>
      </trkpt>
      <trkpt lat="42.138333" lon="1.648602">
        <ele>989.9</ele>
        <time>2014-07-17T17:53:30Z</time>
      </trkpt>
      <trkpt lat="42.138308" lon="1.648519">
        <ele>988.9</ele>
        <time>2014-07-17T17:53:31Z</time>
      </trkpt>
      <trkpt lat="42.138148" lon="1.648465">
        <ele>983.7</ele>
        <time>2014-07-17T17:53:37Z</time>
      </trkpt>
      <trkpt lat="42.138091" lon="1.648713">
        <ele>980.7</ele>
        <time>2014-07-17T17:53:40Z</time>
      </trkpt>
      <trkpt lat="42.137929" lon="1.648746">
        <ele>976.4</ele>
        <time>2014-07-17T17:53:43Z</time>
      </trkpt>
      <trkpt lat="42.137875" lon="1.648357">
        <ele>973.6</ele>
        <time>2014-07-17T17:53:47Z</time>
      </trkpt>
      <trkpt lat="42.137836" lon="1.647696">
        <ele>969.2</ele>
        <time>2014-07-17T17:53:52Z</time>
      </trkpt>
      <trkpt lat="42.137620" lon="1.647190">
        <ele>965.8</ele>
        <time>2014-07-17T17:53:56Z</time>
      </trkpt>
      <trkpt lat="42.137545" lon="1.646702">
        <ele>960.0</ele>
        <time>2014-07-17T17:54:00Z</time>
      </trkpt>
      <trkpt lat="42.137594" lon="1.646607">
        <ele>959.1</ele>
        <time>2014-07-17T17:54:01Z</time>
      </trkpt>
      <trkpt lat="42.137782" lon="1.646296">
        <ele>956.8</ele>
        <time>2014-07-17T17:54:04Z</time>
      </trkpt>
      <trkpt lat="42.138028" lon="1.646042">
        <ele>954.8</ele>
        <time>2014-07-17T17:54:07Z</time>
      </trkpt>
      <trkpt lat="42.138261" lon="1.645792">
        <ele>953.9</ele>
        <time>2014-07-17T17:54:10Z</time>
      </trkpt>
      <trkpt lat="42.138436" lon="1.645698">
        <ele>951.4</ele>
        <time>2014-07-17T17:54:12Z</time>
      </trkpt>
      <trkpt lat="42.138676" lon="1.645577">
        <ele>949.1</ele>
        <time>2014-07-17T17:54:15Z</time>
      </trkpt>
      <trkpt lat="42.138735" lon="1.645422">
        <ele>950.0</ele>
        <time>2014-07-17T17:54:18Z</time>
      </trkpt>
      <trkpt lat="42.138602" lon="1.645114">
        <ele>953.4</ele>
        <time>2014-07-17T17:54:26Z</time>
      </trkpt>
      <trkpt lat="42.138615" lon="1.644913">
        <ele>953.8</ele>
        <time>2014-07-17T17:54:32Z</time>
      </trkpt>
      <trkpt lat="42.138471" lon="1.644552">
        <ele>951.8</ele>
        <time>2014-07-17T17:54:37Z</time>
      </trkpt>
      <trkpt lat="42.137939" lon="1.644125">
        <ele>953.9</ele>
        <time>2014-07-17T17:54:50Z</time>
      </trkpt>
      <trkpt lat="42.137516" lon="1.644101">
        <ele>955.2</ele>
        <time>2014-07-17T17:55:01Z</time>
      </trkpt>
      <trkpt lat="42.137251" lon="1.643852">
        <ele>956.8</ele>
        <time>2014-07-17T17:55:12Z</time>
      </trkpt>
      <trkpt lat="42.137150" lon="1.643393">
        <ele>957.2</ele>
        <time>2014-07-17T17:55:23Z</time>
      </trkpt>
      <trkpt lat="42.137210" lon="1.642974">
        <ele>958.1</ele>
        <time>2014-07-17T17:55:35Z</time>
      </trkpt>
      <trkpt lat="42.137473" lon="1.642751">
        <ele>960.6</ele>
        <time>2014-07-17T17:55:49Z</time>
      </trkpt>
      <trkpt lat="42.137544" lon="1.642588">
        <ele>961.6</ele>
        <time>2014-07-17T17:55:56Z</time>
      </trkpt>
      <trkpt lat="42.137552" lon="1.642394">
        <ele>964.3</ele>
        <time>2014-07-17T17:56:04Z</time>
      </trkpt>
      <trkpt lat="42.137728" lon="1.642347">
        <ele>966.8</ele>
        <time>2014-07-17T17:56:14Z</time>
      </trkpt>
      <trkpt lat="42.137783" lon="1.642325">
        <ele>967.7</ele>
        <time>2014-07-17T17:56:17Z</time>
      </trkpt>
      <trkpt lat="42.138041" lon="1.642162">
        <ele>971.1</ele>
        <time>2014-07-17T17:56:33Z</time>
      </trkpt>
      <trkpt lat="42.138306" lon="1.642027">
        <ele>973.6</ele>
        <time>2014-07-17T17:56:48Z</time>
      </trkpt>
      <trkpt lat="42.138493" lon="1.641946">
        <ele>975.5</ele>
        <time>2014-07-17T17:57:00Z</time>
      </trkpt>
      <trkpt lat="42.138536" lon="1.641897">
        <ele>976.4</ele>
        <time>2014-07-17T17:57:04Z</time>
      </trkpt>
      <trkpt lat="42.138592" lon="1.641884">
        <ele>977.8</ele>
        <time>2014-07-17T17:57:08Z</time>
      </trkpt>
      <trkpt lat="42.138624" lon="1.641905">
        <ele>978.4</ele>
        <time>2014-07-17T17:57:11Z</time>
      </trkpt>
      <trkpt lat="42.138634" lon="1.641980">
        <ele>979.3</ele>
        <time>2014-07-17T17:57:15Z</time>
      </trkpt>
      <trkpt lat="42.138636" lon="1.642033">
        <ele>979.2</ele>
        <time>2014-07-17T17:57:18Z</time>
      </trkpt>
      <trkpt lat="42.138615" lon="1.642127">
        <ele>980.2</ele>
        <time>2014-07-17T17:57:23Z</time>
      </trkpt>
      <trkpt lat="42.138600" lon="1.642215">
        <ele>981.6</ele>
        <time>2014-07-17T17:57:28Z</time>
      </trkpt>
      <trkpt lat="42.138580" lon="1.642512">
        <ele>985.0</ele>
        <time>2014-07-17T17:57:43Z</time>
      </trkpt>
      <trkpt lat="42.138595" lon="1.642748">
        <ele>987.9</ele>
        <time>2014-07-17T17:57:55Z</time>
      </trkpt>
      <trkpt lat="42.138634" lon="1.642870">
        <ele>989.3</ele>
        <time>2014-07-17T17:58:02Z</time>
      </trkpt>
      <trkpt lat="42.138690" lon="1.643060">
        <ele>991.4</ele>
        <time>2014-07-17T17:58:12Z</time>
      </trkpt>
      <trkpt lat="42.138758" lon="1.643203">
        <ele>993.3</ele>
        <time>2014-07-17T17:58:21Z</time>
      </trkpt>
      <trkpt lat="42.138975" lon="1.643297">
        <ele>996.6</ele>
        <time>2014-07-17T17:58:38Z</time>
      </trkpt>
      <trkpt lat="42.139076" lon="1.643242">
        <ele>998.0</ele>
        <time>2014-07-17T17:58:46Z</time>
      </trkpt>
      <trkpt lat="42.139120" lon="1.643191">
        <ele>999.5</ele>
        <time>2014-07-17T17:58:51Z</time>
      </trkpt>
      <trkpt lat="42.139165" lon="1.642924">
        <ele>1002.3</ele>
        <time>2014-07-17T17:59:06Z</time>
      </trkpt>
      <trkpt lat="42.139224" lon="1.642623">
        <ele>1005.2</ele>
        <time>2014-07-17T17:59:23Z</time>
      </trkpt>
      <trkpt lat="42.139318" lon="1.642427">
        <ele>1008.6</ele>
        <time>2014-07-17T17:59:36Z</time>
      </trkpt>
      <trkpt lat="42.139419" lon="1.642259">
        <ele>1011.4</ele>
        <time>2014-07-17T17:59:49Z</time>
      </trkpt>
      <trkpt lat="42.139471" lon="1.642188">
        <ele>1012.9</ele>
        <time>2014-07-17T17:59:55Z</time>
      </trkpt>
      <trkpt lat="42.139562" lon="1.642071">
        <ele>1014.3</ele>
        <time>2014-07-17T18:00:04Z</time>
      </trkpt>
      <trkpt lat="42.139698" lon="1.641959">
        <ele>1015.8</ele>
        <time>2014-07-17T18:00:15Z</time>
      </trkpt>
      <trkpt lat="42.139815" lon="1.641827">
        <ele>1017.3</ele>
        <time>2014-07-17T18:00:25Z</time>
      </trkpt>
      <trkpt lat="42.139806" lon="1.641476">
        <ele>1018.7</ele>
        <time>2014-07-17T18:00:40Z</time>
      </trkpt>
      <trkpt lat="42.139777" lon="1.641435">
        <ele>1018.8</ele>
        <time>2014-07-17T18:00:42Z</time>
      </trkpt>
      <trkpt lat="42.139746" lon="1.641417">
        <ele>1019.2</ele>
        <time>2014-07-17T18:00:44Z</time>
      </trkpt>
      <trkpt lat="42.139493" lon="1.641205">
        <ele>1020.1</ele>
        <time>2014-07-17T18:00:57Z</time>
      </trkpt>
      <trkpt lat="42.139384" lon="1.641128">
        <ele>1019.6</ele>
        <time>2014-07-17T18:01:01Z</time>
      </trkpt>
      <trkpt lat="42.139184" lon="1.640733">
        <ele>1020.1</ele>
        <time>2014-07-17T18:01:13Z</time>
      </trkpt>
      <trkpt lat="42.139187" lon="1.640223">
        <ele>1022.5</ele>
        <time>2014-07-17T18:01:28Z</time>
      </trkpt>
      <trkpt lat="42.139180" lon="1.640071">
        <ele>1022.0</ele>
        <time>2014-07-17T18:01:31Z</time>
      </trkpt>
      <trkpt lat="42.139378" lon="1.639697">
        <ele>1021.1</ele>
        <time>2014-07-17T18:01:39Z</time>
      </trkpt>
      <trkpt lat="42.139528" lon="1.639417">
        <ele>1023.0</ele>
        <time>2014-07-17T18:01:50Z</time>
      </trkpt>
      <trkpt lat="42.139602" lon="1.639070">
        <ele>1023.1</ele>
        <time>2014-07-17T18:02:00Z</time>
      </trkpt>
      <trkpt lat="42.139868" lon="1.639002">
        <ele>1024.4</ele>
        <time>2014-07-17T18:02:11Z</time>
      </trkpt>
      <trkpt lat="42.140047" lon="1.638788">
        <ele>1024.9</ele>
        <time>2014-07-17T18:02:21Z</time>
      </trkpt>
      <trkpt lat="42.140056" lon="1.638639">
        <ele>1023.9</ele>
        <time>2014-07-17T18:02:24Z</time>
      </trkpt>
      <trkpt lat="42.140262" lon="1.637981">
        <ele>1077.8</ele>
        <time>2014-07-17T18:02:37Z</time>
      </trkpt>
      <trkpt lat="42.140182" lon="1.637710">
        <ele>1068.7</ele>
        <time>2014-07-17T18:02:47Z</time>
      </trkpt>
      <trkpt lat="42.140198" lon="1.637412">
        <ele>1022.0</ele>
        <time>2014-07-17T18:02:50Z</time>
      </trkpt>
      <trkpt lat="42.140270" lon="1.637171">
        <ele>1019.1</ele>
        <time>2014-07-17T18:02:58Z</time>
      </trkpt>
      <trkpt lat="42.140665" lon="1.637038">
        <ele>1016.4</ele>
        <time>2014-07-17T18:03:03Z</time>
      </trkpt>
      <trkpt lat="42.140820" lon="1.636884">
        <ele>1011.9</ele>
        <time>2014-07-17T18:03:10Z</time>
      </trkpt>
      <trkpt lat="42.141002" lon="1.636805">
        <ele>1010.6</ele>
        <time>2014-07-17T18:03:14Z</time>
      </trkpt>
      <trkpt lat="42.141192" lon="1.636758">
        <ele>1010.6</ele>
        <time>2014-07-17T18:03:25Z</time>
      </trkpt>
      <trkpt lat="42.141384" lon="1.636721">
        <ele>1054.6</ele>
        <time>2014-07-17T18:03:30Z</time>
      </trkpt>
      <trkpt lat="42.141575" lon="1.636685">
        <ele>1012.4</ele>
        <time>2014-07-17T18:03:40Z</time>
      </trkpt>
      <trkpt lat="42.141955" lon="1.636556">
        <ele>1013.0</ele>
        <time>2014-07-17T18:03:45Z</time>
      </trkpt>
      <trkpt lat="42.142356" lon="1.636575">
        <ele>1014.3</ele>
        <time>2014-07-17T18:03:55Z</time>
      </trkpt>
      <trkpt lat="42.142466" lon="1.636366">
        <ele>1016.8</ele>
        <time>2014-07-17T18:04:08Z</time>
      </trkpt>
      <trkpt lat="42.142546" lon="1.636132">
        <ele>1017.2</ele>
        <time>2014-07-17T18:04:13Z</time>
      </trkpt>
      <trkpt lat="42.142685" lon="1.635946">
        <ele>1017.7</ele>
        <time>2014-07-17T18:04:15Z</time>
      </trkpt>
      <trkpt lat="42.142798" lon="1.635741">
        <ele>1017.7</ele>
        <time>2014-07-17T18:04:19Z</time>
      </trkpt>
      <trkpt lat="42.142846" lon="1.635591">
        <ele>1137.1</ele>
        <time>2014-07-17T18:04:30Z</time>
      </trkpt>
      <trkpt lat="42.142899" lon="1.635494">
        <ele>1019.1</ele>
        <time>2014-07-17T18:04:44Z</time>
      </trkpt>
      <trkpt lat="42.142962" lon="1.635181">
        <ele>1020.2</ele>
        <time>2014-07-17T18:04:52Z</time>
      </trkpt>
      <trkpt lat="42.142979" lon="1.635026">
        <ele>1146.7</ele>
        <time>2014-07-17T18:04:54Z</time>
      </trkpt>
      <trkpt lat="42.143013" lon="1.634910">
        <ele>1021.6</ele>
        <time>2014-07-17T18:05:00Z</time>
      </trkpt>
      <trkpt lat="42.143064" lon="1.634657">
        <ele>1022.0</ele>
        <time>2014-07-17T18:05:03Z</time>
      </trkpt>
      <trkpt lat="42.142920" lon="1.634118">
        <ele>1023.5</ele>
        <time>2014-07-17T18:05:11Z</time>
      </trkpt>
      <trkpt lat="42.142870" lon="1.633854">
        <ele>1023.9</ele>
        <time>2014-07-17T18:05:14Z</time>
      </trkpt>
      <trkpt lat="42.142862" lon="1.633699">
        <ele>1152.2</ele>
        <time>2014-07-17T18:05:18Z</time>
      </trkpt>
      <trkpt lat="42.142890" lon="1.633603">
        <ele>1026.4</ele>
        <time>2014-07-17T18:05:37Z</time>
      </trkpt>
      <trkpt lat="42.142957" lon="1.633348">
        <ele>1096.9</ele>
        <time>2014-07-17T18:13:55Z</time>
      </trkpt>
      <trkpt lat="42.142834" lon="1.633145">
        <ele>1116.3</ele>
        <time>2014-07-17T18:14:07Z</time>
      </trkpt>
      <trkpt lat="42.142667" lon="1.633024">
        <ele>1125.1</ele>
        <time>2014-07-17T18:14:11Z</time>
      </trkpt>
      <trkpt lat="42.142637" lon="1.632780">
        <ele>1133.4</ele>
        <time>2014-07-17T18:14:20Z</time>
      </trkpt>
      <trkpt lat="42.142603" lon="1.632513">
        <ele>1145.0</ele>
        <time>2014-07-17T18:14:26Z</time>
      </trkpt>
      <trkpt lat="42.142216" lon="1.632516">
        <ele>1105.7</ele>
        <time>2014-07-17T18:14:28Z</time>
      </trkpt>
      <trkpt lat="42.142170" lon="1.632326">
        <ele>1108.2</ele>
        <time>2014-07-17T18:14:39Z</time>
      </trkpt>
      <trkpt lat="42.142167" lon="1.632306">
        <ele>1108.5</ele>
        <time>2014-07-17T18:14:40Z</time>
      </trkpt>
      <trkpt lat="42.142083" lon="1.632209">
        <ele>1109.5</ele>
        <time>2014-07-17T18:14:48Z</time>
      </trkpt>
      <trkpt lat="42.142061" lon="1.632136">
        <ele>1110.5</ele>
        <time>2014-07-17T18:14:52Z</time>
      </trkpt>
      <trkpt lat="42.142031" lon="1.632083">
        <ele>1110.5</ele>
        <time>2014-07-17T18:14:56Z</time>
      </trkpt>
      <trkpt lat="42.141962" lon="1.631925">
        <ele>1112.4</ele>
        <time>2014-07-17T18:15:06Z</time>
      </trkpt>
      <trkpt lat="42.141833" lon="1.631704">
        <ele>1115.3</ele>
        <time>2014-07-17T18:15:20Z</time>
      </trkpt>
      <trkpt lat="42.141724" lon="1.631440">
        <ele>1118.2</ele>
        <time>2014-07-17T18:15:34Z</time>
      </trkpt>
      <trkpt lat="42.141747" lon="1.631155">
        <ele>1121.0</ele>
        <time>2014-07-17T18:15:48Z</time>
      </trkpt>
      <trkpt lat="42.141722" lon="1.630892">
        <ele>1122.6</ele>
        <time>2014-07-17T18:16:00Z</time>
      </trkpt>
      <trkpt lat="42.141715" lon="1.630786">
        <ele>1123.0</ele>
        <time>2014-07-17T18:16:05Z</time>
      </trkpt>
      <trkpt lat="42.141757" lon="1.630701">
        <ele>1123.5</ele>
        <time>2014-07-17T18:16:09Z</time>
      </trkpt>
      <trkpt lat="42.141856" lon="1.630862">
        <ele>1124.4</ele>
        <time>2014-07-17T18:16:20Z</time>
      </trkpt>
      <trkpt lat="42.141853" lon="1.630894">
        <ele>1124.4</ele>
        <time>2014-07-17T18:16:21Z</time>
      </trkpt>
      <trkpt lat="42.141870" lon="1.631203">
        <ele>1125.8</ele>
        <time>2014-07-17T18:16:32Z</time>
      </trkpt>
      <trkpt lat="42.141907" lon="1.631340">
        <ele>1127.9</ele>
        <time>2014-07-17T18:16:38Z</time>
      </trkpt>
      <trkpt lat="42.142144" lon="1.631495">
        <ele>1128.3</ele>
        <time>2014-07-17T18:16:51Z</time>
      </trkpt>
      <trkpt lat="42.142503" lon="1.631464">
        <ele>1125.5</ele>
        <time>2014-07-17T18:17:00Z</time>
      </trkpt>
      <trkpt lat="42.142591" lon="1.631441">
        <ele>1125.0</ele>
        <time>2014-07-17T18:17:02Z</time>
      </trkpt>
      <trkpt lat="42.142666" lon="1.631371">
        <ele>1124.0</ele>
        <time>2014-07-17T18:17:04Z</time>
      </trkpt>
      <trkpt lat="42.142734" lon="1.631152">
        <ele>1122.1</ele>
        <time>2014-07-17T18:17:08Z</time>
      </trkpt>
      <trkpt lat="42.142740" lon="1.631007">
        <ele>1120.7</ele>
        <time>2014-07-17T18:17:11Z</time>
      </trkpt>
      <trkpt lat="42.142740" lon="1.630849">
        <ele>1119.2</ele>
        <time>2014-07-17T18:17:15Z</time>
      </trkpt>
      <trkpt lat="42.142765" lon="1.630661">
        <ele>1117.2</ele>
        <time>2014-07-17T18:17:18Z</time>
      </trkpt>
      <trkpt lat="42.142802" lon="1.630487">
        <ele>1115.8</ele>
        <time>2014-07-17T18:17:21Z</time>
      </trkpt>
      <trkpt lat="42.142857" lon="1.630307">
        <ele>1114.8</ele>
        <time>2014-07-17T18:17:24Z</time>
      </trkpt>
      <trkpt lat="42.143045" lon="1.630186">
        <ele>1112.9</ele>
        <time>2014-07-17T18:17:29Z</time>
      </trkpt>
      <trkpt lat="42.143249" lon="1.630372">
        <ele>1110.5</ele>
        <time>2014-07-17T18:17:36Z</time>
      </trkpt>
      <trkpt lat="42.143323" lon="1.630193">
        <ele>1110.0</ele>
        <time>2014-07-17T18:17:42Z</time>
      </trkpt>
      <trkpt lat="42.143390" lon="1.629954">
        <ele>1108.5</ele>
        <time>2014-07-17T18:17:46Z</time>
      </trkpt>
      <trkpt lat="42.143386" lon="1.629687">
        <ele>1107.2</ele>
        <time>2014-07-17T18:17:50Z</time>
      </trkpt>
      <trkpt lat="42.143367" lon="1.629419">
        <ele>1106.2</ele>
        <time>2014-07-17T18:17:54Z</time>
      </trkpt>
      <trkpt lat="42.143461" lon="1.628910">
        <ele>1107.2</ele>
        <time>2014-07-17T18:18:05Z</time>
      </trkpt>
      <trkpt lat="42.143436" lon="1.628471">
        <ele>1107.2</ele>
        <time>2014-07-17T18:18:15Z</time>
      </trkpt>
      <trkpt lat="42.143451" lon="1.628019">
        <ele>1107.1</ele>
        <time>2014-07-17T18:18:26Z</time>
      </trkpt>
      <trkpt lat="42.143629" lon="1.627506">
        <ele>1103.3</ele>
        <time>2014-07-17T18:18:37Z</time>
      </trkpt>
      <trkpt lat="42.143653" lon="1.627442">
        <ele>1102.3</ele>
        <time>2014-07-17T18:18:38Z</time>
      </trkpt>
      <trkpt lat="42.143718" lon="1.627173">
        <ele>1099.4</ele>
        <time>2014-07-17T18:18:42Z</time>
      </trkpt>
      <trkpt lat="42.143721" lon="1.626802">
        <ele>1094.7</ele>
        <time>2014-07-17T18:18:48Z</time>
      </trkpt>
      <trkpt lat="42.143734" lon="1.626503">
        <ele>1090.4</ele>
        <time>2014-07-17T18:18:53Z</time>
      </trkpt>
      <trkpt lat="42.143751" lon="1.626211">
        <ele>1087.4</ele>
        <time>2014-07-17T18:18:57Z</time>
      </trkpt>
      <trkpt lat="42.143729" lon="1.626046">
        <ele>1086.5</ele>
        <time>2014-07-17T18:18:59Z</time>
      </trkpt>
      <trkpt lat="42.143893" lon="1.625602">
        <ele>1083.6</ele>
        <time>2014-07-17T18:19:06Z</time>
      </trkpt>
      <trkpt lat="42.144012" lon="1.625472">
        <ele>1082.2</ele>
        <time>2014-07-17T18:19:09Z</time>
      </trkpt>
      <trkpt lat="42.144003" lon="1.625184">
        <ele>1080.2</ele>
        <time>2014-07-17T18:19:13Z</time>
      </trkpt>
      <trkpt lat="42.144107" lon="1.624447">
        <ele>1077.8</ele>
        <time>2014-07-17T18:19:24Z</time>
      </trkpt>
      <trkpt lat="42.144244" lon="1.624289">
        <ele>1077.3</ele>
        <time>2014-07-17T18:19:27Z</time>
      </trkpt>
      <trkpt lat="42.144389" lon="1.623984">
        <ele>1074.9</ele>
        <time>2014-07-17T18:19:32Z</time>
      </trkpt>
      <trkpt lat="42.144471" lon="1.623876">
        <ele>1073.9</ele>
        <time>2014-07-17T18:19:34Z</time>
      </trkpt>
      <trkpt lat="42.144621" lon="1.623474">
        <ele>1072.6</ele>
        <time>2014-07-17T18:19:40Z</time>
      </trkpt>
      <trkpt lat="42.144806" lon="1.623029">
        <ele>1070.1</ele>
        <time>2014-07-17T18:19:49Z</time>
      </trkpt>
      <trkpt lat="42.144905" lon="1.622753">
        <ele>1073.1</ele>
        <time>2014-07-17T18:20:05Z</time>
      </trkpt>
      <trkpt lat="42.144966" lon="1.622620">
        <ele>1074.9</ele>
        <time>2014-07-17T18:20:14Z</time>
      </trkpt>
      <trkpt lat="42.145056" lon="1.622471">
        <ele>1078.3</ele>
        <time>2014-07-17T18:20:26Z</time>
      </trkpt>
      <trkpt lat="42.145234" lon="1.622302">
        <ele>1080.2</ele>
        <time>2014-07-17T18:20:40Z</time>
      </trkpt>
      <trkpt lat="42.145250" lon="1.622294">
        <ele>1080.3</ele>
        <time>2014-07-17T18:20:41Z</time>
      </trkpt>
      <trkpt lat="42.145418" lon="1.622006">
        <ele>1079.7</ele>
        <time>2014-07-17T18:20:52Z</time>
      </trkpt>
      <trkpt lat="42.145635" lon="1.621648">
        <ele>1080.7</ele>
        <time>2014-07-17T18:21:05Z</time>
      </trkpt>
      <trkpt lat="42.145649" lon="1.621600">
        <ele>1080.7</ele>
        <time>2014-07-17T18:21:06Z</time>
      </trkpt>
      <trkpt lat="42.145691" lon="1.621216">
        <ele>1076.8</ele>
        <time>2014-07-17T18:21:13Z</time>
      </trkpt>
      <trkpt lat="42.145667" lon="1.621104">
        <ele>1076.3</ele>
        <time>2014-07-17T18:21:15Z</time>
      </trkpt>
      <trkpt lat="42.145623" lon="1.620967">
        <ele>1075.0</ele>
        <time>2014-07-17T18:21:17Z</time>
      </trkpt>
      <trkpt lat="42.145526" lon="1.620668">
        <ele>1071.2</ele>
        <time>2014-07-17T18:21:22Z</time>
      </trkpt>
      <trkpt lat="42.145487" lon="1.620404">
        <ele>1067.3</ele>
        <time>2014-07-17T18:21:27Z</time>
      </trkpt>
      <trkpt lat="42.145397" lon="1.620226">
        <ele>1062.9</ele>
        <time>2014-07-17T18:21:31Z</time>
      </trkpt>
      <trkpt lat="42.145318" lon="1.620132">
        <ele>1060.6</ele>
        <time>2014-07-17T18:21:33Z</time>
      </trkpt>
      <trkpt lat="42.145206" lon="1.620009">
        <ele>1057.6</ele>
        <time>2014-07-17T18:21:36Z</time>
      </trkpt>
      <trkpt lat="42.145034" lon="1.619818">
        <ele>1053.3</ele>
        <time>2014-07-17T18:21:41Z</time>
      </trkpt>
      <trkpt lat="42.144975" lon="1.619705">
        <ele>1052.8</ele>
        <time>2014-07-17T18:21:43Z</time>
      </trkpt>
      <trkpt lat="42.144820" lon="1.619526">
        <ele>1050.4</ele>
        <time>2014-07-17T18:21:47Z</time>
      </trkpt>
      <trkpt lat="42.144691" lon="1.619417">
        <ele>1048.5</ele>
        <time>2014-07-17T18:21:50Z</time>
      </trkpt>
      <trkpt lat="42.144607" lon="1.619340">
        <ele>1048.0</ele>
        <time>2014-07-17T18:21:52Z</time>
      </trkpt>
      <trkpt lat="42.144453" lon="1.619200">
        <ele>1047.6</ele>
        <time>2014-07-17T18:21:56Z</time>
      </trkpt>
      <trkpt lat="42.144007" lon="1.618898">
        <ele>1043.2</ele>
        <time>2014-07-17T18:22:05Z</time>
      </trkpt>
      <trkpt lat="42.143760" lon="1.618827">
        <ele>1039.3</ele>
        <time>2014-07-17T18:22:09Z</time>
      </trkpt>
      <trkpt lat="42.143657" lon="1.618768">
        <ele>1036.4</ele>
        <time>2014-07-17T18:22:11Z</time>
      </trkpt>
      <trkpt lat="42.143552" lon="1.618688">
        <ele>1034.0</ele>
        <time>2014-07-17T18:22:13Z</time>
      </trkpt>
      <trkpt lat="42.143473" lon="1.618642">
        <ele>1031.7</ele>
        <time>2014-07-17T18:22:14Z</time>
      </trkpt>
      <trkpt lat="42.143203" lon="1.618504">
        <ele>1029.2</ele>
        <time>2014-07-17T18:22:20Z</time>
      </trkpt>
      <trkpt lat="42.143039" lon="1.618090">
        <ele>1027.8</ele>
        <time>2014-07-17T18:22:26Z</time>
      </trkpt>
      <trkpt lat="42.142976" lon="1.617898">
        <ele>1027.3</ele>
        <time>2014-07-17T18:22:36Z</time>
      </trkpt>
      <trkpt lat="42.142985" lon="1.617863">
        <ele>1026.8</ele>
        <time>2014-07-17T18:22:52Z</time>
      </trkpt>
      <trkpt lat="42.142921" lon="1.617728">
        <ele>1026.4</ele>
        <time>2014-07-17T18:22:56Z</time>
      </trkpt>
      <trkpt lat="42.142892" lon="1.617339">
        <ele>1025.5</ele>
        <time>2014-07-17T18:23:06Z</time>
      </trkpt>
      <trkpt lat="42.142883" lon="1.617014">
        <ele>1025.9</ele>
        <time>2014-07-17T18:23:14Z</time>
      </trkpt>
      <trkpt lat="42.142874" lon="1.616692">
        <ele>1022.5</ele>
        <time>2014-07-17T18:23:20Z</time>
      </trkpt>
      <trkpt lat="42.142883" lon="1.616418">
        <ele>1018.8</ele>
        <time>2014-07-17T18:23:26Z</time>
      </trkpt>
      <trkpt lat="42.142900" lon="1.616157">
        <ele>1015.3</ele>
        <time>2014-07-17T18:23:30Z</time>
      </trkpt>
      <trkpt lat="42.142907" lon="1.616095">
        <ele>1014.4</ele>
        <time>2014-07-17T18:23:31Z</time>
      </trkpt>
      <trkpt lat="42.142947" lon="1.615911">
        <ele>1012.4</ele>
        <time>2014-07-17T18:23:34Z</time>
      </trkpt>
      <trkpt lat="42.142990" lon="1.615574">
        <ele>1008.6</ele>
        <time>2014-07-17T18:23:39Z</time>
      </trkpt>
      <trkpt lat="42.143012" lon="1.615342">
        <ele>1007.6</ele>
        <time>2014-07-17T18:23:42Z</time>
      </trkpt>
      <trkpt lat="42.142973" lon="1.615111">
        <ele>1007.2</ele>
        <time>2014-07-17T18:23:46Z</time>
      </trkpt>
      <trkpt lat="42.142915" lon="1.614971">
        <ele>1008.2</ele>
        <time>2014-07-17T18:23:51Z</time>
      </trkpt>
      <trkpt lat="42.142827" lon="1.614704">
        <ele>1009.0</ele>
        <time>2014-07-17T18:24:02Z</time>
      </trkpt>
      <trkpt lat="42.142877" lon="1.614315">
        <ele>1007.6</ele>
        <time>2014-07-17T18:24:11Z</time>
      </trkpt>
      <trkpt lat="42.142991" lon="1.614137">
        <ele>1006.2</ele>
        <time>2014-07-17T18:24:15Z</time>
      </trkpt>
      <trkpt lat="42.143378" lon="1.613814">
        <ele>1006.7</ele>
        <time>2014-07-17T18:24:27Z</time>
      </trkpt>
      <trkpt lat="42.143397" lon="1.613799">
        <ele>1006.6</ele>
        <time>2014-07-17T18:24:28Z</time>
      </trkpt>
      <trkpt lat="42.143515" lon="1.613636">
        <ele>1007.2</ele>
        <time>2014-07-17T18:24:35Z</time>
      </trkpt>
      <trkpt lat="42.143569" lon="1.613479">
        <ele>1007.1</ele>
        <time>2014-07-17T18:24:43Z</time>
      </trkpt>
      <trkpt lat="42.143596" lon="1.613440">
        <ele>1006.6</ele>
        <time>2014-07-17T18:24:45Z</time>
      </trkpt>
      <trkpt lat="42.143603" lon="1.613329">
        <ele>1006.2</ele>
        <time>2014-07-17T18:24:50Z</time>
      </trkpt>
      <trkpt lat="42.143625" lon="1.613298">
        <ele>1005.7</ele>
        <time>2014-07-17T18:24:52Z</time>
      </trkpt>
      <trkpt lat="42.143632" lon="1.613239">
        <ele>1004.7</ele>
        <time>2014-07-17T18:24:56Z</time>
      </trkpt>
      <trkpt lat="42.143653" lon="1.613147">
        <ele>1002.9</ele>
        <time>2014-07-17T18:25:00Z</time>
      </trkpt>
      <trkpt lat="42.143655" lon="1.613076">
        <ele>1001.9</ele>
        <time>2014-07-17T18:25:03Z</time>
      </trkpt>
      <trkpt lat="42.143735" lon="1.612785">
        <ele>1000.0</ele>
        <time>2014-07-17T18:25:12Z</time>
      </trkpt>
      <trkpt lat="42.143749" lon="1.612741">
        <ele>998.5</ele>
        <time>2014-07-17T18:25:24Z</time>
      </trkpt>
      <trkpt lat="42.143753" lon="1.612730">
        <ele>998.6</ele>
        <time>2014-07-17T18:25:25Z</time>
      </trkpt>
      <trkpt lat="42.143781" lon="1.612640">
        <ele>997.1</ele>
        <time>2014-07-17T18:25:29Z</time>
      </trkpt>
      <trkpt lat="42.143800" lon="1.612580">
        <ele>996.2</ele>
        <time>2014-07-17T18:25:31Z</time>
      </trkpt>
      <trkpt lat="42.143884" lon="1.612507">
        <ele>994.6</ele>
        <time>2014-07-17T18:25:36Z</time>
      </trkpt>
      <trkpt lat="42.144069" lon="1.612452">
        <ele>992.2</ele>
        <time>2014-07-17T18:25:44Z</time>
      </trkpt>
      <trkpt lat="42.144105" lon="1.612458">
        <ele>991.8</ele>
        <time>2014-07-17T18:25:46Z</time>
      </trkpt>
      <trkpt lat="42.144168" lon="1.612425">
        <ele>989.8</ele>
        <time>2014-07-17T18:25:51Z</time>
      </trkpt>
      <trkpt lat="42.144311" lon="1.612379">
        <ele>986.9</ele>
        <time>2014-07-17T18:26:00Z</time>
      </trkpt>
      <trkpt lat="42.144520" lon="1.612289">
        <ele>983.6</ele>
        <time>2014-07-17T18:26:10Z</time>
      </trkpt>
      <trkpt lat="42.144549" lon="1.612254">
        <ele>983.2</ele>
        <time>2014-07-17T18:26:12Z</time>
      </trkpt>
      <trkpt lat="42.144620" lon="1.612226">
        <ele>982.2</ele>
        <time>2014-07-17T18:26:16Z</time>
      </trkpt>
      <trkpt lat="42.144693" lon="1.612168">
        <ele>980.7</ele>
        <time>2014-07-17T18:26:28Z</time>
      </trkpt>
      <trkpt lat="42.144701" lon="1.612161">
        <ele>980.7</ele>
        <time>2014-07-17T18:26:29Z</time>
      </trkpt>
      <trkpt lat="42.144721" lon="1.612128">
        <ele>979.3</ele>
        <time>2014-07-17T18:26:32Z</time>
      </trkpt>
      <trkpt lat="42.144730" lon="1.612110">
        <ele>978.8</ele>
        <time>2014-07-17T18:26:35Z</time>
      </trkpt>
      <trkpt lat="42.144872" lon="1.612124">
        <ele>977.3</ele>
        <time>2014-07-17T18:26:49Z</time>
      </trkpt>
      <trkpt lat="42.144918" lon="1.612142">
        <ele>975.9</ele>
        <time>2014-07-17T18:27:02Z</time>
      </trkpt>
      <trkpt lat="42.144933" lon="1.612135">
        <ele>975.5</ele>
        <time>2014-07-17T18:27:08Z</time>
      </trkpt>
      <trkpt lat="42.144964" lon="1.612143">
        <ele>974.9</ele>
        <time>2014-07-17T18:27:11Z</time>
      </trkpt>
      <trkpt lat="42.145028" lon="1.612124">
        <ele>972.5</ele>
        <time>2014-07-17T18:27:24Z</time>
      </trkpt>
      <trkpt lat="42.145132" lon="1.611957">
        <ele>969.2</ele>
        <time>2014-07-17T18:27:35Z</time>
      </trkpt>
      <trkpt lat="42.145283" lon="1.611950">
        <ele>965.4</ele>
        <time>2014-07-17T18:27:42Z</time>
      </trkpt>
      <trkpt lat="42.145385" lon="1.611929">
        <ele>963.0</ele>
        <time>2014-07-17T18:27:46Z</time>
      </trkpt>
      <trkpt lat="42.145444" lon="1.611870">
        <ele>962.5</ele>
        <time>2014-07-17T18:27:57Z</time>
      </trkpt>
      <trkpt lat="42.145456" lon="1.611869">
        <ele>962.4</ele>
        <time>2014-07-17T18:27:59Z</time>
      </trkpt>
      <trkpt lat="42.145482" lon="1.611862">
        <ele>962.4</ele>
        <time>2014-07-17T18:28:02Z</time>
      </trkpt>
      <trkpt lat="42.145492" lon="1.611826">
        <ele>962.4</ele>
        <time>2014-07-17T18:28:05Z</time>
      </trkpt>
      <trkpt lat="42.145455" lon="1.611716">
        <ele>963.9</ele>
        <time>2014-07-17T18:28:14Z</time>
      </trkpt>
      <trkpt lat="42.145433" lon="1.611680">
        <ele>964.4</ele>
        <time>2014-07-17T18:28:17Z</time>
      </trkpt>
      <trkpt lat="42.145425" lon="1.611638">
        <ele>964.9</ele>
        <time>2014-07-17T18:28:24Z</time>
      </trkpt>
      <trkpt lat="42.145329" lon="1.611510">
        <ele>965.3</ele>
        <time>2014-07-17T18:28:32Z</time>
      </trkpt>
      <trkpt lat="42.145192" lon="1.611443">
        <ele>965.9</ele>
        <time>2014-07-17T18:28:39Z</time>
      </trkpt>
      <trkpt lat="42.145060" lon="1.611344">
        <ele>966.7</ele>
        <time>2014-07-17T18:28:47Z</time>
      </trkpt>
      <trkpt lat="42.145031" lon="1.611302">
        <ele>967.7</ele>
        <time>2014-07-17T18:28:50Z</time>
      </trkpt>
      <trkpt lat="42.145015" lon="1.611254">
        <ele>967.7</ele>
        <time>2014-07-17T18:28:53Z</time>
      </trkpt>
      <trkpt lat="42.144980" lon="1.611137">
        <ele>969.2</ele>
        <time>2014-07-17T18:28:58Z</time>
      </trkpt>
      <trkpt lat="42.145084" lon="1.610714">
        <ele>968.2</ele>
        <time>2014-07-17T18:29:10Z</time>
      </trkpt>
      <trkpt lat="42.144903" lon="1.610494">
        <ele>970.6</ele>
        <time>2014-07-17T18:29:22Z</time>
      </trkpt>
      <trkpt lat="42.144794" lon="1.610169">
        <ele>970.7</ele>
        <time>2014-07-17T18:29:34Z</time>
      </trkpt>
      <trkpt lat="42.144773" lon="1.610024">
        <ele>971.2</ele>
        <time>2014-07-17T18:29:39Z</time>
      </trkpt>
      <trkpt lat="42.144724" lon="1.609860">
        <ele>972.5</ele>
        <time>2014-07-17T18:29:48Z</time>
      </trkpt>
      <trkpt lat="42.144706" lon="1.609803">
        <ele>973.0</ele>
        <time>2014-07-17T18:29:51Z</time>
      </trkpt>
      <trkpt lat="42.144643" lon="1.609659">
        <ele>975.4</ele>
        <time>2014-07-17T18:30:00Z</time>
      </trkpt>
      <trkpt lat="42.144632" lon="1.609644">
        <ele>976.4</ele>
        <time>2014-07-17T18:30:11Z</time>
      </trkpt>
      <trkpt lat="42.144593" lon="1.609571">
        <ele>977.8</ele>
        <time>2014-07-17T18:30:23Z</time>
      </trkpt>
      <trkpt lat="42.144591" lon="1.609548">
        <ele>978.4</ele>
        <time>2014-07-17T18:30:25Z</time>
      </trkpt>
      <trkpt lat="42.144570" lon="1.609469">
        <ele>979.7</ele>
        <time>2014-07-17T18:30:32Z</time>
      </trkpt>
      <trkpt lat="42.144557" lon="1.609272">
        <ele>982.1</ele>
        <time>2014-07-17T18:30:47Z</time>
      </trkpt>
      <trkpt lat="42.144530" lon="1.609215">
        <ele>983.6</ele>
        <time>2014-07-17T18:30:54Z</time>
      </trkpt>
      <trkpt lat="42.144413" lon="1.608930">
        <ele>982.7</ele>
        <time>2014-07-17T18:31:05Z</time>
      </trkpt>
      <trkpt lat="42.144398" lon="1.608880">
        <ele>982.7</ele>
        <time>2014-07-17T18:31:07Z</time>
      </trkpt>
      <trkpt lat="42.144464" lon="1.608811">
        <ele>982.1</ele>
        <time>2014-07-17T18:31:11Z</time>
      </trkpt>
      <trkpt lat="42.144539" lon="1.608834">
        <ele>981.2</ele>
        <time>2014-07-17T18:31:13Z</time>
      </trkpt>
      <trkpt lat="42.144606" lon="1.608736">
        <ele>978.9</ele>
        <time>2014-07-17T18:31:22Z</time>
      </trkpt>
      <trkpt lat="42.144607" lon="1.608736">
        <ele>978.9</ele>
        <time>2014-07-17T18:31:29Z</time>
      </trkpt>
      <trkpt lat="42.144518" lon="1.608638">
        <ele>976.9</ele>
        <time>2014-07-17T18:31:34Z</time>
      </trkpt>
      <trkpt lat="42.144384" lon="1.608493">
        <ele>972.6</ele>
        <time>2014-07-17T18:31:39Z</time>
      </trkpt>
      <trkpt lat="42.144265" lon="1.608389">
        <ele>968.8</ele>
        <time>2014-07-17T18:31:43Z</time>
      </trkpt>
      <trkpt lat="42.144136" lon="1.608285">
        <ele>965.3</ele>
        <time>2014-07-17T18:31:47Z</time>
      </trkpt>
      <trkpt lat="42.144073" lon="1.608221">
        <ele>963.9</ele>
        <time>2014-07-17T18:31:49Z</time>
      </trkpt>
      <trkpt lat="42.143936" lon="1.608049">
        <ele>960.1</ele>
        <time>2014-07-17T18:31:53Z</time>
      </trkpt>
      <trkpt lat="42.143812" lon="1.607953">
        <ele>957.6</ele>
        <time>2014-07-17T18:31:56Z</time>
      </trkpt>
      <trkpt lat="42.143744" lon="1.607886">
        <ele>956.3</ele>
        <time>2014-07-17T18:31:58Z</time>
      </trkpt>
      <trkpt lat="42.143715" lon="1.607854">
        <ele>955.8</ele>
        <time>2014-07-17T18:31:59Z</time>
      </trkpt>
      <trkpt lat="42.143515" lon="1.607589">
        <ele>952.4</ele>
        <time>2014-07-17T18:32:05Z</time>
      </trkpt>
      <trkpt lat="42.143346" lon="1.607350">
        <ele>947.0</ele>
        <time>2014-07-17T18:32:10Z</time>
      </trkpt>
      <trkpt lat="42.143278" lon="1.607264">
        <ele>945.2</ele>
        <time>2014-07-17T18:32:12Z</time>
      </trkpt>
      <trkpt lat="42.143216" lon="1.607162">
        <ele>943.8</ele>
        <time>2014-07-17T18:32:14Z</time>
      </trkpt>
      <trkpt lat="42.143020" lon="1.607051">
        <ele>939.4</ele>
        <time>2014-07-17T18:32:19Z</time>
      </trkpt>
      <trkpt lat="42.142975" lon="1.606967">
        <ele>937.9</ele>
        <time>2014-07-17T18:32:23Z</time>
      </trkpt>
      <trkpt lat="42.143064" lon="1.606894">
        <ele>934.5</ele>
        <time>2014-07-17T18:32:28Z</time>
      </trkpt>
      <trkpt lat="42.143141" lon="1.606743">
        <ele>931.2</ele>
        <time>2014-07-17T18:32:34Z</time>
      </trkpt>
      <trkpt lat="42.143171" lon="1.606668">
        <ele>928.9</ele>
        <time>2014-07-17T18:32:39Z</time>
      </trkpt>
      <trkpt lat="42.143225" lon="1.606609">
        <ele>926.0</ele>
        <time>2014-07-17T18:32:44Z</time>
      </trkpt>
      <trkpt lat="42.143220" lon="1.606558">
        <ele>925.0</ele>
        <time>2014-07-17T18:32:47Z</time>
      </trkpt>
      <trkpt lat="42.143207" lon="1.606489">
        <ele>922.6</ele>
        <time>2014-07-17T18:32:50Z</time>
      </trkpt>
      <trkpt lat="42.143245" lon="1.606372">
        <ele>919.3</ele>
        <time>2014-07-17T18:32:55Z</time>
      </trkpt>
      <trkpt lat="42.143233" lon="1.606273">
        <ele>917.2</ele>
        <time>2014-07-17T18:33:01Z</time>
      </trkpt>
      <trkpt lat="42.143154" lon="1.606144">
        <ele>913.4</ele>
        <time>2014-07-17T18:33:06Z</time>
      </trkpt>
      <trkpt lat="42.143118" lon="1.606002">
        <ele>911.5</ele>
        <time>2014-07-17T18:33:10Z</time>
      </trkpt>
      <trkpt lat="42.143115" lon="1.605917">
        <ele>911.0</ele>
        <time>2014-07-17T18:33:12Z</time>
      </trkpt>
      <trkpt lat="42.143159" lon="1.605786">
        <ele>909.5</ele>
        <time>2014-07-17T18:33:16Z</time>
      </trkpt>
      <trkpt lat="42.143153" lon="1.605530">
        <ele>906.2</ele>
        <time>2014-07-17T18:33:23Z</time>
      </trkpt>
      <trkpt lat="42.143176" lon="1.605223">
        <ele>903.3</ele>
        <time>2014-07-17T18:33:28Z</time>
      </trkpt>
      <trkpt lat="42.143183" lon="1.605175">
        <ele>902.8</ele>
        <time>2014-07-17T18:33:29Z</time>
      </trkpt>
      <trkpt lat="42.143181" lon="1.605012">
        <ele>899.5</ele>
        <time>2014-07-17T18:33:32Z</time>
      </trkpt>
      <trkpt lat="42.143168" lon="1.604830">
        <ele>895.6</ele>
        <time>2014-07-17T18:33:36Z</time>
      </trkpt>
      <trkpt lat="42.143165" lon="1.604705">
        <ele>893.2</ele>
        <time>2014-07-17T18:33:39Z</time>
      </trkpt>
      <trkpt lat="42.143156" lon="1.604511">
        <ele>890.4</ele>
        <time>2014-07-17T18:33:43Z</time>
      </trkpt>
      <trkpt lat="42.143127" lon="1.604242">
        <ele>886.6</ele>
        <time>2014-07-17T18:33:48Z</time>
      </trkpt>
      <trkpt lat="42.143103" lon="1.603969">
        <ele>883.1</ele>
        <time>2014-07-17T18:33:53Z</time>
      </trkpt>
      <trkpt lat="42.143151" lon="1.603858">
        <ele>882.2</ele>
        <time>2014-07-17T18:33:56Z</time>
      </trkpt>
      <trkpt lat="42.143168" lon="1.603630">
        <ele>877.8</ele>
        <time>2014-07-17T18:34:02Z</time>
      </trkpt>
      <trkpt lat="42.143099" lon="1.603502">
        <ele>875.0</ele>
        <time>2014-07-17T18:34:06Z</time>
      </trkpt>
      <trkpt lat="42.142990" lon="1.603247">
        <ele>870.2</ele>
        <time>2014-07-17T18:34:11Z</time>
      </trkpt>
      <trkpt lat="42.142941" lon="1.603166">
        <ele>868.7</ele>
        <time>2014-07-17T18:34:13Z</time>
      </trkpt>
      <trkpt lat="42.142826" lon="1.602867">
        <ele>864.5</ele>
        <time>2014-07-17T18:34:19Z</time>
      </trkpt>
      <trkpt lat="42.142804" lon="1.602614">
        <ele>860.6</ele>
        <time>2014-07-17T18:34:25Z</time>
      </trkpt>
      <trkpt lat="42.142805" lon="1.602585">
        <ele>860.0</ele>
        <time>2014-07-17T18:34:26Z</time>
      </trkpt>
      <trkpt lat="42.142834" lon="1.602497">
        <ele>858.1</ele>
        <time>2014-07-17T18:34:38Z</time>
      </trkpt>
      <trkpt lat="42.142855" lon="1.602422">
        <ele>857.2</ele>
        <time>2014-07-17T18:34:47Z</time>
      </trkpt>
      <trkpt lat="42.142836" lon="1.602363">
        <ele>856.8</ele>
        <time>2014-07-17T18:34:50Z</time>
      </trkpt>
      <trkpt lat="42.142771" lon="1.602203">
        <ele>855.7</ele>
        <time>2014-07-17T18:34:54Z</time>
      </trkpt>
      <trkpt lat="42.142490" lon="1.601866">
        <ele>853.3</ele>
        <time>2014-07-17T18:35:01Z</time>
      </trkpt>
      <trkpt lat="42.142242" lon="1.601776">
        <ele>850.0</ele>
        <time>2014-07-17T18:35:05Z</time>
      </trkpt>
      <trkpt lat="42.141867" lon="1.601589">
        <ele>846.2</ele>
        <time>2014-07-17T18:35:12Z</time>
      </trkpt>
      <trkpt lat="42.141503" lon="1.601567">
        <ele>841.8</ele>
        <time>2014-07-17T18:35:18Z</time>
      </trkpt>
      <trkpt lat="42.141249" lon="1.601574">
        <ele>838.9</ele>
        <time>2014-07-17T18:35:22Z</time>
      </trkpt>
      <trkpt lat="42.141055" lon="1.601511">
        <ele>836.0</ele>
        <time>2014-07-17T18:35:26Z</time>
      </trkpt>
      <trkpt lat="42.141048" lon="1.601310">
        <ele>833.7</ele>
        <time>2014-07-17T18:35:32Z</time>
      </trkpt>
      <trkpt lat="42.141058" lon="1.601276">
        <ele>833.1</ele>
        <time>2014-07-17T18:35:33Z</time>
      </trkpt>
      <trkpt lat="42.141078" lon="1.601189">
        <ele>832.2</ele>
        <time>2014-07-17T18:35:36Z</time>
      </trkpt>
      <trkpt lat="42.141225" lon="1.600956">
        <ele>828.4</ele>
        <time>2014-07-17T18:35:46Z</time>
      </trkpt>
      <trkpt lat="42.141432" lon="1.600822">
        <ele>825.9</ele>
        <time>2014-07-17T18:35:55Z</time>
      </trkpt>
      <trkpt lat="42.141548" lon="1.600682">
        <ele>824.5</ele>
        <time>2014-07-17T18:36:01Z</time>
      </trkpt>
      <trkpt lat="42.141642" lon="1.600532">
        <ele>823.5</ele>
        <time>2014-07-17T18:36:06Z</time>
      </trkpt>
      <trkpt lat="42.141712" lon="1.600462">
        <ele>822.6</ele>
        <time>2014-07-17T18:36:09Z</time>
      </trkpt>
      <trkpt lat="42.141736" lon="1.600446">
        <ele>822.1</ele>
        <time>2014-07-17T18:36:15Z</time>
      </trkpt>
      <trkpt lat="42.141763" lon="1.600382">
        <ele>823.0</ele>
        <time>2014-07-17T18:36:24Z</time>
      </trkpt>
      <trkpt lat="42.141717" lon="1.600229">
        <ele>823.5</ele>
        <time>2014-07-17T18:36:31Z</time>
      </trkpt>
      <trkpt lat="42.141669" lon="1.600150">
        <ele>823.1</ele>
        <time>2014-07-17T18:36:39Z</time>
      </trkpt>
      <trkpt lat="42.141650" lon="1.600130">
        <ele>823.6</ele>
        <time>2014-07-17T18:36:41Z</time>
      </trkpt>
      <trkpt lat="42.141678" lon="1.600054">
        <ele>824.0</ele>
        <time>2014-07-17T18:36:50Z</time>
      </trkpt>
      <trkpt lat="42.141737" lon="1.599877">
        <ele>823.5</ele>
        <time>2014-07-17T18:36:58Z</time>
      </trkpt>
      <trkpt lat="42.141742" lon="1.599816">
        <ele>824.0</ele>
        <time>2014-07-17T18:37:00Z</time>
      </trkpt>
      <trkpt lat="42.141657" lon="1.599669">
        <ele>825.0</ele>
        <time>2014-07-17T18:37:07Z</time>
      </trkpt>
      <trkpt lat="42.141483" lon="1.599479">
        <ele>825.1</ele>
        <time>2014-07-17T18:37:16Z</time>
      </trkpt>
      <trkpt lat="42.141392" lon="1.599496">
        <ele>825.4</ele>
        <time>2014-07-17T18:37:20Z</time>
      </trkpt>
      <trkpt lat="42.140935" lon="1.599504">
        <ele>827.4</ele>
        <time>2014-07-17T18:37:38Z</time>
      </trkpt>
      <trkpt lat="42.140799" lon="1.599514">
        <ele>827.0</ele>
        <time>2014-07-17T18:37:42Z</time>
      </trkpt>
      <trkpt lat="42.140693" lon="1.599377">
        <ele>827.4</ele>
        <time>2014-07-17T18:37:47Z</time>
      </trkpt>
      <trkpt lat="42.140581" lon="1.598998">
        <ele>829.8</ele>
        <time>2014-07-17T18:38:00Z</time>
      </trkpt>
      <trkpt lat="42.140584" lon="1.598643">
        <ele>831.3</ele>
        <time>2014-07-17T18:38:12Z</time>
      </trkpt>
      <trkpt lat="42.140413" lon="1.598458">
        <ele>833.1</ele>
        <time>2014-07-17T18:38:25Z</time>
      </trkpt>
      <trkpt lat="42.140270" lon="1.598285">
        <ele>835.6</ele>
        <time>2014-07-17T18:38:37Z</time>
      </trkpt>
      <trkpt lat="42.140235" lon="1.598229">
        <ele>836.5</ele>
        <time>2014-07-17T18:38:41Z</time>
      </trkpt>
      <trkpt lat="42.140194" lon="1.598168">
        <ele>837.9</ele>
        <time>2014-07-17T18:38:46Z</time>
      </trkpt>
      <trkpt lat="42.140201" lon="1.598102">
        <ele>838.5</ele>
        <time>2014-07-17T18:38:50Z</time>
      </trkpt>
      <trkpt lat="42.140220" lon="1.598059">
        <ele>839.5</ele>
        <time>2014-07-17T18:38:53Z</time>
      </trkpt>
      <trkpt lat="42.140266" lon="1.598071">
        <ele>840.4</ele>
        <time>2014-07-17T18:38:58Z</time>
      </trkpt>
      <trkpt lat="42.140336" lon="1.598062">
        <ele>841.8</ele>
        <time>2014-07-17T18:39:03Z</time>
      </trkpt>
      <trkpt lat="42.140426" lon="1.597994">
        <ele>843.3</ele>
        <time>2014-07-17T18:39:10Z</time>
      </trkpt>
      <trkpt lat="42.140546" lon="1.597918">
        <ele>845.2</ele>
        <time>2014-07-17T18:39:19Z</time>
      </trkpt>
      <trkpt lat="42.140669" lon="1.597816">
        <ele>846.7</ele>
        <time>2014-07-17T18:39:28Z</time>
      </trkpt>
      <trkpt lat="42.140752" lon="1.597722">
        <ele>848.1</ele>
        <time>2014-07-17T18:39:35Z</time>
      </trkpt>
      <trkpt lat="42.140815" lon="1.597598">
        <ele>849.5</ele>
        <time>2014-07-17T18:39:41Z</time>
      </trkpt>
      <trkpt lat="42.140942" lon="1.597335">
        <ele>851.4</ele>
        <time>2014-07-17T18:39:55Z</time>
      </trkpt>
      <trkpt lat="42.140982" lon="1.597131">
        <ele>852.4</ele>
        <time>2014-07-17T18:40:04Z</time>
      </trkpt>
      <trkpt lat="42.140982" lon="1.597059">
        <ele>853.4</ele>
        <time>2014-07-17T18:40:07Z</time>
      </trkpt>
      <trkpt lat="42.141035" lon="1.596856">
        <ele>854.4</ele>
        <time>2014-07-17T18:40:16Z</time>
      </trkpt>
      <trkpt lat="42.141253" lon="1.596708">
        <ele>856.3</ele>
        <time>2014-07-17T18:40:30Z</time>
      </trkpt>
      <trkpt lat="42.141282" lon="1.596691">
        <ele>856.7</ele>
        <time>2014-07-17T18:40:32Z</time>
      </trkpt>
      <trkpt lat="42.141431" lon="1.596563">
        <ele>859.2</ele>
        <time>2014-07-17T18:40:45Z</time>
      </trkpt>
      <trkpt lat="42.141482" lon="1.596512">
        <ele>860.1</ele>
        <time>2014-07-17T18:40:50Z</time>
      </trkpt>
      <trkpt lat="42.141518" lon="1.596444">
        <ele>861.0</ele>
        <time>2014-07-17T18:40:54Z</time>
      </trkpt>
      <trkpt lat="42.141419" lon="1.596323">
        <ele>863.9</ele>
        <time>2014-07-17T18:41:05Z</time>
      </trkpt>
      <trkpt lat="42.141407" lon="1.596313">
        <ele>864.4</ele>
        <time>2014-07-17T18:41:06Z</time>
      </trkpt>
      <trkpt lat="42.141263" lon="1.596113">
        <ele>866.8</ele>
        <time>2014-07-17T18:41:18Z</time>
      </trkpt>
      <trkpt lat="42.141029" lon="1.595791">
        <ele>868.7</ele>
        <time>2014-07-17T18:41:33Z</time>
      </trkpt>
      <trkpt lat="42.140731" lon="1.595432">
        <ele>870.7</ele>
        <time>2014-07-17T18:41:48Z</time>
      </trkpt>
      <trkpt lat="42.140543" lon="1.595011">
        <ele>873.1</ele>
        <time>2014-07-17T18:42:03Z</time>
      </trkpt>
      <trkpt lat="42.140405" lon="1.594709">
        <ele>875.9</ele>
        <time>2014-07-17T18:42:15Z</time>
      </trkpt>
      <trkpt lat="42.140212" lon="1.594502">
        <ele>878.3</ele>
        <time>2014-07-17T18:42:26Z</time>
      </trkpt>
      <trkpt lat="42.139958" lon="1.594432">
        <ele>879.7</ele>
        <time>2014-07-17T18:42:37Z</time>
      </trkpt>
      <trkpt lat="42.139662" lon="1.594667">
        <ele>882.6</ele>
        <time>2014-07-17T18:42:51Z</time>
      </trkpt>
      <trkpt lat="42.139396" lon="1.594609">
        <ele>886.0</ele>
        <time>2014-07-17T18:43:03Z</time>
      </trkpt>
      <trkpt lat="42.139168" lon="1.594440">
        <ele>888.9</ele>
        <time>2014-07-17T18:43:15Z</time>
      </trkpt>
      <trkpt lat="42.138973" lon="1.593927">
        <ele>890.3</ele>
        <time>2014-07-17T18:43:32Z</time>
      </trkpt>
      <trkpt lat="42.138801" lon="1.593451">
        <ele>892.2</ele>
        <time>2014-07-17T18:43:48Z</time>
      </trkpt>
      <trkpt lat="42.138645" lon="1.593365">
        <ele>893.7</ele>
        <time>2014-07-17T18:43:55Z</time>
      </trkpt>
      <trkpt lat="42.138450" lon="1.593077">
        <ele>897.1</ele>
        <time>2014-07-17T18:44:10Z</time>
      </trkpt>
      <trkpt lat="42.138309" lon="1.592896">
        <ele>900.0</ele>
        <time>2014-07-17T18:44:21Z</time>
      </trkpt>
      <trkpt lat="42.138145" lon="1.592701">
        <ele>903.3</ele>
        <time>2014-07-17T18:44:34Z</time>
      </trkpt>
      <trkpt lat="42.138052" lon="1.592605">
        <ele>905.8</ele>
        <time>2014-07-17T18:44:40Z</time>
      </trkpt>
      <trkpt lat="42.138037" lon="1.592593">
        <ele>905.8</ele>
        <time>2014-07-17T18:44:41Z</time>
      </trkpt>
      <trkpt lat="42.137967" lon="1.592568">
        <ele>907.2</ele>
        <time>2014-07-17T18:44:45Z</time>
      </trkpt>
      <trkpt lat="42.137694" lon="1.592578">
        <ele>910.0</ele>
        <time>2014-07-17T18:44:59Z</time>
      </trkpt>
      <trkpt lat="42.137324" lon="1.592606">
        <ele>910.1</ele>
        <time>2014-07-17T18:45:13Z</time>
      </trkpt>
      <trkpt lat="42.137096" lon="1.592630">
        <ele>909.5</ele>
        <time>2014-07-17T18:45:21Z</time>
      </trkpt>
      <trkpt lat="42.136978" lon="1.592580">
        <ele>908.6</ele>
        <time>2014-07-17T18:45:24Z</time>
      </trkpt>
      <trkpt lat="42.136509" lon="1.592304">
        <ele>908.6</ele>
        <time>2014-07-17T18:45:35Z</time>
      </trkpt>
      <trkpt lat="42.136083" lon="1.592228">
        <ele>910.5</ele>
        <time>2014-07-17T18:45:50Z</time>
      </trkpt>
      <trkpt lat="42.136051" lon="1.592138">
        <ele>912.0</ele>
        <time>2014-07-17T18:46:01Z</time>
      </trkpt>
    </trkseg>
  </trk>
</gpx>
